Mississippi River (Missouri), New Madrid (07024175)

StateMissouriLatestUnknown (370000 cfs)
RiverMississippi RiverRatingObservedEstimated
Updated2020-08-15 1:00 (1 hour ago)Flood - The river is flooding. Obstacles can be treacherous or deadly. The river should be avoided at this stage for casual trips and definitely for the inexperienced. Trips should be attempted only with protective gear and equipment.Flood(none)(none)
Discharge370000 cfs (median: 369000 cfs)High - The river is high and potentially dangerous, especially for the young and / or inexperienced. Normal stream obstacles are sometimes difficult to navigate. Extended distances can be attempted, but canoe travel may not be advisable.High(none)(none)
Height12.22 feetGood - Conditions are ideal for a canoe or kayak. Boats typically will drag on fewer than one-quarter of riffles, if at all, and portages are unnecessary or rare. Normal float lengths can be attempted without a problem.Good(none)(none)
TrendRising (falling over 24 hours)Low - River is low but can still be floated. Some riffles are okay but most come with significant dragging and might need a portage. Float lengths should be reduced to accommodate low flow, dragging, and portages.Low(none)(none)
USGSExternal icon USGS Site (External icon Google Maps)Poor - River is too low to float comfortably. Most or all riffles will drag or must be portaged and some obstacles (such as slick shelf rock) cause undue problems. Avoid the river at this stage for casual paddling trips.Poor(none)(none)

Trending Data

Plot Image

Trips for Mississippi River (Missouri), New Madrid (07024175)

DateStartEndDistanceConditionDischargeHeightFishingDetails

A total of 0 rows are displayed.

Condition Descriptions

Fishing Conditions

Fish Species

Notes

Classic Trip List

The classic River Trips application is still available for use. It is updated with the new system using a data retrofit. It is no longer maintained. The original River Trips application is no longer updated (as of 1 Dec 2016) but can be checked for errors or for the condition of the data before it was converted to the new system.

Gauge Data Table

ObservationHeightDischargeMaximum
Discharge
Minimum
Discharge
Mean
Discharge
P05P10P20P25P50
(Median)
P75P80P90P95
2020-08-15 01:00 12.22 370000 439000 (2019) 326000 (2017) 376000 326000 336000 369000 423000 439000
2020-08-15 00:00 12.18 369000 439000 (2019) 326000 (2017) 376000 326000 336000 369000 423000 439000
2020-08-14 23:00 12.14 369000 440000 (2019) 332000 (2017) 376000 332000 341000 366000 422000 440000
2020-08-14 22:00 12.16 369000 440000 (2019) 332000 (2017) 376000 332000 341000 366000 422000 440000
2020-08-14 21:00 12.15 369000 440000 (2019) 332000 (2017) 376000 332000 341000 366000 422000 440000
2020-08-14 20:00 12.14 369000 440000 (2019) 332000 (2017) 376000 332000 341000 366000 422000 440000
2020-08-14 19:00 12.11 368000 440000 (2019) 332000 (2017) 376000 332000 341000 366000 422000 440000
2020-08-14 18:00 12.15 369000 440000 (2019) 332000 (2017) 376000 332000 341000 366000 422000 440000
2020-08-14 17:00 12.17 369000 440000 (2019) 332000 (2017) 376000 332000 341000 366000 422000 440000
2020-08-14 16:00 12.15 369000 440000 (2019) 332000 (2017) 376000 332000 341000 366000 422000 440000
2020-08-14 15:00 12.18 369000 440000 (2019) 332000 (2017) 376000 332000 341000 366000 422000 440000
2020-08-14 14:00 12.19 370000 440000 (2019) 332000 (2017) 376000 332000 341000 366000 422000 440000
2020-08-14 13:00 12.22 370000 440000 (2019) 332000 (2017) 376000 332000 341000 366000 422000 440000
2020-08-14 12:00 12.16 369000 440000 (2019) 332000 (2017) 376000 332000 341000 366000 422000 440000
2020-08-14 11:00 12.25 371000 440000 (2019) 332000 (2017) 376000 332000 341000 366000 422000 440000
2020-08-14 10:00 12.26 371000 440000 (2019) 332000 (2017) 376000 332000 341000 366000 422000 440000
2020-08-14 09:00 12.26 371000 440000 (2019) 332000 (2017) 376000 332000 341000 366000 422000 440000
2020-08-14 08:00 12.30 372000 440000 (2019) 332000 (2017) 376000 332000 341000 366000 422000 440000
2020-08-14 07:00 12.20 370000 440000 (2019) 332000 (2017) 376000 332000 341000 366000 422000 440000
2020-08-14 06:00 12.20 370000 440000 (2019) 332000 (2017) 376000 332000 341000 366000 422000 440000
2020-08-14 05:00 12.33 373000 440000 (2019) 332000 (2017) 376000 332000 341000 366000 422000 440000
2020-08-14 04:00 12.33 373000 440000 (2019) 332000 (2017) 376000 332000 341000 366000 422000 440000
2020-08-14 03:00 12.38 374000 440000 (2019) 332000 (2017) 376000 332000 341000 366000 422000 440000
2020-08-14 02:00 12.38 374000 440000 (2019) 332000 (2017) 376000 332000 341000 366000 422000 440000
2020-08-14 01:00 12.42 375000 440000 (2019) 332000 (2017) 376000 332000 341000 366000 422000 440000
2020-08-14 00:00 12.44 375000 440000 (2019) 332000 (2017) 376000 332000 341000 366000 422000 440000
2020-08-13 23:00 12.52 377000 438000 (2019) 337000 (2017) 385000 337000 343000 382000 429000 438000
2020-08-13 22:00 12.37 373000 438000 (2019) 337000 (2017) 385000 337000 343000 382000 429000 438000
2020-08-13 21:00 12.38 374000 438000 (2019) 337000 (2017) 385000 337000 343000 382000 429000 438000
2020-08-13 20:00 12.59 378000 438000 (2019) 337000 (2017) 385000 337000 343000 382000 429000 438000
2020-08-13 19:00 12.54 377000 438000 (2019) 337000 (2017) 385000 337000 343000 382000 429000 438000
2020-08-13 18:00 12.67 380000 438000 (2019) 337000 (2017) 385000 337000 343000 382000 429000 438000
2020-08-13 17:00 12.13 368000 438000 (2019) 337000 (2017) 385000 337000 343000 382000 429000 438000
2020-08-13 16:00 12.72 381000 438000 (2019) 337000 (2017) 385000 337000 343000 382000 429000 438000
2020-08-13 15:00 12.77 382000 438000 (2019) 337000 (2017) 385000 337000 343000 382000 429000 438000
2020-08-13 14:00 12.82 383000 438000 (2019) 337000 (2017) 385000 337000 343000 382000 429000 438000
2020-08-13 13:00 12.83 383000 438000 (2019) 337000 (2017) 385000 337000 343000 382000 429000 438000
2020-08-13 12:00 12.87 384000 438000 (2019) 337000 (2017) 385000 337000 343000 382000 429000 438000
2020-08-13 11:00 12.88 385000 438000 (2019) 337000 (2017) 385000 337000 343000 382000 429000 438000
2020-08-13 10:00 12.90 385000 438000 (2019) 337000 (2017) 385000 337000 343000 382000 429000 438000
2020-08-13 09:00 12.88 385000 438000 (2019) 337000 (2017) 385000 337000 343000 382000 429000 438000
2020-08-13 08:00 12.89 385000 438000 (2019) 337000 (2017) 385000 337000 343000 382000 429000 438000
2020-08-13 07:00 12.90 385000 438000 (2019) 337000 (2017) 385000 337000 343000 382000 429000 438000
2020-08-13 06:00 12.85 384000 438000 (2019) 337000 (2017) 385000 337000 343000 382000 429000 438000
2020-08-13 05:00 12.85 384000 438000 (2019) 337000 (2017) 385000 337000 343000 382000 429000 438000
2020-08-13 04:00 12.82 383000 438000 (2019) 337000 (2017) 385000 337000 343000 382000 429000 438000
2020-08-13 03:00 12.71 381000 438000 (2019) 337000 (2017) 385000 337000 343000 382000 429000 438000
2020-08-13 02:00 12.74 381000 438000 (2019) 337000 (2017) 385000 337000 343000 382000 429000 438000
2020-08-13 01:00 12.67 380000 438000 (2019) 337000 (2017) 385000 337000 343000 382000 429000 438000
2020-08-13 00:00 12.72 381000 438000 (2019) 337000 (2017) 385000 337000 343000 382000 429000 438000
2020-08-12 23:00 12.73 381000 458000 (2019) 336000 (2017) 390000 336000 338000 384000 450000 458000
2020-08-12 22:00 12.71 381000 458000 (2019) 336000 (2017) 390000 336000 338000 384000 450000 458000
2020-08-12 21:00 12.72 381000 458000 (2019) 336000 (2017) 390000 336000 338000 384000 450000 458000
2020-08-12 20:00 12.55 377000 458000 (2019) 336000 (2017) 390000 336000 338000 384000 450000 458000
2020-08-12 19:00 12.40 374000 458000 (2019) 336000 (2017) 390000 336000 338000 384000 450000 458000
2020-08-12 18:00 12.64 379000 458000 (2019) 336000 (2017) 390000 336000 338000 384000 450000 458000
2020-08-12 17:00 12.65 380000 458000 (2019) 336000 (2017) 390000 336000 338000 384000 450000 458000
2020-08-12 16:00 12.89 385000 458000 (2019) 336000 (2017) 390000 336000 338000 384000 450000 458000
2020-08-12 15:00 12.97 387000 458000 (2019) 336000 (2017) 390000 336000 338000 384000 450000 458000
2020-08-12 14:00 13.05 388000 458000 (2019) 336000 (2017) 390000 336000 338000 384000 450000 458000
2020-08-12 13:00 13.15 390000 458000 (2019) 336000 (2017) 390000 336000 338000 384000 450000 458000
2020-08-12 12:00 13.22 392000 458000 (2019) 336000 (2017) 390000 336000 338000 384000 450000 458000
2020-08-12 11:00 13.33 394000 458000 (2019) 336000 (2017) 390000 336000 338000 384000 450000 458000
2020-08-12 10:00 13.40 396000 458000 (2019) 336000 (2017) 390000 336000 338000 384000 450000 458000
2020-08-12 09:00 13.49 398000 458000 (2019) 336000 (2017) 390000 336000 338000 384000 450000 458000
2020-08-12 08:00 13.55 399000 458000 (2019) 336000 (2017) 390000 336000 338000 384000 450000 458000
2020-08-12 07:00 13.60 400000 458000 (2019) 336000 (2017) 390000 336000 338000 384000 450000 458000
2020-08-12 06:00 13.66 402000 458000 (2019) 336000 (2017) 390000 336000 338000 384000 450000 458000
2020-08-12 05:00 13.69 402000 458000 (2019) 336000 (2017) 390000 336000 338000 384000 450000 458000
2020-08-12 04:00 13.72 403000 458000 (2019) 336000 (2017) 390000 336000 338000 384000 450000 458000
2020-08-12 03:00 13.75 404000 458000 (2019) 336000 (2017) 390000 336000 338000 384000 450000 458000
2020-08-12 02:00 13.75 404000 458000 (2019) 336000 (2017) 390000 336000 338000 384000 450000 458000
2020-08-12 01:00 13.75 404000 458000 (2019) 336000 (2017) 390000 336000 338000 384000 450000 458000
2020-08-12 00:00 13.74 404000 458000 (2019) 336000 (2017) 390000 336000 338000 384000 450000 458000
2020-08-11 23:00 13.75 404000 476000 (2019) 318000 (2017) 392000 318000 324000 388000 465000 476000
2020-08-11 22:00 13.73 403000 476000 (2019) 318000 (2017) 392000 318000 324000 388000 465000 476000
2020-08-11 21:00 13.73 403000 476000 (2019) 318000 (2017) 392000 318000 324000 388000 465000 476000
2020-08-11 20:00 13.73 403000 476000 (2019) 318000 (2017) 392000 318000 324000 388000 465000 476000
2020-08-11 19:00 13.70 403000 476000 (2019) 318000 (2017) 392000 318000 324000 388000 465000 476000
2020-08-11 18:00 13.67 402000 476000 (2019) 318000 (2017) 392000 318000 324000 388000 465000 476000
2020-08-11 17:00 13.72 403000 476000 (2019) 318000 (2017) 392000 318000 324000 388000 465000 476000
2020-08-11 16:00 13.52 399000 476000 (2019) 318000 (2017) 392000 318000 324000 388000 465000 476000
2020-08-11 15:00 13.64 401000 476000 (2019) 318000 (2017) 392000 318000 324000 388000 465000 476000
2020-08-11 14:00 13.60 400000 476000 (2019) 318000 (2017) 392000 318000 324000 388000 465000 476000
2020-08-11 13:00 13.60 400000 476000 (2019) 318000 (2017) 392000 318000 324000 388000 465000 476000
2020-08-11 12:00 13.58 400000 476000 (2019) 318000 (2017) 392000 318000 324000 388000 465000 476000
2020-08-11 11:00 13.54 399000 476000 (2019) 318000 (2017) 392000 318000 324000 388000 465000 476000
2020-08-11 10:00 13.50 398000 476000 (2019) 318000 (2017) 392000 318000 324000 388000 465000 476000
2020-08-11 09:00 13.43 397000 476000 (2019) 318000 (2017) 392000 318000 324000 388000 465000 476000
2020-08-11 08:00 13.42 396000 476000 (2019) 318000 (2017) 392000 318000 324000 388000 465000 476000
2020-08-11 07:00 13.38 396000 476000 (2019) 318000 (2017) 392000 318000 324000 388000 465000 476000
2020-08-11 06:00 13.35 395000 476000 (2019) 318000 (2017) 392000 318000 324000 388000 465000 476000
2020-08-11 05:00 13.32 394000 476000 (2019) 318000 (2017) 392000 318000 324000 388000 465000 476000
2020-08-11 04:00 13.28 393000 476000 (2019) 318000 (2017) 392000 318000 324000 388000 465000 476000
2020-08-11 03:00 13.20 392000 476000 (2019) 318000 (2017) 392000 318000 324000 388000 465000 476000
2020-08-11 02:00 13.22 392000 476000 (2019) 318000 (2017) 392000 318000 324000 388000 465000 476000
2020-08-11 01:00 13.16 391000 476000 (2019) 318000 (2017) 392000 318000 324000 388000 465000 476000
2020-08-11 00:00 12.85 384000 476000 (2019) 318000 (2017) 392000 318000 324000 388000 465000 476000
2020-08-10 23:00 12.69 380000 481000 (2019) 316000 (2017) 403000 316000 326000 407000 475000 481000
2020-08-10 22:00 12.84 384000 481000 (2019) 316000 (2017) 403000 316000 326000 407000 475000 481000
2020-08-10 21:00 12.95 386000 481000 (2019) 316000 (2017) 403000 316000 326000 407000 475000 481000
2020-08-10 20:00 12.93 386000 481000 (2019) 316000 (2017) 403000 316000 326000 407000 475000 481000
2020-08-10 19:00 12.81 383000 481000 (2019) 316000 (2017) 403000 316000 326000 407000 475000 481000
2020-08-10 18:00 12.62 379000 481000 (2019) 316000 (2017) 403000 316000 326000 407000 475000 481000
2020-08-10 17:00 12.29 372000 481000 (2019) 316000 (2017) 403000 316000 326000 407000 475000 481000
2020-08-10 16:00 12.66 380000 481000 (2019) 316000 (2017) 403000 316000 326000 407000 475000 481000
2020-08-10 15:00 12.70 381000 481000 (2019) 316000 (2017) 403000 316000 326000 407000 475000 481000
2020-08-10 14:00 12.30 372000 481000 (2019) 316000 (2017) 403000 316000 326000 407000 475000 481000
2020-08-10 13:00 12.19 370000 481000 (2019) 316000 (2017) 403000 316000 326000 407000 475000 481000
2020-08-10 12:00 12.52 377000 481000 (2019) 316000 (2017) 403000 316000 326000 407000 475000 481000
2020-08-10 11:00 12.56 378000 481000 (2019) 316000 (2017) 403000 316000 326000 407000 475000 481000
2020-08-10 10:00 12.58 378000 481000 (2019) 316000 (2017) 403000 316000 326000 407000 475000 481000
2020-08-10 09:00 12.63 379000 481000 (2019) 316000 (2017) 403000 316000 326000 407000 475000 481000
2020-08-10 08:00 12.65 380000 481000 (2019) 316000 (2017) 403000 316000 326000 407000 475000 481000
2020-08-10 07:00 12.68 380000 481000 (2019) 316000 (2017) 403000 316000 326000 407000 475000 481000
2020-08-10 06:00 12.65 380000 481000 (2019) 316000 (2017) 403000 316000 326000 407000 475000 481000
2020-08-10 05:00 12.71 381000 481000 (2019) 316000 (2017) 403000 316000 326000 407000 475000 481000
2020-08-10 04:00 12.72 381000 481000 (2019) 316000 (2017) 403000 316000 326000 407000 475000 481000
2020-08-10 03:00 12.72 381000 481000 (2019) 316000 (2017) 403000 316000 326000 407000 475000 481000
2020-08-10 02:00 12.73 381000 481000 (2019) 316000 (2017) 403000 316000 326000 407000 475000 481000
2020-08-10 01:00 12.76 382000 481000 (2019) 316000 (2017) 403000 316000 326000 407000 475000 481000
2020-08-10 00:00 12.84 384000 481000 (2019) 316000 (2017) 403000 316000 326000 407000 475000 481000
2020-08-09 23:00 12.87 384000 501000 (2016) 335000 (2017) 422000 335000 343000 426000 497000 501000
2020-08-09 22:00 12.90 385000 501000 (2016) 335000 (2017) 422000 335000 343000 426000 497000 501000
2020-08-09 21:00 12.97 387000 501000 (2016) 335000 (2017) 422000 335000 343000 426000 497000 501000
2020-08-09 20:00 13.05 388000 501000 (2016) 335000 (2017) 422000 335000 343000 426000 497000 501000
2020-08-09 19:00 13.11 390000 501000 (2016) 335000 (2017) 422000 335000 343000 426000 497000 501000
2020-08-09 18:00 13.18 391000 501000 (2016) 335000 (2017) 422000 335000 343000 426000 497000 501000
2020-08-09 17:00 13.26 393000 501000 (2016) 335000 (2017) 422000 335000 343000 426000 497000 501000
2020-08-09 16:00 13.29 394000 501000 (2016) 335000 (2017) 422000 335000 343000 426000 497000 501000
2020-08-09 15:00 12.94 386000 501000 (2016) 335000 (2017) 422000 335000 343000 426000 497000 501000
2020-08-09 14:00 13.12 390000 501000 (2016) 335000 (2017) 422000 335000 343000 426000 497000 501000
2020-08-09 13:00 13.73 403000 501000 (2016) 335000 (2017) 422000 335000 343000 426000 497000 501000
2020-08-09 12:00 13.75 404000 501000 (2016) 335000 (2017) 422000 335000 343000 426000 497000 501000
2020-08-09 11:00 13.97 409000 501000 (2016) 335000 (2017) 422000 335000 343000 426000 497000 501000
2020-08-09 10:00 13.95 408000 501000 (2016) 335000 (2017) 422000 335000 343000 426000 497000 501000
2020-08-09 09:00 14.17 413000 501000 (2016) 335000 (2017) 422000 335000 343000 426000 497000 501000
2020-08-09 08:00 14.26 415000 501000 (2016) 335000 (2017) 422000 335000 343000 426000 497000 501000
2020-08-09 07:00 14.36 418000 501000 (2016) 335000 (2017) 422000 335000 343000 426000 497000 501000
2020-08-09 06:00 14.43 419000 501000 (2016) 335000 (2017) 422000 335000 343000 426000 497000 501000
2020-08-09 05:00 14.48 420000 501000 (2016) 335000 (2017) 422000 335000 343000 426000 497000 501000
2020-08-09 04:00 14.58 423000 501000 (2016) 335000 (2017) 422000 335000 343000 426000 497000 501000
2020-08-09 03:00 14.63 424000 501000 (2016) 335000 (2017) 422000 335000 343000 426000 497000 501000
2020-08-09 02:00 14.55 422000 501000 (2016) 335000 (2017) 422000 335000 343000 426000 497000 501000
2020-08-09 01:00 14.61 423000 501000 (2016) 335000 (2017) 422000 335000 343000 426000 497000 501000
2020-08-09 00:00 14.84 429000 501000 (2016) 335000 (2017) 422000 335000 343000 426000 497000 501000
2020-08-08 23:00 14.85 429000 517000 (2016) 351000 (2017) 438000 351000 357000 443000 515000 517000
2020-08-08 22:00 14.93 431000 517000 (2016) 351000 (2017) 438000 351000 357000 443000 515000 517000
2020-08-08 21:00 15.02 433000 517000 (2016) 351000 (2017) 438000 351000 357000 443000 515000 517000
2020-08-08 20:00 15.08 434000 517000 (2016) 351000 (2017) 438000 351000 357000 443000 515000 517000
2020-08-08 19:00 15.17 436000 517000 (2016) 351000 (2017) 438000 351000 357000 443000 515000 517000
2020-08-08 18:00 15.22 437000 517000 (2016) 351000 (2017) 438000 351000 357000 443000 515000 517000
2020-08-08 17:00 15.31 439000 517000 (2016) 351000 (2017) 438000 351000 357000 443000 515000 517000
2020-08-08 16:00 15.33 440000 517000 (2016) 351000 (2017) 438000 351000 357000 443000 515000 517000
2020-08-08 15:00 15.39 441000 517000 (2016) 351000 (2017) 438000 351000 357000 443000 515000 517000
2020-08-08 14:00 15.43 442000 517000 (2016) 351000 (2017) 438000 351000 357000 443000 515000 517000
2020-08-08 13:00 15.16 436000 517000 (2016) 351000 (2017) 438000 351000 357000 443000 515000 517000
2020-08-08 12:00 15.58 446000 517000 (2016) 351000 (2017) 438000 351000 357000 443000 515000 517000
2020-08-08 11:00 15.60 446000 517000 (2016) 351000 (2017) 438000 351000 357000 443000 515000 517000
2020-08-08 10:00 15.71 449000 517000 (2016) 351000 (2017) 438000 351000 357000 443000 515000 517000
2020-08-08 09:00 15.77 450000 517000 (2016) 351000 (2017) 438000 351000 357000 443000 515000 517000
2020-08-08 08:00 15.83 452000 517000 (2016) 351000 (2017) 438000 351000 357000 443000 515000 517000
2020-08-08 07:00 15.83 452000 517000 (2016) 351000 (2017) 438000 351000 357000 443000 515000 517000
2020-08-08 06:00 15.94 454000 517000 (2016) 351000 (2017) 438000 351000 357000 443000 515000 517000
2020-08-08 05:00 15.97 455000 517000 (2016) 351000 (2017) 438000 351000 357000 443000 515000 517000
2020-08-08 04:00 16.05 457000 517000 (2016) 351000 (2017) 438000 351000 357000 443000 515000 517000
2020-08-08 03:00 16.07 457000 517000 (2016) 351000 (2017) 438000 351000 357000 443000 515000 517000
2020-08-08 02:00 16.16 460000 517000 (2016) 351000 (2017) 438000 351000 357000 443000 515000 517000
2020-08-08 01:00 16.19 460000 517000 (2016) 351000 (2017) 438000 351000 357000 443000 515000 517000
2020-08-08 00:00 16.26 462000 517000 (2016) 351000 (2017) 438000 351000 357000 443000 515000 517000
2020-08-07 23:00 16.35 464000 532000 (2016) 386000 (2018) 460000 386000 388000 462000 532000 532000
2020-08-07 22:00 16.41 466000 532000 (2016) 386000 (2018) 460000 386000 388000 462000 532000 532000
2020-08-07 21:00 16.51 468000 532000 (2016) 386000 (2018) 460000 386000 388000 462000 532000 532000
2020-08-07 20:00 16.58 470000 532000 (2016) 386000 (2018) 460000 386000 388000 462000 532000 532000
2020-08-07 19:00 16.69 472000 532000 (2016) 386000 (2018) 460000 386000 388000 462000 532000 532000
2020-08-07 18:00 16.72 473000 532000 (2016) 386000 (2018) 460000 386000 388000 462000 532000 532000
2020-08-07 17:00 16.84 476000 532000 (2016) 386000 (2018) 460000 386000 388000 462000 532000 532000
2020-08-07 16:00 16.91 478000 532000 (2016) 386000 (2018) 460000 386000 388000 462000 532000 532000
2020-08-07 15:00 16.94 478000 532000 (2016) 386000 (2018) 460000 386000 388000 462000 532000 532000
2020-08-07 14:00 17.10 482000 532000 (2016) 386000 (2018) 460000 386000 388000 462000 532000 532000
2020-08-07 13:00 17.02 480000 532000 (2016) 386000 (2018) 460000 386000 388000 462000 532000 532000
2020-08-07 12:00 17.27 486000 532000 (2016) 386000 (2018) 460000 386000 388000 462000 532000 532000
2020-08-07 11:00 17.38 489000 532000 (2016) 386000 (2018) 460000 386000 388000 462000 532000 532000
2020-08-07 10:00 17.43 490000 532000 (2016) 386000 (2018) 460000 386000 388000 462000 532000 532000
2020-08-07 09:00 17.55 493000 532000 (2016) 386000 (2018) 460000 386000 388000 462000 532000 532000
2020-08-07 08:00 17.60 495000 532000 (2016) 386000 (2018) 460000 386000 388000 462000 532000 532000
2020-08-07 07:00 17.69 497000 532000 (2016) 386000 (2018) 460000 386000 388000 462000 532000 532000
2020-08-07 06:00 17.77 499000 532000 (2016) 386000 (2018) 460000 386000 388000 462000 532000 532000
2020-08-07 05:00 17.88 502000 532000 (2016) 386000 (2018) 460000 386000 388000 462000 532000 532000
2020-08-07 04:00 17.95 503000 532000 (2016) 386000 (2018) 460000 386000 388000 462000 532000 532000
2020-08-07 03:00 18.01 505000 532000 (2016) 386000 (2018) 460000 386000 388000 462000 532000 532000
2020-08-07 02:00 18.11 507000 532000 (2016) 386000 (2018) 460000 386000 388000 462000 532000 532000
2020-08-07 01:00 18.22 510000 532000 (2016) 386000 (2018) 460000 386000 388000 462000 532000 532000
2020-08-07 00:00 18.28 512000 532000 (2016) 386000 (2018) 460000 386000 388000 462000 532000 532000
2020-08-06 23:00 18.37 514000 541000 (2016) 398000 (2018) 481000 398000 410000 492000 540000 541000
2020-08-06 22:00 18.50 517000 541000 (2016) 398000 (2018) 481000 398000 410000 492000 540000 541000
2020-08-06 21:00 18.61 520000 541000 (2016) 398000 (2018) 481000 398000 410000 492000 540000 541000
2020-08-06 20:00 18.68 522000 541000 (2016) 398000 (2018) 481000 398000 410000 492000 540000 541000
2020-08-06 19:00 18.80 525000 541000 (2016) 398000 (2018) 481000 398000 410000 492000 540000 541000
2020-08-06 18:00 18.88 527000 541000 (2016) 398000 (2018) 481000 398000 410000 492000 540000 541000
2020-08-06 17:00 18.99 530000 541000 (2016) 398000 (2018) 481000 398000 410000 492000 540000 541000
2020-08-06 16:00 19.03 531000 541000 (2016) 398000 (2018) 481000 398000 410000 492000 540000 541000
2020-08-06 15:00 19.13 534000 541000 (2016) 398000 (2018) 481000 398000 410000 492000 540000 541000
2020-08-06 14:00 19.20 536000 541000 (2016) 398000 (2018) 481000 398000 410000 492000 540000 541000
2020-08-06 13:00 19.27 538000 541000 (2016) 398000 (2018) 481000 398000 410000 492000 540000 541000
2020-08-06 12:00 19.34 540000 541000 (2016) 398000 (2018) 481000 398000 410000 492000 540000 541000
2020-08-06 11:00 19.42 542000 541000 (2016) 398000 (2018) 481000 398000 410000 492000 540000 541000
2020-08-06 10:00 19.46 543000 541000 (2016) 398000 (2018) 481000 398000 410000 492000 540000 541000
2020-08-06 09:00 19.48 544000 541000 (2016) 398000 (2018) 481000 398000 410000 492000 540000 541000
2020-08-06 08:00 19.53 545000 541000 (2016) 398000 (2018) 481000 398000 410000 492000 540000 541000
2020-08-06 07:00 19.57 546000 541000 (2016) 398000 (2018) 481000 398000 410000 492000 540000 541000
2020-08-06 06:00 19.61 547000 541000 (2016) 398000 (2018) 481000 398000 410000 492000 540000 541000
2020-08-06 05:00 19.63 548000 541000 (2016) 398000 (2018) 481000 398000 410000 492000 540000 541000
2020-08-06 04:00 19.64 548000 541000 (2016) 398000 (2018) 481000 398000 410000 492000 540000 541000
2020-08-06 03:00 19.65 548000 541000 (2016) 398000 (2018) 481000 398000 410000 492000 540000 541000
2020-08-06 02:00 19.65 548000 541000 (2016) 398000 (2018) 481000 398000 410000 492000 540000 541000
2020-08-06 01:00 19.67 549000 541000 (2016) 398000 (2018) 481000 398000 410000 492000 540000 541000
2020-08-06 00:00 19.67 549000 541000 (2016) 398000 (2018) 481000 398000 410000 492000 540000 541000
2020-08-05 23:00 19.68 549000 549000 (2019) 405000 (2018) 495000 405000 430000 513000 542000 549000
2020-08-05 22:00 19.65 548000 549000 (2019) 405000 (2018) 495000 405000 430000 513000 542000 549000
2020-08-05 21:00 19.67 549000 549000 (2019) 405000 (2018) 495000 405000 430000 513000 542000 549000
2020-08-05 20:00 19.66 549000 549000 (2019) 405000 (2018) 495000 405000 430000 513000 542000 549000
2020-08-05 19:00 19.68 549000 549000 (2019) 405000 (2018) 495000 405000 430000 513000 542000 549000
2020-08-05 18:00 19.66 549000 549000 (2019) 405000 (2018) 495000 405000 430000 513000 542000 549000
2020-08-05 17:00 19.68 549000 549000 (2019) 405000 (2018) 495000 405000 430000 513000 542000 549000
2020-08-05 16:00 19.66 549000 549000 (2019) 405000 (2018) 495000 405000 430000 513000 542000 549000
2020-08-05 15:00 19.68 549000 549000 (2019) 405000 (2018) 495000 405000 430000 513000 542000 549000
2020-08-05 14:00 19.67 549000 549000 (2019) 405000 (2018) 495000 405000 430000 513000 542000 549000
2020-08-05 13:00 19.66 549000 549000 (2019) 405000 (2018) 495000 405000 430000 513000 542000 549000
2020-08-05 12:00 19.64 548000 549000 (2019) 405000 (2018) 495000 405000 430000 513000 542000 549000
2020-08-05 11:00 19.63 548000 549000 (2019) 405000 (2018) 495000 405000 430000 513000 542000 549000
2020-08-05 10:00 19.59 547000 549000 (2019) 405000 (2018) 495000 405000 430000 513000 542000 549000
2020-08-05 09:00 19.57 546000 549000 (2019) 405000 (2018) 495000 405000 430000 513000 542000 549000
2020-08-05 08:00 19.56 546000 549000 (2019) 405000 (2018) 495000 405000 430000 513000 542000 549000
2020-08-05 07:00 19.50 544000 549000 (2019) 405000 (2018) 495000 405000 430000 513000 542000 549000
2020-08-05 06:00 19.47 543000 549000 (2019) 405000 (2018) 495000 405000 430000 513000 542000 549000
2020-08-05 05:00 19.43 542000 549000 (2019) 405000 (2018) 495000 405000 430000 513000 542000 549000
2020-08-05 04:00 19.38 541000 549000 (2019) 405000 (2018) 495000 405000 430000 513000 542000 549000
2020-08-05 03:00 19.32 539000 549000 (2019) 405000 (2018) 495000 405000 430000 513000 542000 549000
2020-08-05 02:00 19.26 537000 549000 (2019) 405000 (2018) 495000 405000 430000 513000 542000 549000
2020-08-05 01:00 19.22 536000 549000 (2019) 405000 (2018) 495000 405000 430000 513000 542000 549000
2020-08-05 00:00 19.17 535000 549000 (2019) 405000 (2018) 495000 405000 430000 513000 542000 549000
2020-08-04 23:00 19.13 534000 571000 (2019) 402000 (2018) 501000 402000 424000 515000 563000 571000
2020-08-04 22:00 19.09 533000 571000 (2019) 402000 (2018) 501000 402000 424000 515000 563000 571000
2020-08-04 21:00 19.04 531000 571000 (2019) 402000 (2018) 501000 402000 424000 515000 563000 571000
2020-08-04 20:00 18.98 530000 571000 (2019) 402000 (2018) 501000 402000 424000 515000 563000 571000
2020-08-04 19:00 18.92 528000 571000 (2019) 402000 (2018) 501000 402000 424000 515000 563000 571000
2020-08-04 18:00 18.87 527000 571000 (2019) 402000 (2018) 501000 402000 424000 515000 563000 571000
2020-08-04 17:00 18.84 526000 571000 (2019) 402000 (2018) 501000 402000 424000 515000 563000 571000
2020-08-04 16:00 18.80 525000 571000 (2019) 402000 (2018) 501000 402000 424000 515000 563000 571000
2020-08-04 15:00 18.75 524000 571000 (2019) 402000 (2018) 501000 402000 424000 515000 563000 571000
2020-08-04 14:00 18.70 522000 571000 (2019) 402000 (2018) 501000 402000 424000 515000 563000 571000
2020-08-04 13:00 18.60 520000 571000 (2019) 402000 (2018) 501000 402000 424000 515000 563000 571000
2020-08-04 12:00 18.61 520000 571000 (2019) 402000 (2018) 501000 402000 424000 515000 563000 571000
2020-08-04 11:00 18.56 519000 571000 (2019) 402000 (2018) 501000 402000 424000 515000 563000 571000
2020-08-04 10:00 18.47 516000 571000 (2019) 402000 (2018) 501000 402000 424000 515000 563000 571000
2020-08-04 09:00 18.43 515000 571000 (2019) 402000 (2018) 501000 402000 424000 515000 563000 571000
2020-08-04 08:00 18.37 514000 571000 (2019) 402000 (2018) 501000 402000 424000 515000 563000 571000
2020-08-04 07:00 18.31 512000 571000 (2019) 402000 (2018) 501000 402000 424000 515000 563000 571000
2020-08-04 06:00 18.27 511000 571000 (2019) 402000 (2018) 501000 402000 424000 515000 563000 571000
2020-08-04 05:00 18.16 509000 571000 (2019) 402000 (2018) 501000 402000 424000 515000 563000 571000
2020-08-04 04:00 18.14 508000 571000 (2019) 402000 (2018) 501000 402000 424000 515000 563000 571000
2020-08-04 03:00 18.09 507000 571000 (2019) 402000 (2018) 501000 402000 424000 515000 563000 571000
2020-08-04 02:00 18.03 505000 571000 (2019) 402000 (2018) 501000 402000 424000 515000 563000 571000
2020-08-04 01:00 18.03 505000 571000 (2019) 402000 (2018) 501000 402000 424000 515000 563000 571000
2020-08-04 00:00 17.95 503000 571000 (2019) 402000 (2018) 501000 402000 424000 515000 563000 571000
2020-08-03 23:00 17.90 502000 584000 (2019) 393000 (2018) 505000 393000 418000 522000 576000 584000
2020-08-03 22:00 17.87 501000 584000 (2019) 393000 (2018) 505000 393000 418000 522000 576000 584000
2020-08-03 21:00 17.81 500000 584000 (2019) 393000 (2018) 505000 393000 418000 522000 576000 584000
2020-08-03 20:00 17.79 499000 584000 (2019) 393000 (2018) 505000 393000 418000 522000 576000 584000
2020-08-03 19:00 17.74 498000 584000 (2019) 393000 (2018) 505000 393000 418000 522000 576000 584000
2020-08-03 18:00 17.70 497000 584000 (2019) 393000 (2018) 505000 393000 418000 522000 576000 584000
2020-08-03 17:00 17.67 496000 584000 (2019) 393000 (2018) 505000 393000 418000 522000 576000 584000
2020-08-03 16:00 17.62 495000 584000 (2019) 393000 (2018) 505000 393000 418000 522000 576000 584000
2020-08-03 15:00 17.58 494000 584000 (2019) 393000 (2018) 505000 393000 418000 522000 576000 584000
2020-08-03 14:00 17.56 494000 584000 (2019) 393000 (2018) 505000 393000 418000 522000 576000 584000
2020-08-03 13:00 17.48 492000 584000 (2019) 393000 (2018) 505000 393000 418000 522000 576000 584000
2020-08-03 12:00 17.44 491000 584000 (2019) 393000 (2018) 505000 393000 418000 522000 576000 584000
2020-08-03 11:00 17.41 490000 584000 (2019) 393000 (2018) 505000 393000 418000 522000 576000 584000
2020-08-03 10:00 17.34 488000 584000 (2019) 393000 (2018) 505000 393000 418000 522000 576000 584000
2020-08-03 09:00 17.27 486000 584000 (2019) 393000 (2018) 505000 393000 418000 522000 576000 584000
2020-08-03 08:00 17.28 487000 584000 (2019) 393000 (2018) 505000 393000 418000 522000 576000 584000
2020-08-03 07:00 17.21 485000 584000 (2019) 393000 (2018) 505000 393000 418000 522000 576000 584000
2020-08-03 06:00 17.17 484000 584000 (2019) 393000 (2018) 505000 393000 418000 522000 576000 584000
2020-08-03 05:00 17.13 483000 584000 (2019) 393000 (2018) 505000 393000 418000 522000 576000 584000
2020-08-03 04:00 17.06 481000 584000 (2019) 393000 (2018) 505000 393000 418000 522000 576000 584000
2020-08-03 03:00 17.01 480000 584000 (2019) 393000 (2018) 505000 393000 418000 522000 576000 584000
2020-08-03 02:00 16.95 479000 584000 (2019) 393000 (2018) 505000 393000 418000 522000 576000 584000
2020-08-03 01:00 16.91 478000 584000 (2019) 393000 (2018) 505000 393000 418000 522000 576000 584000
2020-08-03 00:00 16.85 476000 584000 (2019) 393000 (2018) 505000 393000 418000 522000 576000 584000
2020-08-02 23:00 16.78 474000 598000 (2019) 382000 (2018) 506000 382000 411000 522000 585000 598000
2020-08-02 22:00 16.72 473000 598000 (2019) 382000 (2018) 506000 382000 411000 522000 585000 598000
2020-08-02 21:00 16.66 472000 598000 (2019) 382000 (2018) 506000 382000 411000 522000 585000 598000
2020-08-02 20:00 16.61 470000 598000 (2019) 382000 (2018) 506000 382000 411000 522000 585000 598000
2020-08-02 19:00 16.57 469000 598000 (2019) 382000 (2018) 506000 382000 411000 522000 585000 598000
2020-08-02 18:00 16.51 468000 598000 (2019) 382000 (2018) 506000 382000 411000 522000 585000 598000
2020-08-02 17:00 16.45 467000 598000 (2019) 382000 (2018) 506000 382000 411000 522000 585000 598000
2020-08-02 16:00 16.41 466000 598000 (2019) 382000 (2018) 506000 382000 411000 522000 585000 598000
2020-08-02 15:00 16.37 465000 598000 (2019) 382000 (2018) 506000 382000 411000 522000 585000 598000
2020-08-02 14:00 16.30 463000 598000 (2019) 382000 (2018) 506000 382000 411000 522000 585000 598000
2020-08-02 13:00 16.11 458000 598000 (2019) 382000 (2018) 506000 382000 411000 522000 585000 598000
2020-08-02 12:00 16.15 459000 598000 (2019) 382000 (2018) 506000 382000 411000 522000 585000 598000
2020-08-02 11:00 16.04 457000 598000 (2019) 382000 (2018) 506000 382000 411000 522000 585000 598000
2020-08-02 10:00 15.93 454000 598000 (2019) 382000 (2018) 506000 382000 411000 522000 585000 598000
2020-08-02 09:00 15.83 452000 598000 (2019) 382000 (2018) 506000 382000 411000 522000 585000 598000
2020-08-02 08:00 15.85 452000 598000 (2019) 382000 (2018) 506000 382000 411000 522000 585000 598000
2020-08-02 07:00 15.79 451000 598000 (2019) 382000 (2018) 506000 382000 411000 522000 585000 598000
2020-08-02 06:00 15.70 449000 598000 (2019) 382000 (2018) 506000 382000 411000 522000 585000 598000
2020-08-02 05:00 15.59 446000 598000 (2019) 382000 (2018) 506000 382000 411000 522000 585000 598000
2020-08-02 04:00 15.49 444000 598000 (2019) 382000 (2018) 506000 382000 411000 522000 585000 598000
2020-08-02 03:00 15.27 439000 598000 (2019) 382000 (2018) 506000 382000 411000 522000 585000 598000
2020-08-02 02:00 15.36 441000 598000 (2019) 382000 (2018) 506000 382000 411000 522000 585000 598000
2020-08-02 01:00 15.22 437000 598000 (2019) 382000 (2018) 506000 382000 411000 522000 585000 598000
2020-08-02 00:00 15.12 435000 598000 (2019) 382000 (2018) 506000 382000 411000 522000 585000 598000
2020-08-01 23:00 15.04 433000 622000 (2019) 378000 (2018) 506000 378000 408000 513000 598000 622000
2020-08-01 22:00 14.88 429000 622000 (2019) 378000 (2018) 506000 378000 408000 513000 598000 622000
2020-08-01 21:00 14.75 426000 622000 (2019) 378000 (2018) 506000 378000 408000 513000 598000 622000
2020-08-01 20:00 14.66 424000 622000 (2019) 378000 (2018) 506000 378000 408000 513000 598000 622000
2020-08-01 19:00 14.52 421000 622000 (2019) 378000 (2018) 506000 378000 408000 513000 598000 622000
2020-08-01 18:00 14.40 418000 622000 (2019) 378000 (2018) 506000 378000 408000 513000 598000 622000
2020-08-01 17:00 14.27 416000 622000 (2019) 378000 (2018) 506000 378000 408000 513000 598000 622000
2020-08-01 16:00 14.12 412000 622000 (2019) 378000 (2018) 506000 378000 408000 513000 598000 622000
2020-08-01 15:00 13.99 409000 622000 (2019) 378000 (2018) 506000 378000 408000 513000 598000 622000
2020-08-01 14:00 13.92 408000 622000 (2019) 378000 (2018) 506000 378000 408000 513000 598000 622000
2020-08-01 13:00 13.87 406000 622000 (2019) 378000 (2018) 506000 378000 408000 513000 598000 622000
2020-08-01 12:00 13.74 404000 622000 (2019) 378000 (2018) 506000 378000 408000 513000 598000 622000
2020-08-01 11:00 13.68 402000 622000 (2019) 378000 (2018) 506000 378000 408000 513000 598000 622000
2020-08-01 10:00 13.26 393000 622000 (2019) 378000 (2018) 506000 378000 408000 513000 598000 622000
2020-08-01 09:00 13.41 396000 622000 (2019) 378000 (2018) 506000 378000 408000 513000 598000 622000
2020-08-01 08:00 12.82 383000 622000 (2019) 378000 (2018) 506000 378000 408000 513000 598000 622000
2020-08-01 07:00 13.33 394000 622000 (2019) 378000 (2018) 506000 378000 408000 513000 598000 622000
2020-08-01 06:00 13.20 392000 622000 (2019) 378000 (2018) 506000 378000 408000 513000 598000 622000
2020-08-01 05:00 12.94 386000 622000 (2019) 378000 (2018) 506000 378000 408000 513000 598000 622000
2020-08-01 04:00 12.97 387000 622000 (2019) 378000 (2018) 506000 378000 408000 513000 598000 622000
2020-08-01 03:00 12.87 384000 622000 (2019) 378000 (2018) 506000 378000 408000 513000 598000 622000
2020-08-01 02:00 12.63 379000 622000 (2019) 378000 (2018) 506000 378000 408000 513000 598000 622000
2020-08-01 01:00 12.67 380000 622000 (2019) 378000 (2018) 506000 378000 408000 513000 598000 622000
2020-08-01 00:00 12.61 379000 622000 (2019) 378000 (2018) 506000 378000 408000 513000 598000 622000
2020-07-31 23:00 12.46 375000 653000 (2019) 381000 (2018) 509000 381000 407000 501000 619000 653000
2020-07-31 22:00 12.15 369000 653000 (2019) 381000 (2018) 509000 381000 407000 501000 619000 653000
2020-07-31 21:00 12.09 367000 653000 (2019) 381000 (2018) 509000 381000 407000 501000 619000 653000
2020-07-31 20:00 12.23 370000 653000 (2019) 381000 (2018) 509000 381000 407000 501000 619000 653000
2020-07-31 19:00 12.19 370000 653000 (2019) 381000 (2018) 509000 381000 407000 501000 619000 653000
2020-07-31 18:00 12.10 368000 653000 (2019) 381000 (2018) 509000 381000 407000 501000 619000 653000
2020-07-31 17:00 11.67 359000 653000 (2019) 381000 (2018) 509000 381000 407000 501000 619000 653000
2020-07-31 16:00 11.94 364000 653000 (2019) 381000 (2018) 509000 381000 407000 501000 619000 653000
2020-07-31 15:00 11.88 363000 653000 (2019) 381000 (2018) 509000 381000 407000 501000 619000 653000
2020-07-31 14:00 12.16 369000 653000 (2019) 381000 (2018) 509000 381000 407000 501000 619000 653000
2020-07-31 13:00 12.23 370000 653000 (2019) 381000 (2018) 509000 381000 407000 501000 619000 653000
2020-07-31 12:00 11.93 364000 653000 (2019) 381000 (2018) 509000 381000 407000 501000 619000 653000
2020-07-31 11:00 12.33 373000 653000 (2019) 381000 (2018) 509000 381000 407000 501000 619000 653000
2020-07-31 10:00 12.36 373000 653000 (2019) 381000 (2018) 509000 381000 407000 501000 619000 653000
2020-07-31 09:00 12.31 372000 653000 (2019) 381000 (2018) 509000 381000 407000 501000 619000 653000
2020-07-31 08:00 12.38 374000 653000 (2019) 381000 (2018) 509000 381000 407000 501000 619000 653000
2020-07-31 07:00 12.52 377000 653000 (2019) 381000 (2018) 509000 381000 407000 501000 619000 653000
2020-07-31 06:00 12.52 377000 653000 (2019) 381000 (2018) 509000 381000 407000 501000 619000 653000
2020-07-31 05:00 12.48 376000 653000 (2019) 381000 (2018) 509000 381000 407000 501000 619000 653000
2020-07-31 04:00 12.44 375000 653000 (2019) 381000 (2018) 509000 381000 407000 501000 619000 653000
2020-07-31 03:00 12.40 374000 653000 (2019) 381000 (2018) 509000 381000 407000 501000 619000 653000
2020-07-31 02:00 12.40 374000 653000 (2019) 381000 (2018) 509000 381000 407000 501000 619000 653000
2020-07-31 01:00 12.36 373000 653000 (2019) 381000 (2018) 509000 381000 407000 501000 619000 653000
2020-07-31 00:00 12.36 373000 653000 (2019) 381000 (2018) 509000 381000 407000 501000 619000 653000
2020-07-30 23:00 12.34 373000 705000 (2019) 387000 (2018) 517000 387000 406000 487000 657000 705000
2020-07-30 22:00 11.96 365000 705000 (2019) 387000 (2018) 517000 387000 406000 487000 657000 705000
2020-07-30 21:00 12.21 370000 705000 (2019) 387000 (2018) 517000 387000 406000 487000 657000 705000
2020-07-30 20:00 12.06 367000 705000 (2019) 387000 (2018) 517000 387000 406000 487000 657000 705000
2020-07-30 19:00 11.57 356000 705000 (2019) 387000 (2018) 517000 387000 406000 487000 657000 705000
2020-07-30 18:00 11.43 354000 705000 (2019) 387000 (2018) 517000 387000 406000 487000 657000 705000
2020-07-30 17:00 12.00 366000 705000 (2019) 387000 (2018) 517000 387000 406000 487000 657000 705000
2020-07-30 16:00 11.92 364000 705000 (2019) 387000 (2018) 517000 387000 406000 487000 657000 705000
2020-07-30 15:00 12.01 366000 705000 (2019) 387000 (2018) 517000 387000 406000 487000 657000 705000
2020-07-30 14:00 11.81 362000 705000 (2019) 387000 (2018) 517000 387000 406000 487000 657000 705000
2020-07-30 13:00 11.97 365000 705000 (2019) 387000 (2018) 517000 387000 406000 487000 657000 705000
2020-07-30 12:00 12.04 366000 705000 (2019) 387000 (2018) 517000 387000 406000 487000 657000 705000
2020-07-30 11:00 12.00 366000 705000 (2019) 387000 (2018) 517000 387000 406000 487000 657000 705000
2020-07-30 10:00 11.89 363000 705000 (2019) 387000 (2018) 517000 387000 406000 487000 657000 705000
2020-07-30 09:00 12.01 366000 705000 (2019) 387000 (2018) 517000 387000 406000 487000 657000 705000
2020-07-30 08:00 12.15 369000 705000 (2019) 387000 (2018) 517000 387000 406000 487000 657000 705000
2020-07-30 07:00 12.05 367000 705000 (2019) 387000 (2018) 517000 387000 406000 487000 657000 705000
2020-07-30 06:00 11.94 364000 705000 (2019) 387000 (2018) 517000 387000 406000 487000 657000 705000
2020-07-30 05:00 12.06 367000 705000 (2019) 387000 (2018) 517000 387000 406000 487000 657000 705000
2020-07-30 04:00 12.00 366000 705000 (2019) 387000 (2018) 517000 387000 406000 487000 657000 705000
2020-07-30 03:00 12.00 366000 705000 (2019) 387000 (2018) 517000 387000 406000 487000 657000 705000
2020-07-30 02:00 11.94 364000 705000 (2019) 387000 (2018) 517000 387000 406000 487000 657000 705000
2020-07-30 01:00 12.01 366000 705000 (2019) 387000 (2018) 517000 387000 406000 487000 657000 705000
2020-07-30 00:00 12.15 369000 705000 (2019) 387000 (2018) 517000 387000 406000 487000 657000 705000
2020-07-29 23:00 12.18 369000 753000 (2019) 397000 (2018) 525000 397000 411000 476000 690000 753000
2020-07-29 22:00 12.22 370000 753000 (2019) 397000 (2018) 525000 397000 411000 476000 690000 753000
2020-07-29 21:00 12.28 372000 753000 (2019) 397000 (2018) 525000 397000 411000 476000 690000 753000
2020-07-29 20:00 12.32 372000 753000 (2019) 397000 (2018) 525000 397000 411000 476000 690000 753000
2020-07-29 19:00 12.34 373000 753000 (2019) 397000 (2018) 525000 397000 411000 476000 690000 753000
2020-07-29 18:00 12.40 374000 753000 (2019) 397000 (2018) 525000 397000 411000 476000 690000 753000
2020-07-29 17:00 12.39 374000 753000 (2019) 397000 (2018) 525000 397000 411000 476000 690000 753000
2020-07-29 16:00 11.56 356000 753000 (2019) 397000 (2018) 525000 397000 411000 476000 690000 753000
2020-07-29 15:00 12.44 375000 753000 (2019) 397000 (2018) 525000 397000 411000 476000 690000 753000
2020-07-29 14:00 12.51 377000 753000 (2019) 397000 (2018) 525000 397000 411000 476000 690000 753000
2020-07-29 13:00 12.20 370000 753000 (2019) 397000 (2018) 525000 397000 411000 476000 690000 753000
2020-07-29 12:00 12.63 379000 753000 (2019) 397000 (2018) 525000 397000 411000 476000 690000 753000
2020-07-29 11:00 12.70 381000 753000 (2019) 397000 (2018) 525000 397000 411000 476000 690000 753000
2020-07-29 10:00 12.70 381000 753000 (2019) 397000 (2018) 525000 397000 411000 476000 690000 753000
2020-07-29 09:00 12.74 381000 753000 (2019) 397000 (2018) 525000 397000 411000 476000 690000 753000
2020-07-29 08:00 12.79 383000 753000 (2019) 397000 (2018) 525000 397000 411000 476000 690000 753000
2020-07-29 07:00 12.78 382000 753000 (2019) 397000 (2018) 525000 397000 411000 476000 690000 753000
2020-07-29 06:00 12.82 383000 753000 (2019) 397000 (2018) 525000 397000 411000 476000 690000 753000
2020-07-29 05:00 12.83 383000 753000 (2019) 397000 (2018) 525000 397000 411000 476000 690000 753000
2020-07-29 04:00 12.88 385000 753000 (2019) 397000 (2018) 525000 397000 411000 476000 690000 753000
2020-07-29 03:00 12.91 385000 753000 (2019) 397000 (2018) 525000 397000 411000 476000 690000 753000
2020-07-29 02:00 12.96 386000 753000 (2019) 397000 (2018) 525000 397000 411000 476000 690000 753000
2020-07-29 01:00 13.01 387000 753000 (2019) 397000 (2018) 525000 397000 411000 476000 690000 753000
2020-07-29 00:00 13.07 389000 753000 (2019) 397000 (2018) 525000 397000 411000 476000 690000 753000
2020-07-28 23:00 13.18 391000 771000 (2019) 407000 (2018) 524000 407000 417000 460000 697000 771000
2020-07-28 22:00 13.24 392000 771000 (2019) 407000 (2018) 524000 407000 417000 460000 697000 771000
2020-07-28 21:00 13.27 393000 771000 (2019) 407000 (2018) 524000 407000 417000 460000 697000 771000
2020-07-28 20:00 13.37 395000 771000 (2019) 407000 (2018) 524000 407000 417000 460000 697000 771000
2020-07-28 19:00 13.42 396000 771000 (2019) 407000 (2018) 524000 407000 417000 460000 697000 771000
2020-07-28 18:00 13.48 398000 771000 (2019) 407000 (2018) 524000 407000 417000 460000 697000 771000
2020-07-28 17:00 13.49 398000 771000 (2019) 407000 (2018) 524000 407000 417000 460000 697000 771000
2020-07-28 16:00 13.56 400000 771000 (2019) 407000 (2018) 524000 407000 417000 460000 697000 771000
2020-07-28 15:00 13.62 401000 771000 (2019) 407000 (2018) 524000 407000 417000 460000 697000 771000
2020-07-28 14:00 13.66 402000 771000 (2019) 407000 (2018) 524000 407000 417000 460000 697000 771000
2020-07-28 13:00 13.71 403000 771000 (2019) 407000 (2018) 524000 407000 417000 460000 697000 771000
2020-07-28 12:00 13.75 404000 771000 (2019) 407000 (2018) 524000 407000 417000 460000 697000 771000
2020-07-28 11:00 13.58 400000 771000 (2019) 407000 (2018) 524000 407000 417000 460000 697000 771000
2020-07-28 10:00 13.78 404000 771000 (2019) 407000 (2018) 524000 407000 417000 460000 697000 771000
2020-07-28 09:00 13.80 405000 771000 (2019) 407000 (2018) 524000 407000 417000 460000 697000 771000
2020-07-28 08:00 13.81 405000 771000 (2019) 407000 (2018) 524000 407000 417000 460000 697000 771000
2020-07-28 07:00 13.80 405000 771000 (2019) 407000 (2018) 524000 407000 417000 460000 697000 771000
2020-07-28 06:00 13.85 406000 771000 (2019) 407000 (2018) 524000 407000 417000 460000 697000 771000
2020-07-28 05:00 13.83 406000 771000 (2019) 407000 (2018) 524000 407000 417000 460000 697000 771000
2020-07-28 04:00 13.84 406000 771000 (2019) 407000 (2018) 524000 407000 417000 460000 697000 771000
2020-07-28 03:00 13.87 406000 771000 (2019) 407000 (2018) 524000 407000 417000 460000 697000 771000
2020-07-28 02:00 13.88 407000 771000 (2019) 407000 (2018) 524000 407000 417000 460000 697000 771000
2020-07-28 01:00 13.87 406000 771000 (2019) 407000 (2018) 524000 407000 417000 460000 697000 771000
2020-07-28 00:00 13.89 407000 771000 (2019) 407000 (2018) 524000 407000 417000 460000 697000 771000
2020-07-27 23:00 13.92 408000 775000 (2019) 412000 (2018) 515000 412000 416000 438000 693000 775000
2020-07-27 22:00 13.97 409000 775000 (2019) 412000 (2018) 515000 412000 416000 438000 693000 775000
2020-07-27 21:00 14.02 410000 775000 (2019) 412000 (2018) 515000 412000 416000 438000 693000 775000
2020-07-27 20:00 14.06 411000 775000 (2019) 412000 (2018) 515000 412000 416000 438000 693000 775000
2020-07-27 19:00 14.06 411000 775000 (2019) 412000 (2018) 515000 412000 416000 438000 693000 775000
2020-07-27 18:00 14.03 410000 775000 (2019) 412000 (2018) 515000 412000 416000 438000 693000 775000
2020-07-27 17:00 14.18 413000 775000 (2019) 412000 (2018) 515000 412000 416000 438000 693000 775000
2020-07-27 16:00 14.08 411000 775000 (2019) 412000 (2018) 515000 412000 416000 438000 693000 775000
2020-07-27 15:00 13.56 400000 775000 (2019) 412000 (2018) 515000 412000 416000 438000 693000 775000
2020-07-27 14:00 13.98 409000 775000 (2019) 412000 (2018) 515000 412000 416000 438000 693000 775000
2020-07-27 13:00 14.09 411000 775000 (2019) 412000 (2018) 515000 412000 416000 438000 693000 775000
2020-07-27 12:00 14.11 412000 775000 (2019) 412000 (2018) 515000 412000 416000 438000 693000 775000
2020-07-27 11:00 13.99 409000 775000 (2019) 412000 (2018) 515000 412000 416000 438000 693000 775000
2020-07-27 10:00 14.02 410000 775000 (2019) 412000 (2018) 515000 412000 416000 438000 693000 775000
2020-07-27 09:00 14.17 413000 775000 (2019) 412000 (2018) 515000 412000 416000 438000 693000 775000
2020-07-27 08:00 14.13 412000 775000 (2019) 412000 (2018) 515000 412000 416000 438000 693000 775000
2020-07-27 07:00 13.96 408000 775000 (2019) 412000 (2018) 515000 412000 416000 438000 693000 775000
2020-07-27 06:00 14.21 414000 775000 (2019) 412000 (2018) 515000 412000 416000 438000 693000 775000
2020-07-27 05:00 14.13 412000 775000 (2019) 412000 (2018) 515000 412000 416000 438000 693000 775000
2020-07-27 04:00 14.12 412000 775000 (2019) 412000 (2018) 515000 412000 416000 438000 693000 775000
2020-07-27 03:00 14.11 412000 775000 (2019) 412000 (2018) 515000 412000 416000 438000 693000 775000
2020-07-27 02:00 14.12 412000 775000 (2019) 412000 (2018) 515000 412000 416000 438000 693000 775000
2020-07-27 01:00 14.09 411000 775000 (2019) 412000 (2018) 515000 412000 416000 438000 693000 775000
2020-07-27 00:00 14.09 411000 775000 (2019) 412000 (2018) 515000 412000 416000 438000 693000 775000
2020-07-26 23:00 14.15 413000 773000 (2019) 411000 (2016) 507000 411000 413000 422000 686000 773000
2020-07-26 22:00 14.16 413000 773000 (2019) 411000 (2016) 507000 411000 413000 422000 686000 773000
2020-07-26 21:00 14.18 413000 773000 (2019) 411000 (2016) 507000 411000 413000 422000 686000 773000
2020-07-26 20:00 14.16 413000 773000 (2019) 411000 (2016) 507000 411000 413000 422000 686000 773000
2020-07-26 19:00 13.95 408000 773000 (2019) 411000 (2016) 507000 411000 413000 422000 686000 773000
2020-07-26 18:00 14.14 413000 773000 (2019) 411000 (2016) 507000 411000 413000 422000 686000 773000
2020-07-26 17:00 14.10 412000 773000 (2019) 411000 (2016) 507000 411000 413000 422000 686000 773000
2020-07-26 16:00 13.92 408000 773000 (2019) 411000 (2016) 507000 411000 413000 422000 686000 773000
2020-07-26 15:00 13.94 408000 773000 (2019) 411000 (2016) 507000 411000 413000 422000 686000 773000
2020-07-26 14:00 13.89 407000 773000 (2019) 411000 (2016) 507000 411000 413000 422000 686000 773000
2020-07-26 13:00 13.47 398000 773000 (2019) 411000 (2016) 507000 411000 413000 422000 686000 773000
2020-07-26 12:00 13.82 405000 773000 (2019) 411000 (2016) 507000 411000 413000 422000 686000 773000
2020-07-26 11:00 13.76 404000 773000 (2019) 411000 (2016) 507000 411000 413000 422000 686000 773000
2020-07-26 10:00 13.95 408000 773000 (2019) 411000 (2016) 507000 411000 413000 422000 686000 773000
2020-07-26 09:00 13.88 407000 773000 (2019) 411000 (2016) 507000 411000 413000 422000 686000 773000
2020-07-26 08:00 13.87 406000 773000 (2019) 411000 (2016) 507000 411000 413000 422000 686000 773000
2020-07-26 07:00 13.86 406000 773000 (2019) 411000 (2016) 507000 411000 413000 422000 686000 773000
2020-07-26 06:00 13.81 405000 773000 (2019) 411000 (2016) 507000 411000 413000 422000 686000 773000
2020-07-26 05:00 13.74 404000 773000 (2019) 411000 (2016) 507000 411000 413000 422000 686000 773000
2020-07-26 04:00 13.69 402000 773000 (2019) 411000 (2016) 507000 411000 413000 422000 686000 773000
2020-07-26 03:00 13.67 402000 773000 (2019) 411000 (2016) 507000 411000 413000 422000 686000 773000
2020-07-26 02:00 13.64 401000 773000 (2019) 411000 (2016) 507000 411000 413000 422000 686000 773000
2020-07-26 01:00 13.64 401000 773000 (2019) 411000 (2016) 507000 411000 413000 422000 686000 773000
2020-07-26 00:00 13.61 401000 773000 (2019) 411000 (2016) 507000 411000 413000 422000 686000 773000
2020-07-25 23:00 13.61 401000 772000 (2019) 377000 (2016) 497000 377000 385000 420000 687000 772000
2020-07-25 22:00 13.65 402000 772000 (2019) 377000 (2016) 497000 377000 385000 420000 687000 772000
2020-07-25 21:00 13.66 402000 772000 (2019) 377000 (2016) 497000 377000 385000 420000 687000 772000
2020-07-25 20:00 13.64 401000 772000 (2019) 377000 (2016) 497000 377000 385000 420000 687000 772000
2020-07-25 19:00 13.72 403000 772000 (2019) 377000 (2016) 497000 377000 385000 420000 687000 772000
2020-07-25 18:00 13.56 400000 772000 (2019) 377000 (2016) 497000 377000 385000 420000 687000 772000
2020-07-25 17:00 13.79 405000 772000 (2019) 377000 (2016) 497000 377000 385000 420000 687000 772000
2020-07-25 16:00 13.83 406000 772000 (2019) 377000 (2016) 497000 377000 385000 420000 687000 772000
2020-07-25 15:00 13.87 406000 772000 (2019) 377000 (2016) 497000 377000 385000 420000 687000 772000
2020-07-25 14:00 13.91 407000 772000 (2019) 377000 (2016) 497000 377000 385000 420000 687000 772000
2020-07-25 13:00 13.90 407000 772000 (2019) 377000 (2016) 497000 377000 385000 420000 687000 772000
2020-07-25 12:00 13.95 408000 772000 (2019) 377000 (2016) 497000 377000 385000 420000 687000 772000
2020-07-25 11:00 14.01 410000 772000 (2019) 377000 (2016) 497000 377000 385000 420000 687000 772000
2020-07-25 10:00 14.03 410000 772000 (2019) 377000 (2016) 497000 377000 385000 420000 687000 772000
2020-07-25 09:00 14.02 410000 772000 (2019) 377000 (2016) 497000 377000 385000 420000 687000 772000
2020-07-25 08:00 14.00 409000 772000 (2019) 377000 (2016) 497000 377000 385000 420000 687000 772000
2020-07-25 07:00 14.04 410000 772000 (2019) 377000 (2016) 497000 377000 385000 420000 687000 772000
2020-07-25 06:00 14.07 411000 772000 (2019) 377000 (2016) 497000 377000 385000 420000 687000 772000
2020-07-25 05:00 14.08 411000 772000 (2019) 377000 (2016) 497000 377000 385000 420000 687000 772000
2020-07-25 04:00 14.07 411000 772000 (2019) 377000 (2016) 497000 377000 385000 420000 687000 772000
2020-07-25 03:00 14.08 411000 772000 (2019) 377000 (2016) 497000 377000 385000 420000 687000 772000
2020-07-25 02:00 14.10 412000 772000 (2019) 377000 (2016) 497000 377000 385000 420000 687000 772000
2020-07-25 01:00 14.02 410000 772000 (2019) 377000 (2016) 497000 377000 385000 420000 687000 772000
2020-07-25 00:00 13.77 404000 772000 (2019) 377000 (2016) 497000 377000 385000 420000 687000 772000
2020-07-24 23:00 14.10 412000 765000 (2019) 364000 (2016) 494000 364000 376000 424000 683000 765000
2020-07-24 22:00 14.12 412000 765000 (2019) 364000 (2016) 494000 364000 376000 424000 683000 765000
2020-07-24 21:00 13.92 408000 765000 (2019) 364000 (2016) 494000 364000 376000 424000 683000 765000
2020-07-24 20:00 13.83 406000 765000 (2019) 364000 (2016) 494000 364000 376000 424000 683000 765000
2020-07-24 19:00 13.87 406000 765000 (2019) 364000 (2016) 494000 364000 376000 424000 683000 765000
2020-07-24 18:00 14.13 412000 765000 (2019) 364000 (2016) 494000 364000 376000 424000 683000 765000
2020-07-24 17:00 14.11 412000 765000 (2019) 364000 (2016) 494000 364000 376000 424000 683000 765000
2020-07-24 16:00 14.11 412000 765000 (2019) 364000 (2016) 494000 364000 376000 424000 683000 765000
2020-07-24 15:00 14.12 412000 765000 (2019) 364000 (2016) 494000 364000 376000 424000 683000 765000
2020-07-24 14:00 14.11 412000 765000 (2019) 364000 (2016) 494000 364000 376000 424000 683000 765000
2020-07-24 13:00 14.06 411000 765000 (2019) 364000 (2016) 494000 364000 376000 424000 683000 765000
2020-07-24 12:00 13.93 408000 765000 (2019) 364000 (2016) 494000 364000 376000 424000 683000 765000
2020-07-24 11:00 14.00 409000 765000 (2019) 364000 (2016) 494000 364000 376000 424000 683000 765000
2020-07-24 10:00 13.98 409000 765000 (2019) 364000 (2016) 494000 364000 376000 424000 683000 765000
2020-07-24 09:00 13.95 408000 765000 (2019) 364000 (2016) 494000 364000 376000 424000 683000 765000
2020-07-24 08:00 13.88 407000 765000 (2019) 364000 (2016) 494000 364000 376000 424000 683000 765000
2020-07-24 07:00 13.81 405000 765000 (2019) 364000 (2016) 494000 364000 376000 424000 683000 765000
2020-07-24 06:00 13.74 404000 765000 (2019) 364000 (2016) 494000 364000 376000 424000 683000 765000
2020-07-24 05:00 13.66 402000 765000 (2019) 364000 (2016) 494000 364000 376000 424000 683000 765000
2020-07-24 04:00 13.61 401000 765000 (2019) 364000 (2016) 494000 364000 376000 424000 683000 765000
2020-07-24 03:00 13.53 399000 765000 (2019) 364000 (2016) 494000 364000 376000 424000 683000 765000
2020-07-24 02:00 13.49 398000 765000 (2019) 364000 (2016) 494000 364000 376000 424000 683000 765000
2020-07-24 01:00 13.45 397000 765000 (2019) 364000 (2016) 494000 364000 376000 424000 683000 765000
2020-07-24 00:00 13.46 397000 765000 (2019) 364000 (2016) 494000 364000 376000 424000 683000 765000
2020-07-23 23:00 13.45 397000 766000 (2019) 357000 (2016) 496000 357000 375000 430000 682000 766000
2020-07-23 22:00 13.44 397000 766000 (2019) 357000 (2016) 496000 357000 375000 430000 682000 766000
2020-07-23 21:00 13.46 397000 766000 (2019) 357000 (2016) 496000 357000 375000 430000 682000 766000
2020-07-23 20:00 13.51 398000 766000 (2019) 357000 (2016) 496000 357000 375000 430000 682000 766000
2020-07-23 19:00 13.51 398000 766000 (2019) 357000 (2016) 496000 357000 375000 430000 682000 766000
2020-07-23 18:00 13.57 400000 766000 (2019) 357000 (2016) 496000 357000 375000 430000 682000 766000
2020-07-23 17:00 13.56 400000 766000 (2019) 357000 (2016) 496000 357000 375000 430000 682000 766000
2020-07-23 16:00 13.60 400000 766000 (2019) 357000 (2016) 496000 357000 375000 430000 682000 766000
2020-07-23 15:00 13.60 400000 766000 (2019) 357000 (2016) 496000 357000 375000 430000 682000 766000
2020-07-23 14:00 13.65 402000 766000 (2019) 357000 (2016) 496000 357000 375000 430000 682000 766000
2020-07-23 13:00 13.65 402000 766000 (2019) 357000 (2016) 496000 357000 375000 430000 682000 766000
2020-07-23 12:00 13.68 402000 766000 (2019) 357000 (2016) 496000 357000 375000 430000 682000 766000
2020-07-23 11:00 13.67 402000 766000 (2019) 357000 (2016) 496000 357000 375000 430000 682000 766000
2020-07-23 10:00 13.66 402000 766000 (2019) 357000 (2016) 496000 357000 375000 430000 682000 766000
2020-07-23 09:00 13.65 402000 766000 (2019) 357000 (2016) 496000 357000 375000 430000 682000 766000
2020-07-23 08:00 13.60 400000 766000 (2019) 357000 (2016) 496000 357000 375000 430000 682000 766000
2020-07-23 07:00 13.56 400000 766000 (2019) 357000 (2016) 496000 357000 375000 430000 682000 766000
2020-07-23 06:00 13.39 396000 766000 (2019) 357000 (2016) 496000 357000 375000 430000 682000 766000
2020-07-23 05:00 13.53 399000 766000 (2019) 357000 (2016) 496000 357000 375000 430000 682000 766000
2020-07-23 04:00 13.46 397000 766000 (2019) 357000 (2016) 496000 357000 375000 430000 682000 766000
2020-07-23 03:00 13.44 397000 766000 (2019) 357000 (2016) 496000 357000 375000 430000 682000 766000
2020-07-23 02:00 13.37 395000 766000 (2019) 357000 (2016) 496000 357000 375000 430000 682000 766000
2020-07-23 01:00 13.33 394000 766000 (2019) 357000 (2016) 496000 357000 375000 430000 682000 766000
2020-07-23 00:00 13.31 394000 766000 (2019) 357000 (2016) 496000 357000 375000 430000 682000 766000
2020-07-22 23:00 13.31 394000 760000 (2019) 362000 (2016) 503000 362000 377000 446000 687000 760000
2020-07-22 22:00 13.27 393000 760000 (2019) 362000 (2016) 503000 362000 377000 446000 687000 760000
2020-07-22 21:00 13.22 392000 760000 (2019) 362000 (2016) 503000 362000 377000 446000 687000 760000
2020-07-22 20:00 13.25 393000 760000 (2019) 362000 (2016) 503000 362000 377000 446000 687000 760000
2020-07-22 19:00 13.22 392000 760000 (2019) 362000 (2016) 503000 362000 377000 446000 687000 760000
2020-07-22 18:00 12.59 378000 760000 (2019) 362000 (2016) 503000 362000 377000 446000 687000 760000
2020-07-22 17:00 13.11 390000 760000 (2019) 362000 (2016) 503000 362000 377000 446000 687000 760000
2020-07-22 16:00 13.06 388000 760000 (2019) 362000 (2016) 503000 362000 377000 446000 687000 760000
2020-07-22 15:00 13.04 388000 760000 (2019) 362000 (2016) 503000 362000 377000 446000 687000 760000
2020-07-22 14:00 13.17 391000 760000 (2019) 362000 (2016) 503000 362000 377000 446000 687000 760000
2020-07-22 13:00 13.16 391000 760000 (2019) 362000 (2016) 503000 362000 377000 446000 687000 760000
2020-07-22 12:00 12.92 385000 760000 (2019) 362000 (2016) 503000 362000 377000 446000 687000 760000
2020-07-22 11:00 13.03 388000 760000 (2019) 362000 (2016) 503000 362000 377000 446000 687000 760000
2020-07-22 10:00 12.97 387000 760000 (2019) 362000 (2016) 503000 362000 377000 446000 687000 760000
2020-07-22 09:00 12.81 383000 760000 (2019) 362000 (2016) 503000 362000 377000 446000 687000 760000
2020-07-22 08:00 12.80 383000 760000 (2019) 362000 (2016) 503000 362000 377000 446000 687000 760000
2020-07-22 07:00 12.91 385000 760000 (2019) 362000 (2016) 503000 362000 377000 446000 687000 760000
2020-07-22 06:00 12.63 379000 760000 (2019) 362000 (2016) 503000 362000 377000 446000 687000 760000
2020-07-22 05:00 12.84 384000 760000 (2019) 362000 (2016) 503000 362000 377000 446000 687000 760000
2020-07-22 04:00 12.76 382000 760000 (2019) 362000 (2016) 503000 362000 377000 446000 687000 760000
2020-07-22 03:00 12.80 383000 760000 (2019) 362000 (2016) 503000 362000 377000 446000 687000 760000
2020-07-22 02:00 12.87 384000 760000 (2019) 362000 (2016) 503000 362000 377000 446000 687000 760000
2020-07-22 01:00 12.81 383000 760000 (2019) 362000 (2016) 503000 362000 377000 446000 687000 760000
2020-07-22 00:00 12.76 382000 760000 (2019) 362000 (2016) 503000 362000 377000 446000 687000 760000
2020-07-21 23:00 12.74 381000 759000 (2019) 386000 (2016) 517000 386000 395000 462000 695000 759000
2020-07-21 22:00 12.69 380000 759000 (2019) 386000 (2016) 517000 386000 395000 462000 695000 759000
2020-07-21 21:00 12.65 380000 759000 (2019) 386000 (2016) 517000 386000 395000 462000 695000 759000
2020-07-21 20:00 12.63 379000 759000 (2019) 386000 (2016) 517000 386000 395000 462000 695000 759000
2020-07-21 19:00 12.62 379000 759000 (2019) 386000 (2016) 517000 386000 395000 462000 695000 759000
2020-07-21 18:00 12.53 377000 759000 (2019) 386000 (2016) 517000 386000 395000 462000 695000 759000
2020-07-21 17:00 12.55 377000 759000 (2019) 386000 (2016) 517000 386000 395000 462000 695000 759000
2020-07-21 16:00 12.46 375000 759000 (2019) 386000 (2016) 517000 386000 395000 462000 695000 759000
2020-07-21 15:00 12.18 369000 759000 (2019) 386000 (2016) 517000 386000 395000 462000 695000 759000
2020-07-21 14:00 12.52 377000 759000 (2019) 386000 (2016) 517000 386000 395000 462000 695000 759000
2020-07-21 13:00 12.56 378000 759000 (2019) 386000 (2016) 517000 386000 395000 462000 695000 759000
2020-07-21 12:00 12.53 377000 759000 (2019) 386000 (2016) 517000 386000 395000 462000 695000 759000
2020-07-21 11:00 12.60 378000 759000 (2019) 386000 (2016) 517000 386000 395000 462000 695000 759000
2020-07-21 10:00 12.60 378000 759000 (2019) 386000 (2016) 517000 386000 395000 462000 695000 759000
2020-07-21 09:00 12.57 378000 759000 (2019) 386000 (2016) 517000 386000 395000 462000 695000 759000
2020-07-21 08:00 12.57 378000 759000 (2019) 386000 (2016) 517000 386000 395000 462000 695000 759000
2020-07-21 07:00 12.57 378000 759000 (2019) 386000 (2016) 517000 386000 395000 462000 695000 759000
2020-07-21 06:00 12.55 377000 759000 (2019) 386000 (2016) 517000 386000 395000 462000 695000 759000
2020-07-21 05:00 12.53 377000 759000 (2019) 386000 (2016) 517000 386000 395000 462000 695000 759000
2020-07-21 04:00 12.55 377000 759000 (2019) 386000 (2016) 517000 386000 395000 462000 695000 759000
2020-07-21 03:00 12.58 378000 759000 (2019) 386000 (2016) 517000 386000 395000 462000 695000 759000
2020-07-21 02:00 12.59 378000 759000 (2019) 386000 (2016) 517000 386000 395000 462000 695000 759000
2020-07-21 01:00 12.61 379000 759000 (2019) 386000 (2016) 517000 386000 395000 462000 695000 759000
2020-07-21 00:00 12.67 380000 759000 (2019) 386000 (2016) 517000 386000 395000 462000 695000 759000
2020-07-20 23:00 12.75 382000 772000 (2019) 418000 (2016) 533000 418000 420000 470000 708000 772000
2020-07-20 22:00 12.74 381000 772000 (2019) 418000 (2016) 533000 418000 420000 470000 708000 772000
2020-07-20 21:00 12.88 385000 772000 (2019) 418000 (2016) 533000 418000 420000 470000 708000 772000
2020-07-20 20:00 12.95 386000 772000 (2019) 418000 (2016) 533000 418000 420000 470000 708000 772000
2020-07-20 19:00 12.87 384000 772000 (2019) 418000 (2016) 533000 418000 420000 470000 708000 772000
2020-07-20 18:00 12.45 375000 772000 (2019) 418000 (2016) 533000 418000 420000 470000 708000 772000
2020-07-20 17:00 12.89 385000 772000 (2019) 418000 (2016) 533000 418000 420000 470000 708000 772000
2020-07-20 16:00 12.89 385000 772000 (2019) 418000 (2016) 533000 418000 420000 470000 708000 772000
2020-07-20 15:00 12.83 383000 772000 (2019) 418000 (2016) 533000 418000 420000 470000 708000 772000
2020-07-20 14:00 12.82 383000 772000 (2019) 418000 (2016) 533000 418000 420000 470000 708000 772000
2020-07-20 13:00 12.53 377000 772000 (2019) 418000 (2016) 533000 418000 420000 470000 708000 772000
2020-07-20 12:00 12.68 380000 772000 (2019) 418000 (2016) 533000 418000 420000 470000 708000 772000
2020-07-20 11:00 12.73 381000 772000 (2019) 418000 (2016) 533000 418000 420000 470000 708000 772000
2020-07-20 10:00 12.46 375000 772000 (2019) 418000 (2016) 533000 418000 420000 470000 708000 772000
2020-07-20 09:00 12.66 380000 772000 (2019) 418000 (2016) 533000 418000 420000 470000 708000 772000
2020-07-20 08:00 12.71 381000 772000 (2019) 418000 (2016) 533000 418000 420000 470000 708000 772000
2020-07-20 07:00 12.62 379000 772000 (2019) 418000 (2016) 533000 418000 420000 470000 708000 772000
2020-07-20 06:00 12.55 377000 772000 (2019) 418000 (2016) 533000 418000 420000 470000 708000 772000
2020-07-20 05:00 12.47 376000 772000 (2019) 418000 (2016) 533000 418000 420000 470000 708000 772000
2020-07-20 04:00 12.41 374000 772000 (2019) 418000 (2016) 533000 418000 420000 470000 708000 772000
2020-07-20 03:00 12.34 373000 772000 (2019) 418000 (2016) 533000 418000 420000 470000 708000 772000
2020-07-20 02:00 12.28 372000 772000 (2019) 418000 (2016) 533000 418000 420000 470000 708000 772000
2020-07-20 01:00 12.22 370000 772000 (2019) 418000 (2016) 533000 418000 420000 470000 708000 772000
2020-07-20 00:00 12.22 370000 772000 (2019) 418000 (2016) 533000 418000 420000 470000 708000 772000
2020-07-19 23:00 12.02 366000 792000 (2019) 436000 (2018) 545000 436000 439000 476000 720000 792000
2020-07-19 22:00 12.14 369000 792000 (2019) 436000 (2018) 545000 436000 439000 476000 720000 792000
2020-07-19 21:00 12.18 369000 792000 (2019) 436000 (2018) 545000 436000 439000 476000 720000 792000
2020-07-19 20:00 12.18 369000 792000 (2019) 436000 (2018) 545000 436000 439000 476000 720000 792000
2020-07-19 19:00 12.19 370000 792000 (2019) 436000 (2018) 545000 436000 439000 476000 720000 792000
2020-07-19 18:00 11.99 365000 792000 (2019) 436000 (2018) 545000 436000 439000 476000 720000 792000
2020-07-19 17:00 12.22 370000 792000 (2019) 436000 (2018) 545000 436000 439000 476000 720000 792000
2020-07-19 16:00 12.30 372000 792000 (2019) 436000 (2018) 545000 436000 439000 476000 720000 792000
2020-07-19 15:00 11.96 365000 792000 (2019) 436000 (2018) 545000 436000 439000 476000 720000 792000
2020-07-19 14:00 12.24 371000 792000 (2019) 436000 (2018) 545000 436000 439000 476000 720000 792000
2020-07-19 13:00 12.25 371000 792000 (2019) 436000 (2018) 545000 436000 439000 476000 720000 792000
2020-07-19 12:00 12.27 371000 792000 (2019) 436000 (2018) 545000 436000 439000 476000 720000 792000
2020-07-19 11:00 12.06 367000 792000 (2019) 436000 (2018) 545000 436000 439000 476000 720000 792000
2020-07-19 10:00 12.11 368000 792000 (2019) 436000 (2018) 545000 436000 439000 476000 720000 792000
2020-07-19 09:00 12.27 371000 792000 (2019) 436000 (2018) 545000 436000 439000 476000 720000 792000
2020-07-19 08:00 12.45 375000 792000 (2019) 436000 (2018) 545000 436000 439000 476000 720000 792000
2020-07-19 07:00 12.41 374000 792000 (2019) 436000 (2018) 545000 436000 439000 476000 720000 792000
2020-07-19 06:00 12.52 377000 792000 (2019) 436000 (2018) 545000 436000 439000 476000 720000 792000
2020-07-19 05:00 12.51 377000 792000 (2019) 436000 (2018) 545000 436000 439000 476000 720000 792000
2020-07-19 04:00 12.53 377000 792000 (2019) 436000 (2018) 545000 436000 439000 476000 720000 792000
2020-07-19 03:00 12.56 378000 792000 (2019) 436000 (2018) 545000 436000 439000 476000 720000 792000
2020-07-19 02:00 12.54 377000 792000 (2019) 436000 (2018) 545000 436000 439000 476000 720000 792000
2020-07-19 01:00 12.55 377000 792000 (2019) 436000 (2018) 545000 436000 439000 476000 720000 792000
2020-07-19 00:00 12.55 377000 792000 (2019) 436000 (2018) 545000 436000 439000 476000 720000 792000
2020-07-18 23:00 12.57 378000 818000 (2019) 448000 (2018) 553000 448000 450000 472000 736000 818000
2020-07-18 22:00 12.60 378000 818000 (2019) 448000 (2018) 553000 448000 450000 472000 736000 818000
2020-07-18 21:00 12.61 379000 818000 (2019) 448000 (2018) 553000 448000 450000 472000 736000 818000
2020-07-18 20:00 12.64 379000 818000 (2019) 448000 (2018) 553000 448000 450000 472000 736000 818000
2020-07-18 19:00 12.69 380000 818000 (2019) 448000 (2018) 553000 448000 450000 472000 736000 818000
2020-07-18 18:00 12.61 379000 818000 (2019) 448000 (2018) 553000 448000 450000 472000 736000 818000
2020-07-18 17:00 12.78 382000 818000 (2019) 448000 (2018) 553000 448000 450000 472000 736000 818000
2020-07-18 16:00 12.76 382000 818000 (2019) 448000 (2018) 553000 448000 450000 472000 736000 818000
2020-07-18 15:00 12.81 383000 818000 (2019) 448000 (2018) 553000 448000 450000 472000 736000 818000
2020-07-18 14:00 12.68 380000 818000 (2019) 448000 (2018) 553000 448000 450000 472000 736000 818000
2020-07-18 13:00 12.86 384000 818000 (2019) 448000 (2018) 553000 448000 450000 472000 736000 818000
2020-07-18 12:00 12.92 385000 818000 (2019) 448000 (2018) 553000 448000 450000 472000 736000 818000
2020-07-18 11:00 12.96 386000 818000 (2019) 448000 (2018) 553000 448000 450000 472000 736000 818000
2020-07-18 10:00 12.98 387000 818000 (2019) 448000 (2018) 553000 448000 450000 472000 736000 818000
2020-07-18 09:00 13.02 388000 818000 (2019) 448000 (2018) 553000 448000 450000 472000 736000 818000
2020-07-18 08:00 13.02 388000 818000 (2019) 448000 (2018) 553000 448000 450000 472000 736000 818000
2020-07-18 07:00 13.06 388000 818000 (2019) 448000 (2018) 553000 448000 450000 472000 736000 818000
2020-07-18 06:00 12.77 382000 818000 (2019) 448000 (2018) 553000 448000 450000 472000 736000 818000
2020-07-18 05:00 13.03 388000 818000 (2019) 448000 (2018) 553000 448000 450000 472000 736000 818000
2020-07-18 04:00 12.99 387000 818000 (2019) 448000 (2018) 553000 448000 450000 472000 736000 818000
2020-07-18 03:00 13.05 388000 818000 (2019) 448000 (2018) 553000 448000 450000 472000 736000 818000
2020-07-18 02:00 12.95 386000 818000 (2019) 448000 (2018) 553000 448000 450000 472000 736000 818000
2020-07-18 01:00 13.09 389000 818000 (2019) 448000 (2018) 553000 448000 450000 472000 736000 818000
2020-07-18 00:00 13.12 390000 818000 (2019) 448000 (2018) 553000 448000 450000 472000 736000 818000
2020-07-17 23:00 13.07 389000 825000 (2019) 446000 (2018) 551000 446000 447000 467000 740000 825000
2020-07-17 22:00 12.99 387000 825000 (2019) 446000 (2018) 551000 446000 447000 467000 740000 825000
2020-07-17 21:00 13.18 391000 825000 (2019) 446000 (2018) 551000 446000 447000 467000 740000 825000
2020-07-17 20:00 12.67 380000 825000 (2019) 446000 (2018) 551000 446000 447000 467000 740000 825000
2020-07-17 19:00 13.20 392000 825000 (2019) 446000 (2018) 551000 446000 447000 467000 740000 825000
2020-07-17 18:00 13.03 388000 825000 (2019) 446000 (2018) 551000 446000 447000 467000 740000 825000
2020-07-17 17:00 13.26 393000 825000 (2019) 446000 (2018) 551000 446000 447000 467000 740000 825000
2020-07-17 16:00 13.32 394000 825000 (2019) 446000 (2018) 551000 446000 447000 467000 740000 825000
2020-07-17 15:00 13.36 395000 825000 (2019) 446000 (2018) 551000 446000 447000 467000 740000 825000
2020-07-17 14:00 13.38 396000 825000 (2019) 446000 (2018) 551000 446000 447000 467000 740000 825000
2020-07-17 13:00 12.39 374000 825000 (2019) 446000 (2018) 551000 446000 447000 467000 740000 825000
2020-07-17 12:00 13.41 396000 825000 (2019) 446000 (2018) 551000 446000 447000 467000 740000 825000
2020-07-17 11:00 13.39 396000 825000 (2019) 446000 (2018) 551000 446000 447000 467000 740000 825000
2020-07-17 10:00 13.35 395000 825000 (2019) 446000 (2018) 551000 446000 447000 467000 740000 825000
2020-07-17 09:00 13.28 393000 825000 (2019) 446000 (2018) 551000 446000 447000 467000 740000 825000
2020-07-17 08:00 13.35 395000 825000 (2019) 446000 (2018) 551000 446000 447000 467000 740000 825000
2020-07-17 07:00 13.37 395000 825000 (2019) 446000 (2018) 551000 446000 447000 467000 740000 825000
2020-07-17 06:00 13.44 397000 825000 (2019) 446000 (2018) 551000 446000 447000 467000 740000 825000
2020-07-17 05:00 13.46 397000 825000 (2019) 446000 (2018) 551000 446000 447000 467000 740000 825000
2020-07-17 04:00 13.42 396000 825000 (2019) 446000 (2018) 551000 446000 447000 467000 740000 825000
2020-07-17 03:00 13.42 396000 825000 (2019) 446000 (2018) 551000 446000 447000 467000 740000 825000
2020-07-17 02:00 13.42 396000 825000 (2019) 446000 (2018) 551000 446000 447000 467000 740000 825000
2020-07-17 01:00 13.43 397000 825000 (2019) 446000 (2018) 551000 446000 447000 467000 740000 825000
2020-07-17 00:00 13.41 396000 825000 (2019) 446000 (2018) 551000 446000 447000 467000 740000 825000
2020-07-16 23:00 13.44 397000 832000 (2019) 457000 (2018) 560000 457000 460000 475000 745000 832000
2020-07-16 22:00 13.44 397000 832000 (2019) 457000 (2018) 560000 457000 460000 475000 745000 832000
2020-07-16 21:00 13.46 397000 832000 (2019) 457000 (2018) 560000 457000 460000 475000 745000 832000
2020-07-16 20:00 13.34 395000 832000 (2019) 457000 (2018) 560000 457000 460000 475000 745000 832000
2020-07-16 19:00 13.44 397000 832000 (2019) 457000 (2018) 560000 457000 460000 475000 745000 832000
2020-07-16 18:00 13.43 397000 832000 (2019) 457000 (2018) 560000 457000 460000 475000 745000 832000
2020-07-16 17:00 13.44 397000 832000 (2019) 457000 (2018) 560000 457000 460000 475000 745000 832000
2020-07-16 16:00 13.66 402000 832000 (2019) 457000 (2018) 560000 457000 460000 475000 745000 832000
2020-07-16 15:00 13.68 402000 832000 (2019) 457000 (2018) 560000 457000 460000 475000 745000 832000
2020-07-16 14:00 13.78 404000 832000 (2019) 457000 (2018) 560000 457000 460000 475000 745000 832000
2020-07-16 13:00 13.78 404000 832000 (2019) 457000 (2018) 560000 457000 460000 475000 745000 832000
2020-07-16 12:00 13.68 402000 832000 (2019) 457000 (2018) 560000 457000 460000 475000 745000 832000
2020-07-16 11:00 13.88 407000 832000 (2019) 457000 (2018) 560000 457000 460000 475000 745000 832000
2020-07-16 10:00 13.90 407000 832000 (2019) 457000 (2018) 560000 457000 460000 475000 745000 832000
2020-07-16 09:00 13.93 408000 832000 (2019) 457000 (2018) 560000 457000 460000 475000 745000 832000
2020-07-16 08:00 13.94 408000 832000 (2019) 457000 (2018) 560000 457000 460000 475000 745000 832000
2020-07-16 07:00 13.97 409000 832000 (2019) 457000 (2018) 560000 457000 460000 475000 745000 832000
2020-07-16 06:00 13.95 408000 832000 (2019) 457000 (2018) 560000 457000 460000 475000 745000 832000
2020-07-16 05:00 13.99 409000 832000 (2019) 457000 (2018) 560000 457000 460000 475000 745000 832000
2020-07-16 04:00 13.98 409000 832000 (2019) 457000 (2018) 560000 457000 460000 475000 745000 832000
2020-07-16 03:00 14.03 410000 832000 (2019) 457000 (2018) 560000 457000 460000 475000 745000 832000
2020-07-16 02:00 13.86 406000 832000 (2019) 457000 (2018) 560000 457000 460000 475000 745000 832000
2020-07-16 01:00 13.79 405000 832000 (2019) 457000 (2018) 560000 457000 460000 475000 745000 832000
2020-07-16 00:00 13.96 408000 832000 (2019) 457000 (2018) 560000 457000 460000 475000 745000 832000
2020-07-15 23:00 13.95 408000 854000 (2019) 476000 (2018) 584000 476000 479000 502000 769000 854000
2020-07-15 22:00 13.74 404000 854000 (2019) 476000 (2018) 584000 476000 479000 502000 769000 854000
2020-07-15 21:00 13.92 408000 854000 (2019) 476000 (2018) 584000 476000 479000 502000 769000 854000
2020-07-15 20:00 14.08 411000 854000 (2019) 476000 (2018) 584000 476000 479000 502000 769000 854000
2020-07-15 19:00 13.92 408000 854000 (2019) 476000 (2018) 584000 476000 479000 502000 769000 854000
2020-07-15 18:00 13.96 408000 854000 (2019) 476000 (2018) 584000 476000 479000 502000 769000 854000
2020-07-15 17:00 13.86 406000 854000 (2019) 476000 (2018) 584000 476000 479000 502000 769000 854000
2020-07-15 16:00 14.18 413000 854000 (2019) 476000 (2018) 584000 476000 479000 502000 769000 854000
2020-07-15 15:00 14.21 414000 854000 (2019) 476000 (2018) 584000 476000 479000 502000 769000 854000
2020-07-15 14:00 14.24 415000 854000 (2019) 476000 (2018) 584000 476000 479000 502000 769000 854000
2020-07-15 13:00 14.23 415000 854000 (2019) 476000 (2018) 584000 476000 479000 502000 769000 854000
2020-07-15 12:00 14.25 415000 854000 (2019) 476000 (2018) 584000 476000 479000 502000 769000 854000
2020-07-15 11:00 14.38 418000 854000 (2019) 476000 (2018) 584000 476000 479000 502000 769000 854000
2020-07-15 10:00 14.41 419000 854000 (2019) 476000 (2018) 584000 476000 479000 502000 769000 854000
2020-07-15 09:00 14.45 420000 854000 (2019) 476000 (2018) 584000 476000 479000 502000 769000 854000
2020-07-15 08:00 14.42 419000 854000 (2019) 476000 (2018) 584000 476000 479000 502000 769000 854000
2020-07-15 07:00 14.46 420000 854000 (2019) 476000 (2018) 584000 476000 479000 502000 769000 854000
2020-07-15 06:00 14.50 421000 854000 (2019) 476000 (2018) 584000 476000 479000 502000 769000 854000
2020-07-15 05:00 14.49 421000 854000 (2019) 476000 (2018) 584000 476000 479000 502000 769000 854000
2020-07-15 04:00 14.54 422000 854000 (2019) 476000 (2018) 584000 476000 479000 502000 769000 854000
2020-07-15 03:00 14.54 422000 854000 (2019) 476000 (2018) 584000 476000 479000 502000 769000 854000
2020-07-15 02:00 14.58 423000 854000 (2019) 476000 (2018) 584000 476000 479000 502000 769000 854000
2020-07-15 01:00 14.48 420000 854000 (2019) 476000 (2018) 584000 476000 479000 502000 769000 854000
2020-07-15 00:00 14.37 418000 854000 (2019) 476000 (2018) 584000 476000 479000 502000 769000 854000
2020-07-14 23:00 14.46 420000 880000 (2019) 492000 (2018) 610000 492000 497000 534000 799000 880000
2020-07-14 22:00 14.50 421000 880000 (2019) 492000 (2018) 610000 492000 497000 534000 799000 880000
2020-07-14 21:00 14.60 423000 880000 (2019) 492000 (2018) 610000 492000 497000 534000 799000 880000
2020-07-14 20:00 14.51 421000 880000 (2019) 492000 (2018) 610000 492000 497000 534000 799000 880000
2020-07-14 19:00 14.49 421000 880000 (2019) 492000 (2018) 610000 492000 497000 534000 799000 880000
2020-07-14 18:00 14.52 421000 880000 (2019) 492000 (2018) 610000 492000 497000 534000 799000 880000
2020-07-14 17:00 14.25 415000 880000 (2019) 492000 (2018) 610000 492000 497000 534000 799000 880000
2020-07-14 16:00 14.39 418000 880000 (2019) 492000 (2018) 610000 492000 497000 534000 799000 880000
2020-07-14 15:00 14.69 425000 880000 (2019) 492000 (2018) 610000 492000 497000 534000 799000 880000
2020-07-14 13:00 14.56 422000 880000 (2019) 492000 (2018) 610000 492000 497000 534000 799000 880000
2020-07-14 12:00 14.39 418000 880000 (2019) 492000 (2018) 610000 492000 497000 534000 799000 880000
2020-07-14 11:00 14.65 424000 880000 (2019) 492000 (2018) 610000 492000 497000 534000 799000 880000
2020-07-14 10:00 14.83 428000 880000 (2019) 492000 (2018) 610000 492000 497000 534000 799000 880000
2020-07-14 09:00 14.79 427000 880000 (2019) 492000 (2018) 610000 492000 497000 534000 799000 880000
2020-07-14 08:00 14.80 428000 880000 (2019) 492000 (2018) 610000 492000 497000 534000 799000 880000
2020-07-14 07:00 14.89 430000 880000 (2019) 492000 (2018) 610000 492000 497000 534000 799000 880000
2020-07-14 06:00 14.88 429000 880000 (2019) 492000 (2018) 610000 492000 497000 534000 799000 880000
2020-07-14 05:00 14.92 430000 880000 (2019) 492000 (2018) 610000 492000 497000 534000 799000 880000
2020-07-14 04:00 14.92 430000 880000 (2019) 492000 (2018) 610000 492000 497000 534000 799000 880000
2020-07-14 03:00 14.88 429000 880000 (2019) 492000 (2018) 610000 492000 497000 534000 799000 880000
2020-07-14 02:00 14.50 421000 880000 (2019) 492000 (2018) 610000 492000 497000 534000 799000 880000
2020-07-14 01:00 14.77 427000 880000 (2019) 492000 (2018) 610000 492000 497000 534000 799000 880000
2020-07-14 00:00 14.78 427000 880000 (2019) 492000 (2018) 610000 492000 497000 534000 799000 880000
2020-07-13 23:00 14.83 428000 908000 (2019) 517000 (2018) 642000 517000 525000 572000 830000 908000
2020-07-13 22:00 14.83 428000 908000 (2019) 517000 (2018) 642000 517000 525000 572000 830000 908000
2020-07-13 21:00 14.78 427000 908000 (2019) 517000 (2018) 642000 517000 525000 572000 830000 908000
2020-07-13 20:00 14.78 427000 908000 (2019) 517000 (2018) 642000 517000 525000 572000 830000 908000
2020-07-13 19:00 14.71 426000 908000 (2019) 517000 (2018) 642000 517000 525000 572000 830000 908000
2020-07-13 18:00 14.65 424000 908000 (2019) 517000 (2018) 642000 517000 525000 572000 830000 908000
2020-07-13 17:00 14.50 421000 908000 (2019) 517000 (2018) 642000 517000 525000 572000 830000 908000
2020-07-13 16:00 14.31 416000 908000 (2019) 517000 (2018) 642000 517000 525000 572000 830000 908000
2020-07-13 15:00 14.48 420000 908000 (2019) 517000 (2018) 642000 517000 525000 572000 830000 908000
2020-07-13 14:00 14.07 411000 908000 (2019) 517000 (2018) 642000 517000 525000 572000 830000 908000
2020-07-13 13:00 14.36 418000 908000 (2019) 517000 (2018) 642000 517000 525000 572000 830000 908000
2020-07-13 12:00 14.31 416000 908000 (2019) 517000 (2018) 642000 517000 525000 572000 830000 908000
2020-07-13 11:00 14.25 415000 908000 (2019) 517000 (2018) 642000 517000 525000 572000 830000 908000
2020-07-13 10:00 14.19 414000 908000 (2019) 517000 (2018) 642000 517000 525000 572000 830000 908000
2020-07-13 09:00 14.16 413000 908000 (2019) 517000 (2018) 642000 517000 525000 572000 830000 908000
2020-07-13 08:00 14.09 411000 908000 (2019) 517000 (2018) 642000 517000 525000 572000 830000 908000
2020-07-13 07:00 14.04 410000 908000 (2019) 517000 (2018) 642000 517000 525000 572000 830000 908000
2020-07-13 06:00 13.98 409000 908000 (2019) 517000 (2018) 642000 517000 525000 572000 830000 908000
2020-07-13 05:00 13.93 408000 908000 (2019) 517000 (2018) 642000 517000 525000 572000 830000 908000
2020-07-13 04:00 13.89 407000 908000 (2019) 517000 (2018) 642000 517000 525000 572000 830000 908000
2020-07-13 03:00 13.84 406000 908000 (2019) 517000 (2018) 642000 517000 525000 572000 830000 908000
2020-07-13 02:00 13.82 405000 908000 (2019) 517000 (2018) 642000 517000 525000 572000 830000 908000
2020-07-13 01:00 13.81 405000 908000 (2019) 517000 (2018) 642000 517000 525000 572000 830000 908000
2020-07-13 00:00 13.81 405000 908000 (2019) 517000 (2018) 642000 517000 525000 572000 830000 908000
2020-07-12 23:00 13.79 405000 931000 (2019) 550000 (2018) 678000 550000 560000 616000 859000 931000
2020-07-12 22:00 13.83 406000 931000 (2019) 550000 (2018) 678000 550000 560000 616000 859000 931000
2020-07-12 21:00 13.83 406000 931000 (2019) 550000 (2018) 678000 550000 560000 616000 859000 931000
2020-07-12 20:00 13.85 406000 931000 (2019) 550000 (2018) 678000 550000 560000 616000 859000 931000
2020-07-12 19:00 13.84 406000 931000 (2019) 550000 (2018) 678000 550000 560000 616000 859000 931000
2020-07-12 18:00 13.90 407000 931000 (2019) 550000 (2018) 678000 550000 560000 616000 859000 931000
2020-07-12 17:00 13.91 407000 931000 (2019) 550000 (2018) 678000 550000 560000 616000 859000 931000
2020-07-12 16:00 13.96 408000 931000 (2019) 550000 (2018) 678000 550000 560000 616000 859000 931000
2020-07-12 15:00 13.99 409000 931000 (2019) 550000 (2018) 678000 550000 560000 616000 859000 931000
2020-07-12 14:00 14.03 410000 931000 (2019) 550000 (2018) 678000 550000 560000 616000 859000 931000
2020-07-12 13:00 13.63 401000 931000 (2019) 550000 (2018) 678000 550000 560000 616000 859000 931000
2020-07-12 12:00 14.02 410000 931000 (2019) 550000 (2018) 678000 550000 560000 616000 859000 931000
2020-07-12 11:00 14.12 412000 931000 (2019) 550000 (2018) 678000 550000 560000 616000 859000 931000
2020-07-12 09:00 13.89 407000 931000 (2019) 550000 (2018) 678000 550000 560000 616000 859000 931000
2020-07-12 08:00 13.89 407000 931000 (2019) 550000 (2018) 678000 550000 560000 616000 859000 931000
2020-07-12 07:00 13.80 405000 931000 (2019) 550000 (2018) 678000 550000 560000 616000 859000 931000
2020-07-12 06:00 13.96 408000 931000 (2019) 550000 (2018) 678000 550000 560000 616000 859000 931000
2020-07-12 05:00 13.74 404000 931000 (2019) 550000 (2018) 678000 550000 560000 616000 859000 931000
2020-07-12 04:00 13.58 400000 931000 (2019) 550000 (2018) 678000 550000 560000 616000 859000 931000
2020-07-12 03:00 13.85 406000 931000 (2019) 550000 (2018) 678000 550000 560000 616000 859000 931000
2020-07-12 02:00 13.84 406000 931000 (2019) 550000 (2018) 678000 550000 560000 616000 859000 931000
2020-07-12 01:00 13.84 406000 931000 (2019) 550000 (2018) 678000 550000 560000 616000 859000 931000
2020-07-12 00:00 13.83 406000 931000 (2019) 550000 (2018) 678000 550000 560000 616000 859000 931000
2020-07-11 23:00 13.85 406000 955000 (2019) 571000 (2018) 706000 571000 585000 648000 884000 955000
2020-07-11 22:00 13.89 407000 955000 (2019) 571000 (2018) 706000 571000 585000 648000 884000 955000
2020-07-11 21:00 13.94 408000 955000 (2019) 571000 (2018) 706000 571000 585000 648000 884000 955000
2020-07-11 20:00 13.92 408000 955000 (2019) 571000 (2018) 706000 571000 585000 648000 884000 955000
2020-07-11 19:00 13.82 405000 955000 (2019) 571000 (2018) 706000 571000 585000 648000 884000 955000
2020-07-11 18:00 13.93 408000 955000 (2019) 571000 (2018) 706000 571000 585000 648000 884000 955000
2020-07-11 17:00 14.00 409000 955000 (2019) 571000 (2018) 706000 571000 585000 648000 884000 955000
2020-07-11 16:00 14.11 412000 955000 (2019) 571000 (2018) 706000 571000 585000 648000 884000 955000
2020-07-11 15:00 14.18 413000 955000 (2019) 571000 (2018) 706000 571000 585000 648000 884000 955000
2020-07-11 14:00 14.19 414000 955000 (2019) 571000 (2018) 706000 571000 585000 648000 884000 955000
2020-07-11 13:00 14.29 416000 955000 (2019) 571000 (2018) 706000 571000 585000 648000 884000 955000
2020-07-11 12:00 14.28 416000 955000 (2019) 571000 (2018) 706000 571000 585000 648000 884000 955000
2020-07-11 11:00 14.36 418000 955000 (2019) 571000 (2018) 706000 571000 585000 648000 884000 955000
2020-07-11 10:00 14.34 417000 955000 (2019) 571000 (2018) 706000 571000 585000 648000 884000 955000
2020-07-11 09:00 14.46 420000 955000 (2019) 571000 (2018) 706000 571000 585000 648000 884000 955000
2020-07-11 08:00 14.49 421000 955000 (2019) 571000 (2018) 706000 571000 585000 648000 884000 955000
2020-07-11 07:00 14.57 422000 955000 (2019) 571000 (2018) 706000 571000 585000 648000 884000 955000
2020-07-11 06:00 14.63 424000 955000 (2019) 571000 (2018) 706000 571000 585000 648000 884000 955000
2020-07-11 05:00 14.67 425000 955000 (2019) 571000 (2018) 706000 571000 585000 648000 884000 955000
2020-07-11 04:00 14.73 426000 955000 (2019) 571000 (2018) 706000 571000 585000 648000 884000 955000
2020-07-11 03:00 14.79 427000 955000 (2019) 571000 (2018) 706000 571000 585000 648000 884000 955000
2020-07-11 02:00 14.87 429000 955000 (2019) 571000 (2018) 706000 571000 585000 648000 884000 955000
2020-07-11 01:00 14.93 431000 955000 (2019) 571000 (2018) 706000 571000 585000 648000 884000 955000
2020-07-11 00:00 15.08 434000 955000 (2019) 571000 (2018) 706000 571000 585000 648000 884000 955000
2020-07-10 23:00 15.18 436000 983000 (2019) 588000 (2018) 723000 588000 603000 660000 905000 983000
2020-07-10 22:00 15.29 439000 983000 (2019) 588000 (2018) 723000 588000 603000 660000 905000 983000
2020-07-10 21:00 15.39 441000 983000 (2019) 588000 (2018) 723000 588000 603000 660000 905000 983000
2020-07-10 20:00 15.52 444000 983000 (2019) 588000 (2018) 723000 588000 603000 660000 905000 983000
2020-07-10 19:00 15.71 449000 983000 (2019) 588000 (2018) 723000 588000 603000 660000 905000 983000
2020-07-10 18:00 15.80 451000 983000 (2019) 588000 (2018) 723000 588000 603000 660000 905000 983000
2020-07-10 17:00 15.79 451000 983000 (2019) 588000 (2018) 723000 588000 603000 660000 905000 983000
2020-07-10 16:00 16.04 457000 983000 (2019) 588000 (2018) 723000 588000 603000 660000 905000 983000
2020-07-10 15:00 16.17 460000 983000 (2019) 588000 (2018) 723000 588000 603000 660000 905000 983000
2020-07-10 14:00 16.29 463000 983000 (2019) 588000 (2018) 723000 588000 603000 660000 905000 983000
2020-07-10 13:00 16.34 464000 983000 (2019) 588000 (2018) 723000 588000 603000 660000 905000 983000
2020-07-10 12:00 16.31 463000 983000 (2019) 588000 (2018) 723000 588000 603000 660000 905000 983000
2020-07-10 11:00 16.47 467000 983000 (2019) 588000 (2018) 723000 588000 603000 660000 905000 983000
2020-07-10 10:00 16.55 469000 983000 (2019) 588000 (2018) 723000 588000 603000 660000 905000 983000
2020-07-10 09:00 16.58 470000 983000 (2019) 588000 (2018) 723000 588000 603000 660000 905000 983000
2020-07-10 08:00 16.63 471000 983000 (2019) 588000 (2018) 723000 588000 603000 660000 905000 983000
2020-07-10 07:00 16.65 471000 983000 (2019) 588000 (2018) 723000 588000 603000 660000 905000 983000
2020-07-10 06:00 16.55 469000 983000 (2019) 588000 (2018) 723000 588000 603000 660000 905000 983000
2020-07-10 05:00 16.43 466000 983000 (2019) 588000 (2018) 723000 588000 603000 660000 905000 983000
2020-07-10 04:00 16.72 473000 983000 (2019) 588000 (2018) 723000 588000 603000 660000 905000 983000
2020-07-10 03:00 16.78 474000 983000 (2019) 588000 (2018) 723000 588000 603000 660000 905000 983000
2020-07-10 02:00 16.84 476000 983000 (2019) 588000 (2018) 723000 588000 603000 660000 905000 983000
2020-07-10 01:00 16.91 478000 983000 (2019) 588000 (2018) 723000 588000 603000 660000 905000 983000
2020-07-10 00:00 17.00 480000 983000 (2019) 588000 (2018) 723000 588000 603000 660000 905000 983000
2020-07-09 23:00 17.02 480000 1020000 (2019) 603000 (2018) 735000 603000 617000 659000 930000 1020000
2020-07-09 22:00 16.90 477000 1020000 (2019) 603000 (2018) 735000 603000 617000 659000 930000 1020000
2020-07-09 21:00 17.13 483000 1020000 (2019) 603000 (2018) 735000 603000 617000 659000 930000 1020000
2020-07-09 20:00 17.18 484000 1020000 (2019) 603000 (2018) 735000 603000 617000 659000 930000 1020000
2020-07-09 19:00 17.05 481000 1020000 (2019) 603000 (2018) 735000 603000 617000 659000 930000 1020000
2020-07-09 18:00 17.34 488000 1020000 (2019) 603000 (2018) 735000 603000 617000 659000 930000 1020000
2020-07-09 17:00 17.19 485000 1020000 (2019) 603000 (2018) 735000 603000 617000 659000 930000 1020000
2020-07-09 16:00 17.44 491000 1020000 (2019) 603000 (2018) 735000 603000 617000 659000 930000 1020000
2020-07-09 15:00 17.55 493000 1020000 (2019) 603000 (2018) 735000 603000 617000 659000 930000 1020000
2020-07-09 14:00 17.63 495000 1020000 (2019) 603000 (2018) 735000 603000 617000 659000 930000 1020000
2020-07-09 13:00 17.68 497000 1020000 (2019) 603000 (2018) 735000 603000 617000 659000 930000 1020000
2020-07-09 12:00 17.78 499000 1020000 (2019) 603000 (2018) 735000 603000 617000 659000 930000 1020000
2020-07-09 11:00 17.86 501000 1020000 (2019) 603000 (2018) 735000 603000 617000 659000 930000 1020000
2020-07-09 10:00 17.94 503000 1020000 (2019) 603000 (2018) 735000 603000 617000 659000 930000 1020000
2020-07-09 09:00 18.01 505000 1020000 (2019) 603000 (2018) 735000 603000 617000 659000 930000 1020000
2020-07-09 08:00 18.10 507000 1020000 (2019) 603000 (2018) 735000 603000 617000 659000 930000 1020000
2020-07-09 07:00 18.22 510000 1020000 (2019) 603000 (2018) 735000 603000 617000 659000 930000 1020000
2020-07-09 06:00 18.25 511000 1020000 (2019) 603000 (2018) 735000 603000 617000 659000 930000 1020000
2020-07-09 05:00 18.34 513000 1020000 (2019) 603000 (2018) 735000 603000 617000 659000 930000 1020000
2020-07-09 04:00 18.46 516000 1020000 (2019) 603000 (2018) 735000 603000 617000 659000 930000 1020000
2020-07-09 03:00 18.59 519000 1020000 (2019) 603000 (2018) 735000 603000 617000 659000 930000 1020000
2020-07-09 02:00 18.66 521000 1020000 (2019) 603000 (2018) 735000 603000 617000 659000 930000 1020000
2020-07-09 01:00 18.74 523000 1020000 (2019) 603000 (2018) 735000 603000 617000 659000 930000 1020000
2020-07-09 00:00 18.85 526000 1020000 (2019) 603000 (2018) 735000 603000 617000 659000 930000 1020000
2020-07-08 23:00 18.90 528000 1060000 (2019) 619000 (2018) 738000 619000 619000 637000 959000 1060000
2020-07-08 22:00 18.97 529000 1060000 (2019) 619000 (2018) 738000 619000 619000 637000 959000 1060000
2020-07-08 21:00 19.02 531000 1060000 (2019) 619000 (2018) 738000 619000 619000 637000 959000 1060000
2020-07-08 20:00 19.15 534000 1060000 (2019) 619000 (2018) 738000 619000 619000 637000 959000 1060000
2020-07-08 19:00 19.21 536000 1060000 (2019) 619000 (2018) 738000 619000 619000 637000 959000 1060000
2020-07-08 18:00 19.26 537000 1060000 (2019) 619000 (2018) 738000 619000 619000 637000 959000 1060000
2020-07-08 17:00 19.33 539000 1060000 (2019) 619000 (2018) 738000 619000 619000 637000 959000 1060000
2020-07-08 16:00 19.39 541000 1060000 (2019) 619000 (2018) 738000 619000 619000 637000 959000 1060000
2020-07-08 15:00 19.45 543000 1060000 (2019) 619000 (2018) 738000 619000 619000 637000 959000 1060000
2020-07-08 14:00 19.54 545000 1060000 (2019) 619000 (2018) 738000 619000 619000 637000 959000 1060000
2020-07-08 13:00 19.62 547000 1060000 (2019) 619000 (2018) 738000 619000 619000 637000 959000 1060000
2020-07-08 12:00 19.67 549000 1060000 (2019) 619000 (2018) 738000 619000 619000 637000 959000 1060000
2020-07-08 11:00 19.78 552000 1060000 (2019) 619000 (2018) 738000 619000 619000 637000 959000 1060000
2020-07-08 10:00 19.83 553000 1060000 (2019) 619000 (2018) 738000 619000 619000 637000 959000 1060000
2020-07-08 09:00 19.87 554000 1060000 (2019) 619000 (2018) 738000 619000 619000 637000 959000 1060000
2020-07-08 08:00 19.77 552000 1060000 (2019) 619000 (2018) 738000 619000 619000 637000 959000 1060000
2020-07-08 07:00 19.95 557000 1060000 (2019) 619000 (2018) 738000 619000 619000 637000 959000 1060000
2020-07-08 06:00 20.06 560000 1060000 (2019) 619000 (2018) 738000 619000 619000 637000 959000 1060000
2020-07-08 05:00 20.12 561000 1060000 (2019) 619000 (2018) 738000 619000 619000 637000 959000 1060000
2020-07-08 04:00 20.16 563000 1060000 (2019) 619000 (2018) 738000 619000 619000 637000 959000 1060000
2020-07-08 03:00 20.25 565000 1060000 (2019) 619000 (2018) 738000 619000 619000 637000 959000 1060000
2020-07-08 02:00 20.36 568000 1060000 (2019) 619000 (2018) 738000 619000 619000 637000 959000 1060000
2020-07-08 01:00 20.40 569000 1060000 (2019) 619000 (2018) 738000 619000 619000 637000 959000 1060000
2020-07-08 00:00 20.48 572000 1060000 (2019) 619000 (2018) 738000 619000 619000 637000 959000 1060000
2020-07-07 23:00 20.54 573000 1100000 (2019) 530000 (2016) 724000 530000 555000 632000 983000 1100000
2020-07-07 22:00 20.60 575000 1100000 (2019) 530000 (2016) 724000 530000 555000 632000 983000 1100000
2020-07-07 21:00 20.70 578000 1100000 (2019) 530000 (2016) 724000 530000 555000 632000 983000 1100000
2020-07-07 20:00 20.75 579000 1100000 (2019) 530000 (2016) 724000 530000 555000 632000 983000 1100000
2020-07-07 19:00 20.84 582000 1100000 (2019) 530000 (2016) 724000 530000 555000 632000 983000 1100000
2020-07-07 18:00 20.93 584000 1100000 (2019) 530000 (2016) 724000 530000 555000 632000 983000 1100000
2020-07-07 17:00 20.80 581000 1100000 (2019) 530000 (2016) 724000 530000 555000 632000 983000 1100000
2020-07-07 16:00 21.10 590000 1100000 (2019) 530000 (2016) 724000 530000 555000 632000 983000 1100000
2020-07-07 15:00 21.21 593000 1100000 (2019) 530000 (2016) 724000 530000 555000 632000 983000 1100000
2020-07-07 14:00 21.28 595000 1100000 (2019) 530000 (2016) 724000 530000 555000 632000 983000 1100000
2020-07-07 13:00 21.24 594000 1100000 (2019) 530000 (2016) 724000 530000 555000 632000 983000 1100000
2020-07-07 12:00 21.42 600000 1100000 (2019) 530000 (2016) 724000 530000 555000 632000 983000 1100000
2020-07-07 11:00 21.51 603000 1100000 (2019) 530000 (2016) 724000 530000 555000 632000 983000 1100000
2020-07-07 10:00 21.62 606000 1100000 (2019) 530000 (2016) 724000 530000 555000 632000 983000 1100000
2020-07-07 09:00 21.67 608000 1100000 (2019) 530000 (2016) 724000 530000 555000 632000 983000 1100000
2020-07-07 08:00 21.74 610000 1100000 (2019) 530000 (2016) 724000 530000 555000 632000 983000 1100000
2020-07-07 07:00 21.84 613000 1100000 (2019) 530000 (2016) 724000 530000 555000 632000 983000 1100000
2020-07-07 06:00 21.89 615000 1100000 (2019) 530000 (2016) 724000 530000 555000 632000 983000 1100000
2020-07-07 05:00 21.98 618000 1100000 (2019) 530000 (2016) 724000 530000 555000 632000 983000 1100000
2020-07-07 04:00 22.03 619000 1100000 (2019) 530000 (2016) 724000 530000 555000 632000 983000 1100000
2020-07-07 03:00 22.08 621000 1100000 (2019) 530000 (2016) 724000 530000 555000 632000 983000 1100000
2020-07-07 02:00 22.17 624000 1100000 (2019) 530000 (2016) 724000 530000 555000 632000 983000 1100000
2020-07-07 01:00 22.21 625000 1100000 (2019) 530000 (2016) 724000 530000 555000 632000 983000 1100000
2020-07-07 00:00 22.28 627000 1100000 (2019) 530000 (2016) 724000 530000 555000 632000 983000 1100000
2020-07-06 23:00 22.34 629000 1140000 (2019) 469000 (2016) 716000 469000 502000 627000 1020000 1140000
2020-07-06 22:00 22.42 632000 1140000 (2019) 469000 (2016) 716000 469000 502000 627000 1020000 1140000
2020-07-06 21:00 22.48 634000 1140000 (2019) 469000 (2016) 716000 469000 502000 627000 1020000 1140000
2020-07-06 20:00 22.57 637000 1140000 (2019) 469000 (2016) 716000 469000 502000 627000 1020000 1140000
2020-07-06 19:00 22.62 638000 1140000 (2019) 469000 (2016) 716000 469000 502000 627000 1020000 1140000
2020-07-06 18:00 22.68 640000 1140000 (2019) 469000 (2016) 716000 469000 502000 627000 1020000 1140000
2020-07-06 17:00 22.80 644000 1140000 (2019) 469000 (2016) 716000 469000 502000 627000 1020000 1140000
2020-07-06 16:00 22.83 645000 1140000 (2019) 469000 (2016) 716000 469000 502000 627000 1020000 1140000
2020-07-06 15:00 22.88 647000 1140000 (2019) 469000 (2016) 716000 469000 502000 627000 1020000 1140000
2020-07-06 14:00 22.94 649000 1140000 (2019) 469000 (2016) 716000 469000 502000 627000 1020000 1140000
2020-07-06 13:00 23.00 651000 1140000 (2019) 469000 (2016) 716000 469000 502000 627000 1020000 1140000
2020-07-06 12:00 23.06 653000 1140000 (2019) 469000 (2016) 716000 469000 502000 627000 1020000 1140000
2020-07-06 11:00 23.11 654000 1140000 (2019) 469000 (2016) 716000 469000 502000 627000 1020000 1140000
2020-07-06 10:00 23.19 657000 1140000 (2019) 469000 (2016) 716000 469000 502000 627000 1020000 1140000
2020-07-06 09:00 23.21 658000 1140000 (2019) 469000 (2016) 716000 469000 502000 627000 1020000 1140000
2020-07-06 08:00 23.29 660000 1140000 (2019) 469000 (2016) 716000 469000 502000 627000 1020000 1140000
2020-07-06 07:00 23.34 662000 1140000 (2019) 469000 (2016) 716000 469000 502000 627000 1020000 1140000
2020-07-06 06:00 23.40 664000 1140000 (2019) 469000 (2016) 716000 469000 502000 627000 1020000 1140000
2020-07-06 05:00 23.40 664000 1140000 (2019) 469000 (2016) 716000 469000 502000 627000 1020000 1140000
2020-07-06 04:00 23.48 667000 1140000 (2019) 469000 (2016) 716000 469000 502000 627000 1020000 1140000
2020-07-06 03:00 23.54 669000 1140000 (2019) 469000 (2016) 716000 469000 502000 627000 1020000 1140000
2020-07-06 02:00 23.56 669000 1140000 (2019) 469000 (2016) 716000 469000 502000 627000 1020000 1140000
2020-07-06 01:00 23.62 671000 1140000 (2019) 469000 (2016) 716000 469000 502000 627000 1020000 1140000
2020-07-06 00:00 23.65 672000 1140000 (2019) 469000 (2016) 716000 469000 502000 627000 1020000 1140000
2020-07-05 23:00 23.68 673000 1180000 (2019) 416000 (2016) 712000 416000 453000 625000 1060000 1180000
2020-07-05 22:00 23.73 675000 1180000 (2019) 416000 (2016) 712000 416000 453000 625000 1060000 1180000
2020-07-05 21:00 23.76 676000 1180000 (2019) 416000 (2016) 712000 416000 453000 625000 1060000 1180000
2020-07-05 20:00 23.80 677000 1180000 (2019) 416000 (2016) 712000 416000 453000 625000 1060000 1180000
2020-07-05 19:00 23.83 678000 1180000 (2019) 416000 (2016) 712000 416000 453000 625000 1060000 1180000
2020-07-05 18:00 23.84 679000 1180000 (2019) 416000 (2016) 712000 416000 453000 625000 1060000 1180000
2020-07-05 17:00 23.88 680000 1180000 (2019) 416000 (2016) 712000 416000 453000 625000 1060000 1180000
2020-07-05 16:00 23.91 681000 1180000 (2019) 416000 (2016) 712000 416000 453000 625000 1060000 1180000
2020-07-05 15:00 23.95 682000 1180000 (2019) 416000 (2016) 712000 416000 453000 625000 1060000 1180000
2020-07-05 14:00 24.00 684000 1180000 (2019) 416000 (2016) 712000 416000 453000 625000 1060000 1180000
2020-07-05 13:00 23.99 684000 1180000 (2019) 416000 (2016) 712000 416000 453000 625000 1060000 1180000
2020-07-05 12:00 24.04 685000 1180000 (2019) 416000 (2016) 712000 416000 453000 625000 1060000 1180000
2020-07-05 11:00 24.07 687000 1180000 (2019) 416000 (2016) 712000 416000 453000 625000 1060000 1180000
2020-07-05 10:00 24.10 688000 1180000 (2019) 416000 (2016) 712000 416000 453000 625000 1060000 1180000
2020-07-05 09:00 24.11 688000 1180000 (2019) 416000 (2016) 712000 416000 453000 625000 1060000 1180000
2020-07-05 08:00 24.15 689000 1180000 (2019) 416000 (2016) 712000 416000 453000 625000 1060000 1180000
2020-07-05 07:00 24.17 690000 1180000 (2019) 416000 (2016) 712000 416000 453000 625000 1060000 1180000
2020-07-05 06:00 23.94 682000 1180000 (2019) 416000 (2016) 712000 416000 453000 625000 1060000 1180000
2020-07-05 05:00 24.19 691000 1180000 (2019) 416000 (2016) 712000 416000 453000 625000 1060000 1180000
2020-07-05 04:00 24.20 691000 1180000 (2019) 416000 (2016) 712000 416000 453000 625000 1060000 1180000
2020-07-05 03:00 24.21 691000 1180000 (2019) 416000 (2016) 712000 416000 453000 625000 1060000 1180000
2020-07-05 02:00 24.23 692000 1180000 (2019) 416000 (2016) 712000 416000 453000 625000 1060000 1180000
2020-07-05 01:00 24.20 691000 1180000 (2019) 416000 (2016) 712000 416000 453000 625000 1060000 1180000
2020-07-05 00:00 24.24 692000 1180000 (2019) 416000 (2016) 712000 416000 453000 625000 1060000 1180000
2020-07-04 23:00 24.27 693000 1220000 (2019) 388000 (2016) 716000 388000 424000 628000 1100000 1220000
2020-07-04 22:00 24.22 692000 1220000 (2019) 388000 (2016) 716000 388000 424000 628000 1100000 1220000
2020-07-04 21:00 24.25 693000 1220000 (2019) 388000 (2016) 716000 388000 424000 628000 1100000 1220000
2020-07-04 20:00 24.27 693000 1220000 (2019) 388000 (2016) 716000 388000 424000 628000 1100000 1220000
2020-07-04 19:00 24.01 684000 1220000 (2019) 388000 (2016) 716000 388000 424000 628000 1100000 1220000
2020-07-04 18:00 23.76 676000 1220000 (2019) 388000 (2016) 716000 388000 424000 628000 1100000 1220000
2020-07-04 17:00 24.28 694000 1220000 (2019) 388000 (2016) 716000 388000 424000 628000 1100000 1220000
2020-07-04 16:00 24.27 693000 1220000 (2019) 388000 (2016) 716000 388000 424000 628000 1100000 1220000
2020-07-04 15:00 24.31 695000 1220000 (2019) 388000 (2016) 716000 388000 424000 628000 1100000 1220000
2020-07-04 14:00 24.04 685000 1220000 (2019) 388000 (2016) 716000 388000 424000 628000 1100000 1220000
2020-07-04 13:00 24.26 693000 1220000 (2019) 388000 (2016) 716000 388000 424000 628000 1100000 1220000
2020-07-04 12:00 24.30 694000 1220000 (2019) 388000 (2016) 716000 388000 424000 628000 1100000 1220000
2020-07-04 11:00 24.28 694000 1220000 (2019) 388000 (2016) 716000 388000 424000 628000 1100000 1220000
2020-07-04 10:00 24.28 694000 1220000 (2019) 388000 (2016) 716000 388000 424000 628000 1100000 1220000
2020-07-04 09:00 24.28 694000 1220000 (2019) 388000 (2016) 716000 388000 424000 628000 1100000 1220000
2020-07-04 08:00 24.27 693000 1220000 (2019) 388000 (2016) 716000 388000 424000 628000 1100000 1220000
2020-07-04 07:00 24.25 693000 1220000 (2019) 388000 (2016) 716000 388000 424000 628000 1100000 1220000
2020-07-04 06:00 24.23 692000 1220000 (2019) 388000 (2016) 716000 388000 424000 628000 1100000 1220000
2020-07-04 05:00 24.25 693000 1220000 (2019) 388000 (2016) 716000 388000 424000 628000 1100000 1220000
2020-07-04 04:00 24.25 693000 1220000 (2019) 388000 (2016) 716000 388000 424000 628000 1100000 1220000
2020-07-04 03:00 24.23 692000 1220000 (2019) 388000 (2016) 716000 388000 424000 628000 1100000 1220000
2020-07-04 02:00 24.20 691000 1220000 (2019) 388000 (2016) 716000 388000 424000 628000 1100000 1220000
2020-07-04 01:00 24.19 691000 1220000 (2019) 388000 (2016) 716000 388000 424000 628000 1100000 1220000
2020-07-04 00:00 24.17 690000 1220000 (2019) 388000 (2016) 716000 388000 424000 628000 1100000 1220000
2020-07-03 23:00 24.16 690000 1240000 (2019) 432000 (2016) 737000 432000 455000 637000 1120000 1240000
2020-07-03 22:00 24.11 688000 1240000 (2019) 432000 (2016) 737000 432000 455000 637000 1120000 1240000
2020-07-03 21:00 24.13 689000 1240000 (2019) 432000 (2016) 737000 432000 455000 637000 1120000 1240000
2020-07-03 20:00 24.09 687000 1240000 (2019) 432000 (2016) 737000 432000 455000 637000 1120000 1240000
2020-07-03 19:00 24.08 687000 1240000 (2019) 432000 (2016) 737000 432000 455000 637000 1120000 1240000
2020-07-03 18:00 24.02 685000 1240000 (2019) 432000 (2016) 737000 432000 455000 637000 1120000 1240000
2020-07-03 17:00 23.92 681000 1240000 (2019) 432000 (2016) 737000 432000 455000 637000 1120000 1240000
2020-07-03 16:00 23.92 681000 1240000 (2019) 432000 (2016) 737000 432000 455000 637000 1120000 1240000
2020-07-03 15:00 23.88 680000 1240000 (2019) 432000 (2016) 737000 432000 455000 637000 1120000 1240000
2020-07-03 14:00 23.86 679000 1240000 (2019) 432000 (2016) 737000 432000 455000 637000 1120000 1240000
2020-07-03 13:00 23.79 677000 1240000 (2019) 432000 (2016) 737000 432000 455000 637000 1120000 1240000
2020-07-03 12:00 23.79 677000 1240000 (2019) 432000 (2016) 737000 432000 455000 637000 1120000 1240000
2020-07-03 11:00 23.72 675000 1240000 (2019) 432000 (2016) 737000 432000 455000 637000 1120000 1240000
2020-07-03 10:00 23.69 674000 1240000 (2019) 432000 (2016) 737000 432000 455000 637000 1120000 1240000
2020-07-03 09:00 23.65 672000 1240000 (2019) 432000 (2016) 737000 432000 455000 637000 1120000 1240000
2020-07-03 08:00 23.58 670000 1240000 (2019) 432000 (2016) 737000 432000 455000 637000 1120000 1240000
2020-07-03 07:00 23.54 669000 1240000 (2019) 432000 (2016) 737000 432000 455000 637000 1120000 1240000
2020-07-03 06:00 23.47 666000 1240000 (2019) 432000 (2016) 737000 432000 455000 637000 1120000 1240000
2020-07-03 05:00 23.45 666000 1240000 (2019) 432000 (2016) 737000 432000 455000 637000 1120000 1240000
2020-07-03 04:00 23.37 663000 1240000 (2019) 432000 (2016) 737000 432000 455000 637000 1120000 1240000
2020-07-03 03:00 23.34 662000 1240000 (2019) 432000 (2016) 737000 432000 455000 637000 1120000 1240000
2020-07-03 02:00 23.26 659000 1240000 (2019) 432000 (2016) 737000 432000 455000 637000 1120000 1240000
2020-07-03 01:00 23.20 657000 1240000 (2019) 432000 (2016) 737000 432000 455000 637000 1120000 1240000
2020-07-03 00:00 23.12 655000 1240000 (2019) 432000 (2016) 737000 432000 455000 637000 1120000 1240000
2020-07-02 23:00 23.05 652000 1260000 (2019) 485000 (2016) 771000 485000 508000 669000 1140000 1260000
2020-07-02 22:00 22.97 650000 1260000 (2019) 485000 (2016) 771000 485000 508000 669000 1140000 1260000
2020-07-02 21:00 22.93 648000 1260000 (2019) 485000 (2016) 771000 485000 508000 669000 1140000 1260000
2020-07-02 20:00 22.85 646000 1260000 (2019) 485000 (2016) 771000 485000 508000 669000 1140000 1260000
2020-07-02 19:00 22.79 644000 1260000 (2019) 485000 (2016) 771000 485000 508000 669000 1140000 1260000
2020-07-02 18:00 22.73 642000 1260000 (2019) 485000 (2016) 771000 485000 508000 669000 1140000 1260000
2020-07-02 17:00 22.63 639000 1260000 (2019) 485000 (2016) 771000 485000 508000 669000 1140000 1260000
2020-07-02 16:00 22.55 636000 1260000 (2019) 485000 (2016) 771000 485000 508000 669000 1140000 1260000
2020-07-02 15:00 22.46 633000 1260000 (2019) 485000 (2016) 771000 485000 508000 669000 1140000 1260000
2020-07-02 14:00 22.39 631000 1260000 (2019) 485000 (2016) 771000 485000 508000 669000 1140000 1260000
2020-07-02 13:00 22.30 628000 1260000 (2019) 485000 (2016) 771000 485000 508000 669000 1140000 1260000
2020-07-02 12:00 22.20 625000 1260000 (2019) 485000 (2016) 771000 485000 508000 669000 1140000 1260000
2020-07-02 11:00 22.14 623000 1260000 (2019) 485000 (2016) 771000 485000 508000 669000 1140000 1260000
2020-07-02 10:00 22.05 620000 1260000 (2019) 485000 (2016) 771000 485000 508000 669000 1140000 1260000
2020-07-02 09:00 21.97 617000 1260000 (2019) 485000 (2016) 771000 485000 508000 669000 1140000 1260000
2020-07-02 08:00 21.89 615000 1260000 (2019) 485000 (2016) 771000 485000 508000 669000 1140000 1260000
2020-07-02 07:00 21.81 612000 1260000 (2019) 485000 (2016) 771000 485000 508000 669000 1140000 1260000
2020-07-02 06:00 21.68 608000 1260000 (2019) 485000 (2016) 771000 485000 508000 669000 1140000 1260000
2020-07-02 05:00 21.37 598000 1260000 (2019) 485000 (2016) 771000 485000 508000 669000 1140000 1260000
2020-07-02 04:00 21.54 604000 1260000 (2019) 485000 (2016) 771000 485000 508000 669000 1140000 1260000
2020-07-02 03:00 21.42 600000 1260000 (2019) 485000 (2016) 771000 485000 508000 669000 1140000 1260000
2020-07-02 02:00 21.33 597000 1260000 (2019) 485000 (2016) 771000 485000 508000 669000 1140000 1260000
2020-07-02 01:00 21.24 594000 1260000 (2019) 485000 (2016) 771000 485000 508000 669000 1140000 1260000
2020-07-02 00:00 21.12 590000 1260000 (2019) 485000 (2016) 771000 485000 508000 669000 1140000 1260000
2020-07-01 23:00 21.00 587000 1270000 (2019) 534000 (2016) 802000 534000 559000 702000 1150000 1270000
2020-07-01 22:00 20.92 584000 1270000 (2019) 534000 (2016) 802000 534000 559000 702000 1150000 1270000
2020-07-01 21:00 20.82 581000 1270000 (2019) 534000 (2016) 802000 534000 559000 702000 1150000 1270000
2020-07-01 20:00 20.75 579000 1270000 (2019) 534000 (2016) 802000 534000 559000 702000 1150000 1270000
2020-07-01 19:00 20.60 575000 1270000 (2019) 534000 (2016) 802000 534000 559000 702000 1150000 1270000
2020-07-01 18:00 20.50 572000 1270000 (2019) 534000 (2016) 802000 534000 559000 702000 1150000 1270000
2020-07-01 17:00 20.46 571000 1270000 (2019) 534000 (2016) 802000 534000 559000 702000 1150000 1270000
2020-07-01 16:00 20.30 566000 1270000 (2019) 534000 (2016) 802000 534000 559000 702000 1150000 1270000
2020-07-01 15:00 20.26 565000 1270000 (2019) 534000 (2016) 802000 534000 559000 702000 1150000 1270000
2020-07-01 14:00 20.15 562000 1270000 (2019) 534000 (2016) 802000 534000 559000 702000 1150000 1270000
2020-07-01 13:00 20.03 559000 1270000 (2019) 534000 (2016) 802000 534000 559000 702000 1150000 1270000
2020-07-01 12:00 19.97 557000 1270000 (2019) 534000 (2016) 802000 534000 559000 702000 1150000 1270000
2020-07-01 11:00 19.89 555000 1270000 (2019) 534000 (2016) 802000 534000 559000 702000 1150000 1270000
2020-07-01 10:00 19.81 553000 1270000 (2019) 534000 (2016) 802000 534000 559000 702000 1150000 1270000
2020-07-01 09:00 19.75 551000 1270000 (2019) 534000 (2016) 802000 534000 559000 702000 1150000 1270000
2020-07-01 08:00 19.71 550000 1270000 (2019) 534000 (2016) 802000 534000 559000 702000 1150000 1270000
2020-07-01 07:00 19.66 549000 1270000 (2019) 534000 (2016) 802000 534000 559000 702000 1150000 1270000
2020-07-01 06:00 19.56 546000 1270000 (2019) 534000 (2016) 802000 534000 559000 702000 1150000 1270000
2020-07-01 05:00 19.50 544000 1270000 (2019) 534000 (2016) 802000 534000 559000 702000 1150000 1270000
2020-07-01 04:00 19.39 541000 1270000 (2019) 534000 (2016) 802000 534000 559000 702000 1150000 1270000
2020-07-01 03:00 18.84 526000 1270000 (2019) 534000 (2016) 802000 534000 559000 702000 1150000 1270000
2020-07-01 02:00 19.31 539000 1270000 (2019) 534000 (2016) 802000 534000 559000 702000 1150000 1270000
2020-07-01 01:00 19.22 536000 1270000 (2019) 534000 (2016) 802000 534000 559000 702000 1150000 1270000
2020-07-01 00:00 19.18 535000 1270000 (2019) 534000 (2016) 802000 534000 559000 702000 1150000 1270000
2020-06-30 23:00 19.09 533000 1270000 (2019) 562000 (2016) 811000 562000 586000 707000 1140000 1270000
2020-06-30 22:00 19.00 530000 1270000 (2019) 562000 (2016) 811000 562000 586000 707000 1140000 1270000
2020-06-30 21:00 18.91 528000 1270000 (2019) 562000 (2016) 811000 562000 586000 707000 1140000 1270000
2020-06-30 20:00 18.75 524000 1270000 (2019) 562000 (2016) 811000 562000 586000 707000 1140000 1270000
2020-06-30 19:00 18.17 509000 1270000 (2019) 562000 (2016) 811000 562000 586000 707000 1140000 1270000
2020-06-30 18:00 18.69 522000 1270000 (2019) 562000 (2016) 811000 562000 586000 707000 1140000 1270000
2020-06-30 17:00 18.61 520000 1270000 (2019) 562000 (2016) 811000 562000 586000 707000 1140000 1270000
2020-06-30 16:00 18.16 509000 1270000 (2019) 562000 (2016) 811000 562000 586000 707000 1140000 1270000
2020-06-30 15:00 18.13 508000 1270000 (2019) 562000 (2016) 811000 562000 586000 707000 1140000 1270000
2020-06-30 14:00 18.46 516000 1270000 (2019) 562000 (2016) 811000 562000 586000 707000 1140000 1270000
2020-06-30 13:00 18.43 515000 1270000 (2019) 562000 (2016) 811000 562000 586000 707000 1140000 1270000
2020-06-30 12:00 18.32 513000 1270000 (2019) 562000 (2016) 811000 562000 586000 707000 1140000 1270000
2020-06-30 11:00 18.11 507000 1270000 (2019) 562000 (2016) 811000 562000 586000 707000 1140000 1270000
2020-06-30 10:00 18.19 509000 1270000 (2019) 562000 (2016) 811000 562000 586000 707000 1140000 1270000
2020-06-30 09:00 18.30 512000 1270000 (2019) 562000 (2016) 811000 562000 586000 707000 1140000 1270000
2020-06-30 08:00 18.29 512000 1270000 (2019) 562000 (2016) 811000 562000 586000 707000 1140000 1270000
2020-06-30 07:00 18.29 512000 1270000 (2019) 562000 (2016) 811000 562000 586000 707000 1140000 1270000
2020-06-30 06:00 18.24 511000 1270000 (2019) 562000 (2016) 811000 562000 586000 707000 1140000 1270000
2020-06-30 05:00 18.19 509000 1270000 (2019) 562000 (2016) 811000 562000 586000 707000 1140000 1270000
2020-06-30 04:00 18.11 507000 1270000 (2019) 562000 (2016) 811000 562000 586000 707000 1140000 1270000
2020-06-30 03:00 17.90 502000 1270000 (2019) 562000 (2016) 811000 562000 586000 707000 1140000 1270000
2020-06-30 02:00 17.91 502000 1270000 (2019) 562000 (2016) 811000 562000 586000 707000 1140000 1270000
2020-06-30 01:00 17.85 501000 1270000 (2019) 562000 (2016) 811000 562000 586000 707000 1140000 1270000
2020-06-30 00:00 17.76 499000 1270000 (2019) 562000 (2016) 811000 562000 586000 707000 1140000 1270000
2020-06-29 23:00 17.65 496000 1270000 (2019) 555000 (2016) 800000 555000 580000 688000 1130000 1270000
2020-06-29 22:00 17.57 494000 1270000 (2019) 555000 (2016) 800000 555000 580000 688000 1130000 1270000
2020-06-29 21:00 17.47 491000 1270000 (2019) 555000 (2016) 800000 555000 580000 688000 1130000 1270000
2020-06-29 20:00 17.39 489000 1270000 (2019) 555000 (2016) 800000 555000 580000 688000 1130000 1270000
2020-06-29 19:00 17.21 485000 1270000 (2019) 555000 (2016) 800000 555000 580000 688000 1130000 1270000
2020-06-29 18:00 17.01 480000 1270000 (2019) 555000 (2016) 800000 555000 580000 688000 1130000 1270000
2020-06-29 17:00 16.90 477000 1270000 (2019) 555000 (2016) 800000 555000 580000 688000 1130000 1270000
2020-06-29 16:00 17.15 484000 1270000 (2019) 555000 (2016) 800000 555000 580000 688000 1130000 1270000
2020-06-29 15:00 17.08 482000 1270000 (2019) 555000 (2016) 800000 555000 580000 688000 1130000 1270000
2020-06-29 14:00 17.08 482000 1270000 (2019) 555000 (2016) 800000 555000 580000 688000 1130000 1270000
2020-06-29 13:00 17.01 480000 1270000 (2019) 555000 (2016) 800000 555000 580000 688000 1130000 1270000
2020-06-29 12:00 17.00 480000 1270000 (2019) 555000 (2016) 800000 555000 580000 688000 1130000 1270000
2020-06-29 11:00 16.79 475000 1270000 (2019) 555000 (2016) 800000 555000 580000 688000 1130000 1270000
2020-06-29 10:00 16.50 468000 1270000 (2019) 555000 (2016) 800000 555000 580000 688000 1130000 1270000
2020-06-29 09:00 16.88 477000 1270000 (2019) 555000 (2016) 800000 555000 580000 688000 1130000 1270000
2020-06-29 08:00 16.79 475000 1270000 (2019) 555000 (2016) 800000 555000 580000 688000 1130000 1270000
2020-06-29 07:00 16.47 467000 1270000 (2019) 555000 (2016) 800000 555000 580000 688000 1130000 1270000
2020-06-29 06:00 16.76 474000 1270000 (2019) 555000 (2016) 800000 555000 580000 688000 1130000 1270000
2020-06-29 05:00 16.72 473000 1270000 (2019) 555000 (2016) 800000 555000 580000 688000 1130000 1270000
2020-06-29 04:00 16.66 472000 1270000 (2019) 555000 (2016) 800000 555000 580000 688000 1130000 1270000
2020-06-29 03:00 16.30 463000 1270000 (2019) 555000 (2016) 800000 555000 580000 688000 1130000 1270000
2020-06-29 02:00 16.51 468000 1270000 (2019) 555000 (2016) 800000 555000 580000 688000 1130000 1270000
2020-06-29 01:00 16.59 470000 1270000 (2019) 555000 (2016) 800000 555000 580000 688000 1130000 1270000
2020-06-29 00:00 16.60 470000 1270000 (2019) 555000 (2016) 800000 555000 580000 688000 1130000 1270000
2020-06-28 23:00 16.46 467000 1270000 (2019) 532000 (2016) 782000 532000 561000 663000 1120000 1270000
2020-06-28 22:00 16.46 467000 1270000 (2019) 532000 (2016) 782000 532000 561000 663000 1120000 1270000
2020-06-28 21:00 16.57 469000 1270000 (2019) 532000 (2016) 782000 532000 561000 663000 1120000 1270000
2020-06-28 20:00 16.19 460000 1270000 (2019) 532000 (2016) 782000 532000 561000 663000 1120000 1270000
2020-06-28 19:00 16.18 460000 1270000 (2019) 532000 (2016) 782000 532000 561000 663000 1120000 1270000
2020-06-28 18:00 16.39 465000 1270000 (2019) 532000 (2016) 782000 532000 561000 663000 1120000 1270000
2020-06-28 17:00 16.09 458000 1270000 (2019) 532000 (2016) 782000 532000 561000 663000 1120000 1270000
2020-06-28 16:00 16.41 466000 1270000 (2019) 532000 (2016) 782000 532000 561000 663000 1120000 1270000
2020-06-28 15:00 16.57 469000 1270000 (2019) 532000 (2016) 782000 532000 561000 663000 1120000 1270000
2020-06-28 14:00 16.31 463000 1270000 (2019) 532000 (2016) 782000 532000 561000 663000 1120000 1270000
2020-06-28 13:00 16.64 471000 1270000 (2019) 532000 (2016) 782000 532000 561000 663000 1120000 1270000
2020-06-28 12:00 16.37 465000 1270000 (2019) 532000 (2016) 782000 532000 561000 663000 1120000 1270000
2020-06-28 11:00 16.67 472000 1270000 (2019) 532000 (2016) 782000 532000 561000 663000 1120000 1270000
2020-06-28 10:00 16.70 473000 1270000 (2019) 532000 (2016) 782000 532000 561000 663000 1120000 1270000
2020-06-28 09:00 16.08 458000 1270000 (2019) 532000 (2016) 782000 532000 561000 663000 1120000 1270000
2020-06-28 08:00 16.77 474000 1270000 (2019) 532000 (2016) 782000 532000 561000 663000 1120000 1270000
2020-06-28 07:00 16.77 474000 1270000 (2019) 532000 (2016) 782000 532000 561000 663000 1120000 1270000
2020-06-28 06:00 16.77 474000 1270000 (2019) 532000 (2016) 782000 532000 561000 663000 1120000 1270000
2020-06-28 05:00 16.84 476000 1270000 (2019) 532000 (2016) 782000 532000 561000 663000 1120000 1270000
2020-06-28 04:00 16.74 474000 1270000 (2019) 532000 (2016) 782000 532000 561000 663000 1120000 1270000
2020-06-28 03:00 16.71 473000 1270000 (2019) 532000 (2016) 782000 532000 561000 663000 1120000 1270000
2020-06-28 02:00 16.87 477000 1270000 (2019) 532000 (2016) 782000 532000 561000 663000 1120000 1270000
2020-06-28 01:00 16.92 478000 1270000 (2019) 532000 (2016) 782000 532000 561000 663000 1120000 1270000
2020-06-28 00:00 16.95 479000 1270000 (2019) 532000 (2016) 782000 532000 561000 663000 1120000 1270000
2020-06-27 23:00 16.98 479000 1270000 (2019) 495000 (2016) 756000 495000 526000 629000 1110000 1270000
2020-06-27 22:00 16.69 472000 1270000 (2019) 495000 (2016) 756000 495000 526000 629000 1110000 1270000
2020-06-27 21:00 16.99 480000 1270000 (2019) 495000 (2016) 756000 495000 526000 629000 1110000 1270000
2020-06-27 20:00 17.11 483000 1270000 (2019) 495000 (2016) 756000 495000 526000 629000 1110000 1270000
2020-06-27 19:00 16.98 479000 1270000 (2019) 495000 (2016) 756000 495000 526000 629000 1110000 1270000
2020-06-27 18:00 17.17 484000 1270000 (2019) 495000 (2016) 756000 495000 526000 629000 1110000 1270000
2020-06-27 17:00 17.14 483000 1270000 (2019) 495000 (2016) 756000 495000 526000 629000 1110000 1270000
2020-06-27 16:00 16.95 479000 1270000 (2019) 495000 (2016) 756000 495000 526000 629000 1110000 1270000
2020-06-27 15:00 17.14 483000 1270000 (2019) 495000 (2016) 756000 495000 526000 629000 1110000 1270000
2020-06-27 14:00 16.85 476000 1270000 (2019) 495000 (2016) 756000 495000 526000 629000 1110000 1270000
2020-06-27 13:00 17.17 484000 1270000 (2019) 495000 (2016) 756000 495000 526000 629000 1110000 1270000
2020-06-27 12:00 16.87 477000 1270000 (2019) 495000 (2016) 756000 495000 526000 629000 1110000 1270000
2020-06-27 11:00 16.80 475000 1270000 (2019) 495000 (2016) 756000 495000 526000 629000 1110000 1270000
2020-06-27 10:00 17.33 488000 1270000 (2019) 495000 (2016) 756000 495000 526000 629000 1110000 1270000
2020-06-27 09:00 17.03 481000 1270000 (2019) 495000 (2016) 756000 495000 526000 629000 1110000 1270000
2020-06-27 08:00 17.23 485000 1270000 (2019) 495000 (2016) 756000 495000 526000 629000 1110000 1270000
2020-06-27 07:00 17.42 490000 1270000 (2019) 495000 (2016) 756000 495000 526000 629000 1110000 1270000
2020-06-27 06:00 17.49 492000 1270000 (2019) 495000 (2016) 756000 495000 526000 629000 1110000 1270000
2020-06-27 05:00 17.50 492000 1270000 (2019) 495000 (2016) 756000 495000 526000 629000 1110000 1270000
2020-06-27 04:00 17.55 493000 1270000 (2019) 495000 (2016) 756000 495000 526000 629000 1110000 1270000
2020-06-27 03:00 17.53 493000 1270000 (2019) 495000 (2016) 756000 495000 526000 629000 1110000 1270000
2020-06-27 02:00 17.59 494000 1270000 (2019) 495000 (2016) 756000 495000 526000 629000 1110000 1270000
2020-06-27 01:00 17.58 494000 1270000 (2019) 495000 (2016) 756000 495000 526000 629000 1110000 1270000
2020-06-27 00:00 17.64 496000 1270000 (2019) 495000 (2016) 756000 495000 526000 629000 1110000 1270000
2020-06-26 23:00 17.66 496000 1260000 (2019) 458000 (2016) 728000 458000 484000 597000 1100000 1260000
2020-06-26 22:00 17.70 497000 1260000 (2019) 458000 (2016) 728000 458000 484000 597000 1100000 1260000
2020-06-26 21:00 17.70 497000 1260000 (2019) 458000 (2016) 728000 458000 484000 597000 1100000 1260000
2020-06-26 20:00 17.77 499000 1260000 (2019) 458000 (2016) 728000 458000 484000 597000 1100000 1260000
2020-06-26 19:00 17.63 495000 1260000 (2019) 458000 (2016) 728000 458000 484000 597000 1100000 1260000
2020-06-26 18:00 17.68 497000 1260000 (2019) 458000 (2016) 728000 458000 484000 597000 1100000 1260000
2020-06-26 17:00 17.84 501000 1260000 (2019) 458000 (2016) 728000 458000 484000 597000 1100000 1260000
2020-06-26 16:00 17.94 503000 1260000 (2019) 458000 (2016) 728000 458000 484000 597000 1100000 1260000
2020-06-26 15:00 17.92 503000 1260000 (2019) 458000 (2016) 728000 458000 484000 597000 1100000 1260000
2020-06-26 14:00 17.79 499000 1260000 (2019) 458000 (2016) 728000 458000 484000 597000 1100000 1260000
2020-06-26 13:00 17.86 501000 1260000 (2019) 458000 (2016) 728000 458000 484000 597000 1100000 1260000
2020-06-26 12:00 18.06 506000 1260000 (2019) 458000 (2016) 728000 458000 484000 597000 1100000 1260000
2020-06-26 11:00 17.98 504000 1260000 (2019) 458000 (2016) 728000 458000 484000 597000 1100000 1260000
2020-06-26 10:00 18.15 508000 1260000 (2019) 458000 (2016) 728000 458000 484000 597000 1100000 1260000
2020-06-26 09:00 18.14 508000 1260000 (2019) 458000 (2016) 728000 458000 484000 597000 1100000 1260000
2020-06-26 08:00 18.21 510000 1260000 (2019) 458000 (2016) 728000 458000 484000 597000 1100000 1260000
2020-06-26 07:00 18.02 505000 1260000 (2019) 458000 (2016) 728000 458000 484000 597000 1100000 1260000
2020-06-26 06:00 18.19 509000 1260000 (2019) 458000 (2016) 728000 458000 484000 597000 1100000 1260000
2020-06-26 05:00 17.87 501000 1260000 (2019) 458000 (2016) 728000 458000 484000 597000 1100000 1260000
2020-06-26 04:00 18.09 507000 1260000 (2019) 458000 (2016) 728000 458000 484000 597000 1100000 1260000
2020-06-26 03:00 18.00 505000 1260000 (2019) 458000 (2016) 728000 458000 484000 597000 1100000 1260000
2020-06-26 02:00 18.34 513000 1260000 (2019) 458000 (2016) 728000 458000 484000 597000 1100000 1260000
2020-06-26 01:00 18.33 513000 1260000 (2019) 458000 (2016) 728000 458000 484000 597000 1100000 1260000
2020-06-26 00:00 18.35 513000 1260000 (2019) 458000 (2016) 728000 458000 484000 597000 1100000 1260000
2020-06-25 23:00 18.38 514000 1250000 (2019) 427000 (2016) 704000 427000 448000 570000 1100000 1250000
2020-06-25 22:00 18.36 514000 1250000 (2019) 427000 (2016) 704000 427000 448000 570000 1100000 1250000
2020-06-25 21:00 18.37 514000 1250000 (2019) 427000 (2016) 704000 427000 448000 570000 1100000 1250000
2020-06-25 20:00 18.35 513000 1250000 (2019) 427000 (2016) 704000 427000 448000 570000 1100000 1250000
2020-06-25 19:00 18.37 514000 1250000 (2019) 427000 (2016) 704000 427000 448000 570000 1100000 1250000
2020-06-25 18:00 18.34 513000 1250000 (2019) 427000 (2016) 704000 427000 448000 570000 1100000 1250000
2020-06-25 17:00 18.20 510000 1250000 (2019) 427000 (2016) 704000 427000 448000 570000 1100000 1250000
2020-06-25 16:00 18.40 515000 1250000 (2019) 427000 (2016) 704000 427000 448000 570000 1100000 1250000
2020-06-25 15:00 18.44 516000 1250000 (2019) 427000 (2016) 704000 427000 448000 570000 1100000 1250000
2020-06-25 14:00 18.46 516000 1250000 (2019) 427000 (2016) 704000 427000 448000 570000 1100000 1250000
2020-06-25 13:00 18.46 516000 1250000 (2019) 427000 (2016) 704000 427000 448000 570000 1100000 1250000
2020-06-25 12:00 18.46 516000 1250000 (2019) 427000 (2016) 704000 427000 448000 570000 1100000 1250000
2020-06-25 11:00 18.49 517000 1250000 (2019) 427000 (2016) 704000 427000 448000 570000 1100000 1250000
2020-06-25 10:00 18.54 518000 1250000 (2019) 427000 (2016) 704000 427000 448000 570000 1100000 1250000
2020-06-25 09:00 18.55 518000 1250000 (2019) 427000 (2016) 704000 427000 448000 570000 1100000 1250000
2020-06-25 08:00 18.55 518000 1250000 (2019) 427000 (2016) 704000 427000 448000 570000 1100000 1250000
2020-06-25 07:00 18.56 519000 1250000 (2019) 427000 (2016) 704000 427000 448000 570000 1100000 1250000
2020-06-25 06:00 18.60 520000 1250000 (2019) 427000 (2016) 704000 427000 448000 570000 1100000 1250000
2020-06-25 05:00 18.58 519000 1250000 (2019) 427000 (2016) 704000 427000 448000 570000 1100000 1250000
2020-06-25 04:00 18.61 520000 1250000 (2019) 427000 (2016) 704000 427000 448000 570000 1100000 1250000
2020-06-25 03:00 18.60 520000 1250000 (2019) 427000 (2016) 704000 427000 448000 570000 1100000 1250000
2020-06-25 02:00 18.63 521000 1250000 (2019) 427000 (2016) 704000 427000 448000 570000 1100000 1250000
2020-06-25 01:00 18.61 520000 1250000 (2019) 427000 (2016) 704000 427000 448000 570000 1100000 1250000
2020-06-25 00:00 18.64 521000 1250000 (2019) 427000 (2016) 704000 427000 448000 570000 1100000 1250000
2020-06-24 23:00 18.64 521000 1230000 (2019) 410000 (2016) 683000 410000 427000 545000 1080000 1230000
2020-06-24 22:00 18.63 521000 1230000 (2019) 410000 (2016) 683000 410000 427000 545000 1080000 1230000
2020-06-24 21:00 18.62 520000 1230000 (2019) 410000 (2016) 683000 410000 427000 545000 1080000 1230000
2020-06-24 20:00 18.64 521000 1230000 (2019) 410000 (2016) 683000 410000 427000 545000 1080000 1230000
2020-06-24 19:00 18.50 517000 1230000 (2019) 410000 (2016) 683000 410000 427000 545000 1080000 1230000
2020-06-24 18:00 18.66 521000 1230000 (2019) 410000 (2016) 683000 410000 427000 545000 1080000 1230000
2020-06-24 17:00 18.67 522000 1230000 (2019) 410000 (2016) 683000 410000 427000 545000 1080000 1230000
2020-06-24 16:00 18.65 521000 1230000 (2019) 410000 (2016) 683000 410000 427000 545000 1080000 1230000
2020-06-24 15:00 18.64 521000 1230000 (2019) 410000 (2016) 683000 410000 427000 545000 1080000 1230000
2020-06-24 13:00 18.64 521000 1230000 (2019) 410000 (2016) 683000 410000 427000 545000 1080000 1230000
2020-06-24 12:00 18.64 521000 1230000 (2019) 410000 (2016) 683000 410000 427000 545000 1080000 1230000
2020-06-24 11:00 18.66 521000 1230000 (2019) 410000 (2016) 683000 410000 427000 545000 1080000 1230000
2020-06-24 10:00 18.63 521000 1230000 (2019) 410000 (2016) 683000 410000 427000 545000 1080000 1230000
2020-06-24 09:00 18.66 521000 1230000 (2019) 410000 (2016) 683000 410000 427000 545000 1080000 1230000
2020-06-24 08:00 18.61 520000 1230000 (2019) 410000 (2016) 683000 410000 427000 545000 1080000 1230000
2020-06-24 07:00 18.60 520000 1230000 (2019) 410000 (2016) 683000 410000 427000 545000 1080000 1230000
2020-06-24 06:00 18.59 519000 1230000 (2019) 410000 (2016) 683000 410000 427000 545000 1080000 1230000
2020-06-24 05:00 18.56 519000 1230000 (2019) 410000 (2016) 683000 410000 427000 545000 1080000 1230000
2020-06-24 04:00 18.47 516000 1230000 (2019) 410000 (2016) 683000 410000 427000 545000 1080000 1230000
2020-06-24 03:00 18.45 516000 1230000 (2019) 410000 (2016) 683000 410000 427000 545000 1080000 1230000
2020-06-24 02:00 18.41 515000 1230000 (2019) 410000 (2016) 683000 410000 427000 545000 1080000 1230000
2020-06-24 01:00 18.37 514000 1230000 (2019) 410000 (2016) 683000 410000 427000 545000 1080000 1230000
2020-06-24 00:00 18.37 514000 1230000 (2019) 410000 (2016) 683000 410000 427000 545000 1080000 1230000
2020-06-23 23:00 18.30 512000 1200000 (2019) 409000 (2016) 664000 409000 424000 524000 1040000 1200000
2020-06-23 22:00 18.13 508000 1200000 (2019) 409000 (2016) 664000 409000 424000 524000 1040000 1200000
2020-06-23 21:00 18.30 512000 1200000 (2019) 409000 (2016) 664000 409000 424000 524000 1040000 1200000
2020-06-23 20:00 18.26 511000 1200000 (2019) 409000 (2016) 664000 409000 424000 524000 1040000 1200000
2020-06-23 19:00 18.26 511000 1200000 (2019) 409000 (2016) 664000 409000 424000 524000 1040000 1200000
2020-06-23 18:00 18.24 511000 1200000 (2019) 409000 (2016) 664000 409000 424000 524000 1040000 1200000
2020-06-23 17:00 18.23 510000 1200000 (2019) 409000 (2016) 664000 409000 424000 524000 1040000 1200000
2020-06-23 16:00 18.22 510000 1200000 (2019) 409000 (2016) 664000 409000 424000 524000 1040000 1200000
2020-06-23 15:00 17.87 501000 1200000 (2019) 409000 (2016) 664000 409000 424000 524000 1040000 1200000
2020-06-23 14:00 18.20 510000 1200000 (2019) 409000 (2016) 664000 409000 424000 524000 1040000 1200000
2020-06-23 13:00 17.99 504000 1200000 (2019) 409000 (2016) 664000 409000 424000 524000 1040000 1200000
2020-06-23 12:00 18.16 509000 1200000 (2019) 409000 (2016) 664000 409000 424000 524000 1040000 1200000
2020-06-23 11:00 18.16 509000 1200000 (2019) 409000 (2016) 664000 409000 424000 524000 1040000 1200000
2020-06-23 10:00 18.12 508000 1200000 (2019) 409000 (2016) 664000 409000 424000 524000 1040000 1200000
2020-06-23 09:00 18.09 507000 1200000 (2019) 409000 (2016) 664000 409000 424000 524000 1040000 1200000
2020-06-23 08:00 18.07 506000 1200000 (2019) 409000 (2016) 664000 409000 424000 524000 1040000 1200000
2020-06-23 07:00 18.09 507000 1200000 (2019) 409000 (2016) 664000 409000 424000 524000 1040000 1200000
2020-06-23 06:00 18.05 506000 1200000 (2019) 409000 (2016) 664000 409000 424000 524000 1040000 1200000
2020-06-23 05:00 17.82 500000 1200000 (2019) 409000 (2016) 664000 409000 424000 524000 1040000 1200000
2020-06-23 04:00 17.82 500000 1200000 (2019) 409000 (2016) 664000 409000 424000 524000 1040000 1200000
2020-06-23 03:00 17.88 502000 1200000 (2019) 409000 (2016) 664000 409000 424000 524000 1040000 1200000
2020-06-23 02:00 17.87 501000 1200000 (2019) 409000 (2016) 664000 409000 424000 524000 1040000 1200000
2020-06-23 01:00 17.87 501000 1200000 (2019) 409000 (2016) 664000 409000 424000 524000 1040000 1200000
2020-06-23 00:00 17.70 497000 1200000 (2019) 409000 (2016) 664000 409000 424000 524000 1040000 1200000
2020-06-22 23:00 17.80 500000 1180000 (2019) 432000 (2016) 659000 432000 442000 512000 1020000 1180000
2020-06-22 22:00 17.83 500000 1180000 (2019) 432000 (2016) 659000 432000 442000 512000 1020000 1180000
2020-06-22 21:00 17.83 500000 1180000 (2019) 432000 (2016) 659000 432000 442000 512000 1020000 1180000
2020-06-22 20:00 17.83 500000 1180000 (2019) 432000 (2016) 659000 432000 442000 512000 1020000 1180000
2020-06-22 19:00 17.30 487000 1180000 (2019) 432000 (2016) 659000 432000 442000 512000 1020000 1180000
2020-06-22 18:00 17.24 486000 1180000 (2019) 432000 (2016) 659000 432000 442000 512000 1020000 1180000
2020-06-22 17:00 17.75 498000 1180000 (2019) 432000 (2016) 659000 432000 442000 512000 1020000 1180000
2020-06-22 16:00 17.43 490000 1180000 (2019) 432000 (2016) 659000 432000 442000 512000 1020000 1180000
2020-06-22 15:00 17.77 499000 1180000 (2019) 432000 (2016) 659000 432000 442000 512000 1020000 1180000
2020-06-22 14:00 17.80 500000 1180000 (2019) 432000 (2016) 659000 432000 442000 512000 1020000 1180000
2020-06-22 13:00 17.87 501000 1180000 (2019) 432000 (2016) 659000 432000 442000 512000 1020000 1180000
2020-06-22 12:00 17.45 491000 1180000 (2019) 432000 (2016) 659000 432000 442000 512000 1020000 1180000
2020-06-22 11:00 17.86 501000 1180000 (2019) 432000 (2016) 659000 432000 442000 512000 1020000 1180000
2020-06-22 10:00 17.73 498000 1180000 (2019) 432000 (2016) 659000 432000 442000 512000 1020000 1180000
2020-06-22 09:00 17.94 503000 1180000 (2019) 432000 (2016) 659000 432000 442000 512000 1020000 1180000
2020-06-22 08:00 17.91 502000 1180000 (2019) 432000 (2016) 659000 432000 442000 512000 1020000 1180000
2020-06-22 07:00 17.90 502000 1180000 (2019) 432000 (2016) 659000 432000 442000 512000 1020000 1180000
2020-06-22 06:00 17.95 503000 1180000 (2019) 432000 (2016) 659000 432000 442000 512000 1020000 1180000
2020-06-22 05:00 17.45 491000 1180000 (2019) 432000 (2016) 659000 432000 442000 512000 1020000 1180000
2020-06-22 04:00 17.89 502000 1180000 (2019) 432000 (2016) 659000 432000 442000 512000 1020000 1180000
2020-06-22 03:00 17.99 504000 1180000 (2019) 432000 (2016) 659000 432000 442000 512000 1020000 1180000
2020-06-22 02:00 18.05 506000 1180000 (2019) 432000 (2016) 659000 432000 442000 512000 1020000 1180000
2020-06-22 01:00 18.03 505000 1180000 (2019) 432000 (2016) 659000 432000 442000 512000 1020000 1180000
2020-06-22 00:00 18.01 505000 1180000 (2019) 432000 (2016) 659000 432000 442000 512000 1020000 1180000
2020-06-21 23:00 18.06 506000 1150000 (2019) 436000 (2016) 651000 436000 449000 510000 995000 1150000
2020-06-21 22:00 18.04 506000 1150000 (2019) 436000 (2016) 651000 436000 449000 510000 995000 1150000
2020-06-21 21:00 18.04 506000 1150000 (2019) 436000 (2016) 651000 436000 449000 510000 995000 1150000
2020-06-21 20:00 18.06 506000 1150000 (2019) 436000 (2016) 651000 436000 449000 510000 995000 1150000
2020-06-21 19:00 18.04 506000 1150000 (2019) 436000 (2016) 651000 436000 449000 510000 995000 1150000
2020-06-21 18:00 18.05 506000 1150000 (2019) 436000 (2016) 651000 436000 449000 510000 995000 1150000
2020-06-21 17:00 18.03 505000 1150000 (2019) 436000 (2016) 651000 436000 449000 510000 995000 1150000
2020-06-21 16:00 18.06 506000 1150000 (2019) 436000 (2016) 651000 436000 449000 510000 995000 1150000
2020-06-21 15:00 18.04 506000 1150000 (2019) 436000 (2016) 651000 436000 449000 510000 995000 1150000
2020-06-21 14:00 17.90 502000 1150000 (2019) 436000 (2016) 651000 436000 449000 510000 995000 1150000
2020-06-21 13:00 18.07 506000 1150000 (2019) 436000 (2016) 651000 436000 449000 510000 995000 1150000
2020-06-21 12:00 18.11 507000 1150000 (2019) 436000 (2016) 651000 436000 449000 510000 995000 1150000
2020-06-21 11:00 18.13 508000 1150000 (2019) 436000 (2016) 651000 436000 449000 510000 995000 1150000
2020-06-21 10:00 18.15 508000 1150000 (2019) 436000 (2016) 651000 436000 449000 510000 995000 1150000
2020-06-21 09:00 18.15 508000 1150000 (2019) 436000 (2016) 651000 436000 449000 510000 995000 1150000
2020-06-21 08:00 18.16 509000 1150000 (2019) 436000 (2016) 651000 436000 449000 510000 995000 1150000
2020-06-21 07:00 18.11 507000 1150000 (2019) 436000 (2016) 651000 436000 449000 510000 995000 1150000
2020-06-21 06:00 18.17 509000 1150000 (2019) 436000 (2016) 651000 436000 449000 510000 995000 1150000
2020-06-21 05:00 18.15 508000 1150000 (2019) 436000 (2016) 651000 436000 449000 510000 995000 1150000
2020-06-21 04:00 18.14 508000 1150000 (2019) 436000 (2016) 651000 436000 449000 510000 995000 1150000
2020-06-21 03:00 18.17 509000 1150000 (2019) 436000 (2016) 651000 436000 449000 510000 995000 1150000
2020-06-21 02:00 18.19 509000 1150000 (2019) 436000 (2016) 651000 436000 449000 510000 995000 1150000
2020-06-21 01:00 18.17 509000 1150000 (2019) 436000 (2016) 651000 436000 449000 510000 995000 1150000
2020-06-21 00:00 18.19 509000 1150000 (2019) 436000 (2016) 651000 436000 449000 510000 995000 1150000
2020-06-20 23:00 18.18 509000 1120000 (2019) 425000 (2016) 644000 425000 448000 515000 969000 1120000
2020-06-20 22:00 18.18 509000 1120000 (2019) 425000 (2016) 644000 425000 448000 515000 969000 1120000
2020-06-20 21:00 17.13 483000 1120000 (2019) 425000 (2016) 644000 425000 448000 515000 969000 1120000
2020-06-20 20:00 17.95 503000 1120000 (2019) 425000 (2016) 644000 425000 448000 515000 969000 1120000
2020-06-20 19:00 18.23 510000 1120000 (2019) 425000 (2016) 644000 425000 448000 515000 969000 1120000
2020-06-20 18:00 18.27 511000 1120000 (2019) 425000 (2016) 644000 425000 448000 515000 969000 1120000
2020-06-20 17:00 18.23 510000 1120000 (2019) 425000 (2016) 644000 425000 448000 515000 969000 1120000
2020-06-20 16:00 18.28 512000 1120000 (2019) 425000 (2016) 644000 425000 448000 515000 969000 1120000
2020-06-20 15:00 18.11 507000 1120000 (2019) 425000 (2016) 644000 425000 448000 515000 969000 1120000
2020-06-20 14:00 18.32 513000 1120000 (2019) 425000 (2016) 644000 425000 448000 515000 969000 1120000
2020-06-20 13:00 18.36 514000 1120000 (2019) 425000 (2016) 644000 425000 448000 515000 969000 1120000
2020-06-20 12:00 18.37 514000 1120000 (2019) 425000 (2016) 644000 425000 448000 515000 969000 1120000
2020-06-20 11:00 17.64 496000 1120000 (2019) 425000 (2016) 644000 425000 448000 515000 969000 1120000
2020-06-20 10:00 18.39 514000 1120000 (2019) 425000 (2016) 644000 425000 448000 515000 969000 1120000
2020-06-20 09:00 18.24 511000 1120000 (2019) 425000 (2016) 644000 425000 448000 515000 969000 1120000
2020-06-20 08:00 18.43 515000 1120000 (2019) 425000 (2016) 644000 425000 448000 515000 969000 1120000
2020-06-20 07:00 18.46 516000 1120000 (2019) 425000 (2016) 644000 425000 448000 515000 969000 1120000
2020-06-20 06:00 18.49 517000 1120000 (2019) 425000 (2016) 644000 425000 448000 515000 969000 1120000
2020-06-20 05:00 18.51 517000 1120000 (2019) 425000 (2016) 644000 425000 448000 515000 969000 1120000
2020-06-20 04:00 18.52 518000 1120000 (2019) 425000 (2016) 644000 425000 448000 515000 969000 1120000
2020-06-20 03:00 18.54 518000 1120000 (2019) 425000 (2016) 644000 425000 448000 515000 969000 1120000
2020-06-20 02:00 18.59 519000 1120000 (2019) 425000 (2016) 644000 425000 448000 515000 969000 1120000
2020-06-20 01:00 18.60 520000 1120000 (2019) 425000 (2016) 644000 425000 448000 515000 969000 1120000
2020-06-20 00:00 18.62 520000 1120000 (2019) 425000 (2016) 644000 425000 448000 515000 969000 1120000
2020-06-19 23:00 18.62 520000 1110000 (2019) 413000 (2016) 643000 413000 437000 524000 967000 1110000
2020-06-19 22:00 18.62 520000 1110000 (2019) 413000 (2016) 643000 413000 437000 524000 967000 1110000
2020-06-19 21:00 18.65 521000 1110000 (2019) 413000 (2016) 643000 413000 437000 524000 967000 1110000
2020-06-19 20:00 18.63 521000 1110000 (2019) 413000 (2016) 643000 413000 437000 524000 967000 1110000
2020-06-19 19:00 18.75 524000 1110000 (2019) 413000 (2016) 643000 413000 437000 524000 967000 1110000
2020-06-19 18:00 18.70 522000 1110000 (2019) 413000 (2016) 643000 413000 437000 524000 967000 1110000
2020-06-19 17:00 18.70 522000 1110000 (2019) 413000 (2016) 643000 413000 437000 524000 967000 1110000
2020-06-19 16:00 18.74 523000 1110000 (2019) 413000 (2016) 643000 413000 437000 524000 967000 1110000
2020-06-19 15:00 18.77 524000 1110000 (2019) 413000 (2016) 643000 413000 437000 524000 967000 1110000
2020-06-19 14:00 18.77 524000 1110000 (2019) 413000 (2016) 643000 413000 437000 524000 967000 1110000
2020-06-19 13:00 18.82 525000 1110000 (2019) 413000 (2016) 643000 413000 437000 524000 967000 1110000
2020-06-19 11:00 18.82 525000 1110000 (2019) 413000 (2016) 643000 413000 437000 524000 967000 1110000
2020-06-19 10:00 18.82 525000 1110000 (2019) 413000 (2016) 643000 413000 437000 524000 967000 1110000
2020-06-19 09:00 18.88 527000 1110000 (2019) 413000 (2016) 643000 413000 437000 524000 967000 1110000
2020-06-19 08:00 18.92 528000 1110000 (2019) 413000 (2016) 643000 413000 437000 524000 967000 1110000
2020-06-19 07:00 18.96 529000 1110000 (2019) 413000 (2016) 643000 413000 437000 524000 967000 1110000
2020-06-19 06:00 18.98 530000 1110000 (2019) 413000 (2016) 643000 413000 437000 524000 967000 1110000
2020-06-19 05:00 19.00 530000 1110000 (2019) 413000 (2016) 643000 413000 437000 524000 967000 1110000
2020-06-19 04:00 19.04 531000 1110000 (2019) 413000 (2016) 643000 413000 437000 524000 967000 1110000
2020-06-19 03:00 19.05 532000 1110000 (2019) 413000 (2016) 643000 413000 437000 524000 967000 1110000
2020-06-19 02:00 19.08 532000 1110000 (2019) 413000 (2016) 643000 413000 437000 524000 967000 1110000
2020-06-19 01:00 19.08 532000 1110000 (2019) 413000 (2016) 643000 413000 437000 524000 967000 1110000
2020-06-19 00:00 19.09 533000 1110000 (2019) 413000 (2016) 643000 413000 437000 524000 967000 1110000
2020-06-18 23:00 19.14 534000 1110000 (2019) 409000 (2016) 642000 409000 434000 524000 967000 1110000
2020-06-18 22:00 19.15 534000 1110000 (2019) 409000 (2016) 642000 409000 434000 524000 967000 1110000
2020-06-18 21:00 19.17 535000 1110000 (2019) 409000 (2016) 642000 409000 434000 524000 967000 1110000
2020-06-18 20:00 19.22 536000 1110000 (2019) 409000 (2016) 642000 409000 434000 524000 967000 1110000
2020-06-18 19:00 19.22 536000 1110000 (2019) 409000 (2016) 642000 409000 434000 524000 967000 1110000
2020-06-18 18:00 19.23 537000 1110000 (2019) 409000 (2016) 642000 409000 434000 524000 967000 1110000
2020-06-18 16:00 19.28 538000 1110000 (2019) 409000 (2016) 642000 409000 434000 524000 967000 1110000
2020-06-18 15:00 19.12 534000 1110000 (2019) 409000 (2016) 642000 409000 434000 524000 967000 1110000
2020-06-18 14:00 19.31 539000 1110000 (2019) 409000 (2016) 642000 409000 434000 524000 967000 1110000
2020-06-18 13:00 19.35 540000 1110000 (2019) 409000 (2016) 642000 409000 434000 524000 967000 1110000
2020-06-18 12:00 19.41 542000 1110000 (2019) 409000 (2016) 642000 409000 434000 524000 967000 1110000
2020-06-18 11:00 19.43 542000 1110000 (2019) 409000 (2016) 642000 409000 434000 524000 967000 1110000
2020-06-18 10:00 19.07 532000 1110000 (2019) 409000 (2016) 642000 409000 434000 524000 967000 1110000
2020-06-18 09:00 19.49 544000 1110000 (2019) 409000 (2016) 642000 409000 434000 524000 967000 1110000
2020-06-18 08:00 19.52 545000 1110000 (2019) 409000 (2016) 642000 409000 434000 524000 967000 1110000
2020-06-18 07:00 19.55 545000 1110000 (2019) 409000 (2016) 642000 409000 434000 524000 967000 1110000
2020-06-18 06:00 19.62 547000 1110000 (2019) 409000 (2016) 642000 409000 434000 524000 967000 1110000
2020-06-18 05:00 19.66 549000 1110000 (2019) 409000 (2016) 642000 409000 434000 524000 967000 1110000
2020-06-18 04:00 19.67 549000 1110000 (2019) 409000 (2016) 642000 409000 434000 524000 967000 1110000
2020-06-18 03:00 19.69 549000 1110000 (2019) 409000 (2016) 642000 409000 434000 524000 967000 1110000
2020-06-18 02:00 19.70 550000 1110000 (2019) 409000 (2016) 642000 409000 434000 524000 967000 1110000
2020-06-18 01:00 19.74 551000 1110000 (2019) 409000 (2016) 642000 409000 434000 524000 967000 1110000
2020-06-18 00:00 19.80 552000 1110000 (2019) 409000 (2016) 642000 409000 434000 524000 967000 1110000
2020-06-17 23:00 19.84 554000 1120000 (2019) 412000 (2016) 645000 412000 438000 524000 974000 1120000
2020-06-17 22:00 19.87 554000 1120000 (2019) 412000 (2016) 645000 412000 438000 524000 974000 1120000
2020-06-17 21:00 19.93 556000 1120000 (2019) 412000 (2016) 645000 412000 438000 524000 974000 1120000
2020-06-17 20:00 19.99 558000 1120000 (2019) 412000 (2016) 645000 412000 438000 524000 974000 1120000
2020-06-17 19:00 20.01 558000 1120000 (2019) 412000 (2016) 645000 412000 438000 524000 974000 1120000
2020-06-17 18:00 20.03 559000 1120000 (2019) 412000 (2016) 645000 412000 438000 524000 974000 1120000
2020-06-17 17:00 20.05 559000 1120000 (2019) 412000 (2016) 645000 412000 438000 524000 974000 1120000
2020-06-17 16:00 20.17 563000 1120000 (2019) 412000 (2016) 645000 412000 438000 524000 974000 1120000
2020-06-17 15:00 20.17 563000 1120000 (2019) 412000 (2016) 645000 412000 438000 524000 974000 1120000
2020-06-17 13:00 20.29 566000 1120000 (2019) 412000 (2016) 645000 412000 438000 524000 974000 1120000
2020-06-17 12:00 20.37 568000 1120000 (2019) 412000 (2016) 645000 412000 438000 524000 974000 1120000
2020-06-17 11:00 20.42 570000 1120000 (2019) 412000 (2016) 645000 412000 438000 524000 974000 1120000
2020-06-17 10:00 20.46 571000 1120000 (2019) 412000 (2016) 645000 412000 438000 524000 974000 1120000
2020-06-17 09:00 20.50 572000 1120000 (2019) 412000 (2016) 645000 412000 438000 524000 974000 1120000
2020-06-17 08:00 20.55 574000 1120000 (2019) 412000 (2016) 645000 412000 438000 524000 974000 1120000
2020-06-17 07:00 20.59 575000 1120000 (2019) 412000 (2016) 645000 412000 438000 524000 974000 1120000
2020-06-17 06:00 20.61 575000 1120000 (2019) 412000 (2016) 645000 412000 438000 524000 974000 1120000
2020-06-17 05:00 20.66 577000 1120000 (2019) 412000 (2016) 645000 412000 438000 524000 974000 1120000
2020-06-17 04:00 20.70 578000 1120000 (2019) 412000 (2016) 645000 412000 438000 524000 974000 1120000
2020-06-17 03:00 20.69 578000 1120000 (2019) 412000 (2016) 645000 412000 438000 524000 974000 1120000
2020-06-17 02:00 20.74 579000 1120000 (2019) 412000 (2016) 645000 412000 438000 524000 974000 1120000
2020-06-17 01:00 20.80 581000 1120000 (2019) 412000 (2016) 645000 412000 438000 524000 974000 1120000
2020-06-17 00:00 20.82 581000 1120000 (2019) 412000 (2016) 645000 412000 438000 524000 974000 1120000
2020-06-16 23:00 20.86 582000 1130000 (2019) 420000 (2016) 649000 420000 444000 523000 980000 1130000
2020-06-16 22:00 20.87 583000 1130000 (2019) 420000 (2016) 649000 420000 444000 523000 980000 1130000
2020-06-16 21:00 20.90 584000 1130000 (2019) 420000 (2016) 649000 420000 444000 523000 980000 1130000
2020-06-16 20:00 20.97 586000 1130000 (2019) 420000 (2016) 649000 420000 444000 523000 980000 1130000
2020-06-16 19:00 21.02 587000 1130000 (2019) 420000 (2016) 649000 420000 444000 523000 980000 1130000
2020-06-16 18:00 21.00 587000 1130000 (2019) 420000 (2016) 649000 420000 444000 523000 980000 1130000
2020-06-16 17:00 21.02 587000 1130000 (2019) 420000 (2016) 649000 420000 444000 523000 980000 1130000
2020-06-16 16:00 21.07 589000 1130000 (2019) 420000 (2016) 649000 420000 444000 523000 980000 1130000
2020-06-16 15:00 21.14 591000 1130000 (2019) 420000 (2016) 649000 420000 444000 523000 980000 1130000
2020-06-16 14:00 21.21 593000 1130000 (2019) 420000 (2016) 649000 420000 444000 523000 980000 1130000
2020-06-16 13:00 21.22 593000 1130000 (2019) 420000 (2016) 649000 420000 444000 523000 980000 1130000
2020-06-16 12:00 21.27 595000 1130000 (2019) 420000 (2016) 649000 420000 444000 523000 980000 1130000
2020-06-16 11:00 21.28 595000 1130000 (2019) 420000 (2016) 649000 420000 444000 523000 980000 1130000
2020-06-16 10:00 21.33 597000 1130000 (2019) 420000 (2016) 649000 420000 444000 523000 980000 1130000
2020-06-16 09:00 21.36 598000 1130000 (2019) 420000 (2016) 649000 420000 444000 523000 980000 1130000
2020-06-16 08:00 21.43 600000 1130000 (2019) 420000 (2016) 649000 420000 444000 523000 980000 1130000
2020-06-16 07:00 21.48 602000 1130000 (2019) 420000 (2016) 649000 420000 444000 523000 980000 1130000
2020-06-16 06:00 21.51 603000 1130000 (2019) 420000 (2016) 649000 420000 444000 523000 980000 1130000
2020-06-16 05:00 21.52 603000 1130000 (2019) 420000 (2016) 649000 420000 444000 523000 980000 1130000
2020-06-16 04:00 21.36 598000 1130000 (2019) 420000 (2016) 649000 420000 444000 523000 980000 1130000
2020-06-16 03:00 21.60 605000 1130000 (2019) 420000 (2016) 649000 420000 444000 523000 980000 1130000
2020-06-16 02:00 21.62 606000 1130000 (2019) 420000 (2016) 649000 420000 444000 523000 980000 1130000
2020-06-16 01:00 21.65 607000 1130000 (2019) 420000 (2016) 649000 420000 444000 523000 980000 1130000
2020-06-16 00:00 21.70 609000 1130000 (2019) 420000 (2016) 649000 420000 444000 523000 980000 1130000
2020-06-15 23:00 21.72 609000 1140000 (2019) 419000 (2016) 650000 419000 434000 521000 996000 1140000
2020-06-15 22:00 21.75 610000 1140000 (2019) 419000 (2016) 650000 419000 434000 521000 996000 1140000
2020-06-15 21:00 21.77 611000 1140000 (2019) 419000 (2016) 650000 419000 434000 521000 996000 1140000
2020-06-15 20:00 21.79 611000 1140000 (2019) 419000 (2016) 650000 419000 434000 521000 996000 1140000
2020-06-15 19:00 21.80 612000 1140000 (2019) 419000 (2016) 650000 419000 434000 521000 996000 1140000
2020-06-15 18:00 21.85 613000 1140000 (2019) 419000 (2016) 650000 419000 434000 521000 996000 1140000
2020-06-15 17:00 21.87 614000 1140000 (2019) 419000 (2016) 650000 419000 434000 521000 996000 1140000
2020-06-15 16:00 21.92 616000 1140000 (2019) 419000 (2016) 650000 419000 434000 521000 996000 1140000
2020-06-15 15:00 21.88 614000 1140000 (2019) 419000 (2016) 650000 419000 434000 521000 996000 1140000
2020-06-15 14:00 21.96 617000 1140000 (2019) 419000 (2016) 650000 419000 434000 521000 996000 1140000
2020-06-15 13:00 21.99 618000 1140000 (2019) 419000 (2016) 650000 419000 434000 521000 996000 1140000
2020-06-15 12:00 22.05 620000 1140000 (2019) 419000 (2016) 650000 419000 434000 521000 996000 1140000
2020-06-15 11:00 22.08 621000 1140000 (2019) 419000 (2016) 650000 419000 434000 521000 996000 1140000
2020-06-15 10:00 22.07 620000 1140000 (2019) 419000 (2016) 650000 419000 434000 521000 996000 1140000
2020-06-15 09:00 22.11 622000 1140000 (2019) 419000 (2016) 650000 419000 434000 521000 996000 1140000
2020-06-15 08:00 22.16 623000 1140000 (2019) 419000 (2016) 650000 419000 434000 521000 996000 1140000
2020-06-15 07:00 22.20 625000 1140000 (2019) 419000 (2016) 650000 419000 434000 521000 996000 1140000
2020-06-15 06:00 22.20 625000 1140000 (2019) 419000 (2016) 650000 419000 434000 521000 996000 1140000
2020-06-15 05:00 22.24 626000 1140000 (2019) 419000 (2016) 650000 419000 434000 521000 996000 1140000
2020-06-15 04:00 22.28 627000 1140000 (2019) 419000 (2016) 650000 419000 434000 521000 996000 1140000
2020-06-15 03:00 22.30 628000 1140000 (2019) 419000 (2016) 650000 419000 434000 521000 996000 1140000
2020-06-15 02:00 22.33 629000 1140000 (2019) 419000 (2016) 650000 419000 434000 521000 996000 1140000
2020-06-15 01:00 22.38 630000 1140000 (2019) 419000 (2016) 650000 419000 434000 521000 996000 1140000
2020-06-15 00:00 22.40 631000 1140000 (2019) 419000 (2016) 650000 419000 434000 521000 996000 1140000
2020-06-14 23:00 22.43 632000 1160000 (2019) 430000 (2016) 658000 430000 434000 521000 1020000 1160000
2020-06-14 22:00 22.45 633000 1160000 (2019) 430000 (2016) 658000 430000 434000 521000 1020000 1160000
2020-06-14 21:00 22.50 634000 1160000 (2019) 430000 (2016) 658000 430000 434000 521000 1020000 1160000
2020-06-14 20:00 22.53 635000 1160000 (2019) 430000 (2016) 658000 430000 434000 521000 1020000 1160000
2020-06-14 19:00 22.58 637000 1160000 (2019) 430000 (2016) 658000 430000 434000 521000 1020000 1160000
2020-06-14 18:00 22.62 638000 1160000 (2019) 430000 (2016) 658000 430000 434000 521000 1020000 1160000
2020-06-14 17:00 22.66 640000 1160000 (2019) 430000 (2016) 658000 430000 434000 521000 1020000 1160000
2020-06-14 16:00 22.46 633000 1160000 (2019) 430000 (2016) 658000 430000 434000 521000 1020000 1160000
2020-06-14 15:00 22.31 628000 1160000 (2019) 430000 (2016) 658000 430000 434000 521000 1020000 1160000
2020-06-14 14:00 22.62 638000 1160000 (2019) 430000 (2016) 658000 430000 434000 521000 1020000 1160000
2020-06-14 13:00 22.86 646000 1160000 (2019) 430000 (2016) 658000 430000 434000 521000 1020000 1160000
2020-06-14 12:00 22.86 646000 1160000 (2019) 430000 (2016) 658000 430000 434000 521000 1020000 1160000
2020-06-14 11:00 23.01 651000 1160000 (2019) 430000 (2016) 658000 430000 434000 521000 1020000 1160000
2020-06-14 10:00 23.10 654000 1160000 (2019) 430000 (2016) 658000 430000 434000 521000 1020000 1160000
2020-06-14 08:00 23.19 657000 1160000 (2019) 430000 (2016) 658000 430000 434000 521000 1020000 1160000
2020-06-14 07:00 23.24 659000 1160000 (2019) 430000 (2016) 658000 430000 434000 521000 1020000 1160000
2020-06-14 06:00 23.30 661000 1160000 (2019) 430000 (2016) 658000 430000 434000 521000 1020000 1160000
2020-06-14 05:00 23.33 662000 1160000 (2019) 430000 (2016) 658000 430000 434000 521000 1020000 1160000
2020-06-14 04:00 23.36 663000 1160000 (2019) 430000 (2016) 658000 430000 434000 521000 1020000 1160000
2020-06-14 03:00 23.42 665000 1160000 (2019) 430000 (2016) 658000 430000 434000 521000 1020000 1160000
2020-06-14 02:00 23.46 666000 1160000 (2019) 430000 (2016) 658000 430000 434000 521000 1020000 1160000
2020-06-14 01:00 23.50 667000 1160000 (2019) 430000 (2016) 658000 430000 434000 521000 1020000 1160000
2020-06-14 00:00 23.52 668000 1160000 (2019) 430000 (2016) 658000 430000 434000 521000 1020000 1160000
2020-06-13 23:00 23.57 670000 1160000 (2019) 425000 (2018) 667000 425000 431000 541000 1030000 1160000
2020-06-13 22:00 23.62 671000 1160000 (2019) 425000 (2018) 667000 425000 431000 541000 1030000 1160000
2020-06-13 21:00 23.42 665000 1160000 (2019) 425000 (2018) 667000 425000 431000 541000 1030000 1160000
2020-06-13 20:00 23.73 675000 1160000 (2019) 425000 (2018) 667000 425000 431000 541000 1030000 1160000
2020-06-13 19:00 23.78 677000 1160000 (2019) 425000 (2018) 667000 425000 431000 541000 1030000 1160000
2020-06-13 18:00 23.15 656000 1160000 (2019) 425000 (2018) 667000 425000 431000 541000 1030000 1160000
2020-06-13 17:00 23.88 680000 1160000 (2019) 425000 (2018) 667000 425000 431000 541000 1030000 1160000
2020-06-13 16:00 23.93 682000 1160000 (2019) 425000 (2018) 667000 425000 431000 541000 1030000 1160000
2020-06-13 15:00 23.77 676000 1160000 (2019) 425000 (2018) 667000 425000 431000 541000 1030000 1160000
2020-06-13 14:00 23.50 667000 1160000 (2019) 425000 (2018) 667000 425000 431000 541000 1030000 1160000
2020-06-13 13:00 24.10 688000 1160000 (2019) 425000 (2018) 667000 425000 431000 541000 1030000 1160000
2020-06-13 12:00 24.12 688000 1160000 (2019) 425000 (2018) 667000 425000 431000 541000 1030000 1160000
2020-06-13 11:00 24.21 691000 1160000 (2019) 425000 (2018) 667000 425000 431000 541000 1030000 1160000
2020-06-13 10:00 24.30 694000 1160000 (2019) 425000 (2018) 667000 425000 431000 541000 1030000 1160000
2020-06-13 09:00 24.39 697000 1160000 (2019) 425000 (2018) 667000 425000 431000 541000 1030000 1160000
2020-06-13 08:00 24.43 699000 1160000 (2019) 425000 (2018) 667000 425000 431000 541000 1030000 1160000
2020-06-13 07:00 24.48 701000 1160000 (2019) 425000 (2018) 667000 425000 431000 541000 1030000 1160000
2020-06-13 06:00 24.60 705000 1160000 (2019) 425000 (2018) 667000 425000 431000 541000 1030000 1160000
2020-06-13 05:00 24.62 705000 1160000 (2019) 425000 (2018) 667000 425000 431000 541000 1030000 1160000
2020-06-13 04:00 24.65 706000 1160000 (2019) 425000 (2018) 667000 425000 431000 541000 1030000 1160000
2020-06-13 03:00 24.71 708000 1160000 (2019) 425000 (2018) 667000 425000 431000 541000 1030000 1160000
2020-06-13 02:00 24.76 710000 1160000 (2019) 425000 (2018) 667000 425000 431000 541000 1030000 1160000
2020-06-13 01:00 24.81 712000 1160000 (2019) 425000 (2018) 667000 425000 431000 541000 1030000 1160000
2020-06-13 00:00 24.85 713000 1160000 (2019) 425000 (2018) 667000 425000 431000 541000 1030000 1160000
2020-06-12 23:00 24.89 715000 1160000 (2019) 426000 (2018) 690000 426000 442000 587000 1040000 1160000
2020-06-12 22:00 24.96 717000 1160000 (2019) 426000 (2018) 690000 426000 442000 587000 1040000 1160000
2020-06-12 21:00 25.00 718000 1160000 (2019) 426000 (2018) 690000 426000 442000 587000 1040000 1160000
2020-06-12 20:00 25.05 720000 1160000 (2019) 426000 (2018) 690000 426000 442000 587000 1040000 1160000
2020-06-12 19:00 24.63 706000 1160000 (2019) 426000 (2018) 690000 426000 442000 587000 1040000 1160000
2020-06-12 18:00 25.16 724000 1160000 (2019) 426000 (2018) 690000 426000 442000 587000 1040000 1160000
2020-06-12 17:00 25.22 726000 1160000 (2019) 426000 (2018) 690000 426000 442000 587000 1040000 1160000
2020-06-12 16:00 25.29 729000 1160000 (2019) 426000 (2018) 690000 426000 442000 587000 1040000 1160000
2020-06-12 15:00 25.38 732000 1160000 (2019) 426000 (2018) 690000 426000 442000 587000 1040000 1160000
2020-06-12 14:00 25.43 734000 1160000 (2019) 426000 (2018) 690000 426000 442000 587000 1040000 1160000
2020-06-12 13:00 25.51 736000 1160000 (2019) 426000 (2018) 690000 426000 442000 587000 1040000 1160000
2020-06-12 12:00 25.59 739000 1160000 (2019) 426000 (2018) 690000 426000 442000 587000 1040000 1160000
2020-06-12 11:00 25.66 742000 1160000 (2019) 426000 (2018) 690000 426000 442000 587000 1040000 1160000
2020-06-12 10:00 25.71 743000 1160000 (2019) 426000 (2018) 690000 426000 442000 587000 1040000 1160000
2020-06-12 09:00 25.74 744000 1160000 (2019) 426000 (2018) 690000 426000 442000 587000 1040000 1160000
2020-06-12 08:00 25.82 747000 1160000 (2019) 426000 (2018) 690000 426000 442000 587000 1040000 1160000
2020-06-12 07:00 25.90 750000 1160000 (2019) 426000 (2018) 690000 426000 442000 587000 1040000 1160000
2020-06-12 06:00 25.96 752000 1160000 (2019) 426000 (2018) 690000 426000 442000 587000 1040000 1160000
2020-06-12 05:00 26.00 754000 1160000 (2019) 426000 (2018) 690000 426000 442000 587000 1040000 1160000
2020-06-12 04:00 26.05 756000 1160000 (2019) 426000 (2018) 690000 426000 442000 587000 1040000 1160000
2020-06-12 03:00 26.10 757000 1160000 (2019) 426000 (2018) 690000 426000 442000 587000 1040000 1160000
2020-06-12 02:00 26.12 758000 1160000 (2019) 426000 (2018) 690000 426000 442000 587000 1040000 1160000
2020-06-12 01:00 26.20 761000 1160000 (2019) 426000 (2018) 690000 426000 442000 587000 1040000 1160000
2020-06-12 00:00 26.23 762000 1160000 (2019) 426000 (2018) 690000 426000 442000 587000 1040000 1160000
2020-06-11 23:00 26.27 763000 1160000 (2019) 451000 (2018) 714000 451000 466000 622000 1050000 1160000
2020-06-11 22:00 26.30 764000 1160000 (2019) 451000 (2018) 714000 451000 466000 622000 1050000 1160000
2020-06-11 21:00 26.36 767000 1160000 (2019) 451000 (2018) 714000 451000 466000 622000 1050000 1160000
2020-06-11 20:00 26.40 768000 1160000 (2019) 451000 (2018) 714000 451000 466000 622000 1050000 1160000
2020-06-11 19:00 26.42 769000 1160000 (2019) 451000 (2018) 714000 451000 466000 622000 1050000 1160000
2020-06-11 18:00 26.46 770000 1160000 (2019) 451000 (2018) 714000 451000 466000 622000 1050000 1160000
2020-06-11 17:00 26.49 771000 1160000 (2019) 451000 (2018) 714000 451000 466000 622000 1050000 1160000
2020-06-11 16:00 26.53 773000 1160000 (2019) 451000 (2018) 714000 451000 466000 622000 1050000 1160000
2020-06-11 15:00 26.58 775000 1160000 (2019) 451000 (2018) 714000 451000 466000 622000 1050000 1160000
2020-06-11 14:00 26.62 776000 1160000 (2019) 451000 (2018) 714000 451000 466000 622000 1050000 1160000
2020-06-11 13:00 26.65 777000 1160000 (2019) 451000 (2018) 714000 451000 466000 622000 1050000 1160000
2020-06-11 12:00 26.70 779000 1160000 (2019) 451000 (2018) 714000 451000 466000 622000 1050000 1160000
2020-06-11 11:00 26.76 781000 1160000 (2019) 451000 (2018) 714000 451000 466000 622000 1050000 1160000
2020-06-11 10:00 26.78 782000 1160000 (2019) 451000 (2018) 714000 451000 466000 622000 1050000 1160000
2020-06-11 09:00 26.83 784000 1160000 (2019) 451000 (2018) 714000 451000 466000 622000 1050000 1160000
2020-06-11 08:00 26.58 775000 1160000 (2019) 451000 (2018) 714000 451000 466000 622000 1050000 1160000
2020-06-11 07:00 26.86 785000 1160000 (2019) 451000 (2018) 714000 451000 466000 622000 1050000 1160000
2020-06-11 06:00 26.87 785000 1160000 (2019) 451000 (2018) 714000 451000 466000 622000 1050000 1160000
2020-06-11 05:00 26.90 786000 1160000 (2019) 451000 (2018) 714000 451000 466000 622000 1050000 1160000
2020-06-11 04:00 26.88 786000 1160000 (2019) 451000 (2018) 714000 451000 466000 622000 1050000 1160000
2020-06-11 03:00 26.67 778000 1160000 (2019) 451000 (2018) 714000 451000 466000 622000 1050000 1160000
2020-06-11 02:00 26.92 787000 1160000 (2019) 451000 (2018) 714000 451000 466000 622000 1050000 1160000
2020-06-11 01:00 26.92 787000 1160000 (2019) 451000 (2018) 714000 451000 466000 622000 1050000 1160000
2020-06-11 00:00 26.97 789000 1160000 (2019) 451000 (2018) 714000 451000 466000 622000 1050000 1160000
2020-06-10 23:00 26.97 789000 1150000 (2019) 473000 (2018) 724000 473000 485000 636000 1050000 1150000
2020-06-10 22:00 26.72 780000 1150000 (2019) 473000 (2018) 724000 473000 485000 636000 1050000 1150000
2020-06-10 21:00 26.96 788000 1150000 (2019) 473000 (2018) 724000 473000 485000 636000 1050000 1150000
2020-06-10 20:00 26.69 779000 1150000 (2019) 473000 (2018) 724000 473000 485000 636000 1050000 1150000
2020-06-10 19:00 26.88 786000 1150000 (2019) 473000 (2018) 724000 473000 485000 636000 1050000 1150000
2020-06-10 18:00 26.86 785000 1150000 (2019) 473000 (2018) 724000 473000 485000 636000 1050000 1150000
2020-06-10 17:00 26.11 758000 1150000 (2019) 473000 (2018) 724000 473000 485000 636000 1050000 1150000
2020-06-10 16:00 26.62 776000 1150000 (2019) 473000 (2018) 724000 473000 485000 636000 1050000 1150000
2020-06-10 15:00 26.64 777000 1150000 (2019) 473000 (2018) 724000 473000 485000 636000 1050000 1150000
2020-06-10 14:00 26.90 786000 1150000 (2019) 473000 (2018) 724000 473000 485000 636000 1050000 1150000
2020-06-10 13:00 26.13 758000 1150000 (2019) 473000 (2018) 724000 473000 485000 636000 1050000 1150000
2020-06-10 12:00 26.67 778000 1150000 (2019) 473000 (2018) 724000 473000 485000 636000 1050000 1150000
2020-06-10 11:00 26.15 759000 1150000 (2019) 473000 (2018) 724000 473000 485000 636000 1050000 1150000
2020-06-10 10:00 26.69 779000 1150000 (2019) 473000 (2018) 724000 473000 485000 636000 1050000 1150000
2020-06-10 09:00 26.91 787000 1150000 (2019) 473000 (2018) 724000 473000 485000 636000 1050000 1150000
2020-06-10 08:00 25.79 746000 1150000 (2019) 473000 (2018) 724000 473000 485000 636000 1050000 1150000
2020-06-10 07:00 27.01 790000 1150000 (2019) 473000 (2018) 724000 473000 485000 636000 1050000 1150000
2020-06-10 05:00 27.17 796000 1150000 (2019) 473000 (2018) 724000 473000 485000 636000 1050000 1150000
2020-06-10 04:00 26.59 775000 1150000 (2019) 473000 (2018) 724000 473000 485000 636000 1050000 1150000
2020-06-10 03:00 27.17 796000 1150000 (2019) 473000 (2018) 724000 473000 485000 636000 1050000 1150000
2020-06-10 02:00 26.64 777000 1150000 (2019) 473000 (2018) 724000 473000 485000 636000 1050000 1150000
2020-06-10 01:00 27.15 795000 1150000 (2019) 473000 (2018) 724000 473000 485000 636000 1050000 1150000
2020-06-10 00:00 27.19 797000 1150000 (2019) 473000 (2018) 724000 473000 485000 636000 1050000 1150000
2020-06-09 23:00 26.99 790000 1150000 (2019) 492000 (2018) 733000 492000 502000 644000 1050000 1150000
2020-06-09 22:00 27.29 801000 1150000 (2019) 492000 (2018) 733000 492000 502000 644000 1050000 1150000
2020-06-09 21:00 26.73 780000 1150000 (2019) 492000 (2018) 733000 492000 502000 644000 1050000 1150000
2020-06-09 20:00 27.26 799000 1150000 (2019) 492000 (2018) 733000 492000 502000 644000 1050000 1150000
2020-06-09 19:00 27.28 800000 1150000 (2019) 492000 (2018) 733000 492000 502000 644000 1050000 1150000
2020-06-09 18:00 27.05 792000 1150000 (2019) 492000 (2018) 733000 492000 502000 644000 1050000 1150000
2020-06-09 17:00 27.31 801000 1150000 (2019) 492000 (2018) 733000 492000 502000 644000 1050000 1150000
2020-06-09 16:00 27.32 802000 1150000 (2019) 492000 (2018) 733000 492000 502000 644000 1050000 1150000
2020-06-09 15:00 27.36 803000 1150000 (2019) 492000 (2018) 733000 492000 502000 644000 1050000 1150000
2020-06-09 14:00 27.15 795000 1150000 (2019) 492000 (2018) 733000 492000 502000 644000 1050000 1150000
2020-06-09 13:00 27.43 806000 1150000 (2019) 492000 (2018) 733000 492000 502000 644000 1050000 1150000
2020-06-09 11:00 27.01 790000 1150000 (2019) 492000 (2018) 733000 492000 502000 644000 1050000 1150000
2020-06-09 10:00 27.59 812000 1150000 (2019) 492000 (2018) 733000 492000 502000 644000 1050000 1150000
2020-06-09 09:00 27.61 812000 1150000 (2019) 492000 (2018) 733000 492000 502000 644000 1050000 1150000
2020-06-09 08:00 27.64 814000 1150000 (2019) 492000 (2018) 733000 492000 502000 644000 1050000 1150000
2020-06-09 07:00 27.72 817000 1150000 (2019) 492000 (2018) 733000 492000 502000 644000 1050000 1150000
2020-06-09 06:00 27.77 818000 1150000 (2019) 492000 (2018) 733000 492000 502000 644000 1050000 1150000
2020-06-09 05:00 27.74 817000 1150000 (2019) 492000 (2018) 733000 492000 502000 644000 1050000 1150000
2020-06-09 04:00 27.82 820000 1150000 (2019) 492000 (2018) 733000 492000 502000 644000 1050000 1150000
2020-06-09 03:00 27.85 821000 1150000 (2019) 492000 (2018) 733000 492000 502000 644000 1050000 1150000
2020-06-09 02:00 27.86 822000 1150000 (2019) 492000 (2018) 733000 492000 502000 644000 1050000 1150000
2020-06-09 01:00 27.83 821000 1150000 (2019) 492000 (2018) 733000 492000 502000 644000 1050000 1150000
2020-06-09 00:00 27.32 802000 1150000 (2019) 492000 (2018) 733000 492000 502000 644000 1050000 1150000
2020-06-08 23:00 27.62 813000 1140000 (2019) 518000 (2018) 743000 518000 523000 657000 1050000 1140000
2020-06-08 22:00 27.70 816000 1140000 (2019) 518000 (2018) 743000 518000 523000 657000 1050000 1140000
2020-06-08 21:00 26.66 778000 1140000 (2019) 518000 (2018) 743000 518000 523000 657000 1050000 1140000
2020-06-08 20:00 27.79 819000 1140000 (2019) 518000 (2018) 743000 518000 523000 657000 1050000 1140000
2020-06-08 19:00 27.27 800000 1140000 (2019) 518000 (2018) 743000 518000 523000 657000 1050000 1140000
2020-06-08 18:00 27.90 823000 1140000 (2019) 518000 (2018) 743000 518000 523000 657000 1050000 1140000
2020-06-08 17:00 28.17 833000 1140000 (2019) 518000 (2018) 743000 518000 523000 657000 1050000 1140000
2020-06-08 16:00 28.30 838000 1140000 (2019) 518000 (2018) 743000 518000 523000 657000 1050000 1140000
2020-06-08 15:00 28.03 828000 1140000 (2019) 518000 (2018) 743000 518000 523000 657000 1050000 1140000
2020-06-08 14:00 28.33 839000 1140000 (2019) 518000 (2018) 743000 518000 523000 657000 1050000 1140000
2020-06-08 13:00 28.08 830000 1140000 (2019) 518000 (2018) 743000 518000 523000 657000 1050000 1140000
2020-06-08 12:00 28.35 840000 1140000 (2019) 518000 (2018) 743000 518000 523000 657000 1050000 1140000
2020-06-08 11:00 28.47 845000 1140000 (2019) 518000 (2018) 743000 518000 523000 657000 1050000 1140000
2020-06-08 10:00 28.51 846000 1140000 (2019) 518000 (2018) 743000 518000 523000 657000 1050000 1140000
2020-06-08 09:00 28.56 848000 1140000 (2019) 518000 (2018) 743000 518000 523000 657000 1050000 1140000
2020-06-08 08:00 28.62 851000 1140000 (2019) 518000 (2018) 743000 518000 523000 657000 1050000 1140000
2020-06-08 07:00 28.65 852000 1140000 (2019) 518000 (2018) 743000 518000 523000 657000 1050000 1140000
2020-06-08 06:00 28.74 855000 1140000 (2019) 518000 (2018) 743000 518000 523000 657000 1050000 1140000
2020-06-08 05:00 28.78 857000 1140000 (2019) 518000 (2018) 743000 518000 523000 657000 1050000 1140000
2020-06-08 04:00 28.83 859000 1140000 (2019) 518000 (2018) 743000 518000 523000 657000 1050000 1140000
2020-06-08 03:00 28.87 860000 1140000 (2019) 518000 (2018) 743000 518000 523000 657000 1050000 1140000
2020-06-08 02:00 28.87 860000 1140000 (2019) 518000 (2018) 743000 518000 523000 657000 1050000 1140000
2020-06-08 01:00 28.96 864000 1140000 (2019) 518000 (2018) 743000 518000 523000 657000 1050000 1140000
2020-06-08 00:00 28.99 865000 1140000 (2019) 518000 (2018) 743000 518000 523000 657000 1050000 1140000
2020-06-07 23:00 29.05 867000 1140000 (2019) 545000 (2016) 762000 545000 545000 681000 1060000 1140000
2020-06-07 22:00 29.13 870000 1140000 (2019) 545000 (2016) 762000 545000 545000 681000 1060000 1140000
2020-06-07 21:00 29.16 871000 1140000 (2019) 545000 (2016) 762000 545000 545000 681000 1060000 1140000
2020-06-07 20:00 29.22 874000 1140000 (2019) 545000 (2016) 762000 545000 545000 681000 1060000 1140000
2020-06-07 19:00 29.27 876000 1140000 (2019) 545000 (2016) 762000 545000 545000 681000 1060000 1140000
2020-06-07 18:00 29.35 879000 1140000 (2019) 545000 (2016) 762000 545000 545000 681000 1060000 1140000
2020-06-07 17:00 29.36 879000 1140000 (2019) 545000 (2016) 762000 545000 545000 681000 1060000 1140000
2020-06-07 16:00 29.40 881000 1140000 (2019) 545000 (2016) 762000 545000 545000 681000 1060000 1140000
2020-06-07 15:00 29.46 883000 1140000 (2019) 545000 (2016) 762000 545000 545000 681000 1060000 1140000
2020-06-07 14:00 29.51 885000 1140000 (2019) 545000 (2016) 762000 545000 545000 681000 1060000 1140000
2020-06-07 13:00 28.79 857000 1140000 (2019) 545000 (2016) 762000 545000 545000 681000 1060000 1140000
2020-06-07 12:00 29.63 890000 1140000 (2019) 545000 (2016) 762000 545000 545000 681000 1060000 1140000
2020-06-07 11:00 29.69 892000 1140000 (2019) 545000 (2016) 762000 545000 545000 681000 1060000 1140000
2020-06-07 10:00 29.80 896000 1140000 (2019) 545000 (2016) 762000 545000 545000 681000 1060000 1140000
2020-06-07 09:00 29.84 898000 1140000 (2019) 545000 (2016) 762000 545000 545000 681000 1060000 1140000
2020-06-07 08:00 29.94 902000 1140000 (2019) 545000 (2016) 762000 545000 545000 681000 1060000 1140000
2020-06-07 07:00 29.94 902000 1140000 (2019) 545000 (2016) 762000 545000 545000 681000 1060000 1140000
2020-06-07 06:00 30.04 906000 1140000 (2019) 545000 (2016) 762000 545000 545000 681000 1060000 1140000
2020-06-07 05:00 30.11 908000 1140000 (2019) 545000 (2016) 762000 545000 545000 681000 1060000 1140000
2020-06-07 04:00 30.13 909000 1140000 (2019) 545000 (2016) 762000 545000 545000 681000 1060000 1140000
2020-06-07 03:00 30.20 912000 1140000 (2019) 545000 (2016) 762000 545000 545000 681000 1060000 1140000
2020-06-07 02:00 30.23 913000 1140000 (2019) 545000 (2016) 762000 545000 545000 681000 1060000 1140000
2020-06-07 01:00 30.35 918000 1140000 (2019) 545000 (2016) 762000 545000 545000 681000 1060000 1140000
2020-06-07 00:00 30.38 919000 1140000 (2019) 545000 (2016) 762000 545000 545000 681000 1060000 1140000
2020-06-06 23:00 30.45 922000 1130000 (2019) 561000 (2016) 781000 561000 564000 716000 1060000 1130000
2020-06-06 22:00 30.48 923000 1130000 (2019) 561000 (2016) 781000 561000 564000 716000 1060000 1130000
2020-06-06 21:00 30.56 926000 1130000 (2019) 561000 (2016) 781000 561000 564000 716000 1060000 1130000
2020-06-06 20:00 30.59 927000 1130000 (2019) 561000 (2016) 781000 561000 564000 716000 1060000 1130000
2020-06-06 19:00 30.64 929000 1130000 (2019) 561000 (2016) 781000 561000 564000 716000 1060000 1130000
2020-06-06 18:00 30.66 930000 1130000 (2019) 561000 (2016) 781000 561000 564000 716000 1060000 1130000
2020-06-06 17:00 30.16 910000 1130000 (2019) 561000 (2016) 781000 561000 564000 716000 1060000 1130000
2020-06-06 16:00 30.79 935000 1130000 (2019) 561000 (2016) 781000 561000 564000 716000 1060000 1130000
2020-06-06 15:00 30.85 938000 1130000 (2019) 561000 (2016) 781000 561000 564000 716000 1060000 1130000
2020-06-06 14:00 30.90 940000 1130000 (2019) 561000 (2016) 781000 561000 564000 716000 1060000 1130000
2020-06-06 13:00 30.97 943000 1130000 (2019) 561000 (2016) 781000 561000 564000 716000 1060000 1130000
2020-06-06 12:00 30.79 935000 1130000 (2019) 561000 (2016) 781000 561000 564000 716000 1060000 1130000
2020-06-06 11:00 30.53 925000 1130000 (2019) 561000 (2016) 781000 561000 564000 716000 1060000 1130000
2020-06-06 10:00 31.14 950000 1130000 (2019) 561000 (2016) 781000 561000 564000 716000 1060000 1130000
2020-06-06 09:00 31.20 952000 1130000 (2019) 561000 (2016) 781000 561000 564000 716000 1060000 1130000
2020-06-06 08:00 31.30 956000 1130000 (2019) 561000 (2016) 781000 561000 564000 716000 1060000 1130000
2020-06-06 07:00 31.27 955000 1130000 (2019) 561000 (2016) 781000 561000 564000 716000 1060000 1130000
2020-06-06 06:00 31.39 960000 1130000 (2019) 561000 (2016) 781000 561000 564000 716000 1060000 1130000
2020-06-06 05:00 31.40 960000 1130000 (2019) 561000 (2016) 781000 561000 564000 716000 1060000 1130000
2020-06-06 04:00 31.45 962000 1130000 (2019) 561000 (2016) 781000 561000 564000 716000 1060000 1130000
2020-06-06 03:00 31.52 965000 1130000 (2019) 561000 (2016) 781000 561000 564000 716000 1060000 1130000
2020-06-06 02:00 31.53 965000 1130000 (2019) 561000 (2016) 781000 561000 564000 716000 1060000 1130000
2020-06-06 01:00 31.59 968000 1130000 (2019) 561000 (2016) 781000 561000 564000 716000 1060000 1130000
2020-06-06 00:00 31.66 971000 1130000 (2019) 561000 (2016) 781000 561000 564000 716000 1060000 1130000
2020-06-05 23:00 31.69 972000 1110000 (2019) 575000 (2016) 795000 575000 583000 748000 1050000 1110000
2020-06-05 22:00 31.74 974000 1110000 (2019) 575000 (2016) 795000 575000 583000 748000 1050000 1110000
2020-06-05 21:00 31.80 977000 1110000 (2019) 575000 (2016) 795000 575000 583000 748000 1050000 1110000
2020-06-05 20:00 31.81 977000 1110000 (2019) 575000 (2016) 795000 575000 583000 748000 1050000 1110000
2020-06-05 19:00 31.58 968000 1110000 (2019) 575000 (2016) 795000 575000 583000 748000 1050000 1110000
2020-06-05 18:00 31.90 981000 1110000 (2019) 575000 (2016) 795000 575000 583000 748000 1050000 1110000
2020-06-05 17:00 31.89 980000 1110000 (2019) 575000 (2016) 795000 575000 583000 748000 1050000 1110000
2020-06-05 16:00 31.93 982000 1110000 (2019) 575000 (2016) 795000 575000 583000 748000 1050000 1110000
2020-06-05 15:00 32.00 985000 1110000 (2019) 575000 (2016) 795000 575000 583000 748000 1050000 1110000
2020-06-05 14:00 32.15 991000 1110000 (2019) 575000 (2016) 795000 575000 583000 748000 1050000 1110000
2020-06-05 13:00 32.11 989000 1110000 (2019) 575000 (2016) 795000 575000 583000 748000 1050000 1110000
2020-06-05 12:00 32.09 989000 1110000 (2019) 575000 (2016) 795000 575000 583000 748000 1050000 1110000
2020-06-05 11:00 32.23 994000 1110000 (2019) 575000 (2016) 795000 575000 583000 748000 1050000 1110000
2020-06-05 10:00 32.24 995000 1110000 (2019) 575000 (2016) 795000 575000 583000 748000 1050000 1110000
2020-06-05 09:00 32.28 996000 1110000 (2019) 575000 (2016) 795000 575000 583000 748000 1050000 1110000
2020-06-05 08:00 32.33 998000 1110000 (2019) 575000 (2016) 795000 575000 583000 748000 1050000 1110000
2020-06-05 07:00 32.30 997000 1110000 (2019) 575000 (2016) 795000 575000 583000 748000 1050000 1110000
2020-06-05 06:00 32.13 990000 1110000 (2019) 575000 (2016) 795000 575000 583000 748000 1050000 1110000
2020-06-05 05:00 32.44 1000000 1110000 (2019) 575000 (2016) 795000 575000 583000 748000 1050000 1110000
2020-06-05 04:00 32.49 1010000 1110000 (2019) 575000 (2016) 795000 575000 583000 748000 1050000 1110000
2020-06-05 03:00 32.55 1010000 1110000 (2019) 575000 (2016) 795000 575000 583000 748000 1050000 1110000
2020-06-05 02:00 32.53 1010000 1110000 (2019) 575000 (2016) 795000 575000 583000 748000 1050000 1110000
2020-06-05 00:00 32.02 986000 1110000 (2019) 575000 (2016) 795000 575000 583000 748000 1050000 1110000
2020-06-04 23:00 32.63 1010000 1090000 (2019) 600000 (2016) 810000 600000 608000 775000 1050000 1090000
2020-06-04 22:00 32.67 1010000 1090000 (2019) 600000 (2016) 810000 600000 608000 775000 1050000 1090000
2020-06-04 21:00 32.66 1010000 1090000 (2019) 600000 (2016) 810000 600000 608000 775000 1050000 1090000
2020-06-04 20:00 32.71 1010000 1090000 (2019) 600000 (2016) 810000 600000 608000 775000 1050000 1090000
2020-06-04 19:00 32.78 1020000 1090000 (2019) 600000 (2016) 810000 600000 608000 775000 1050000 1090000
2020-06-04 18:00 32.77 1020000 1090000 (2019) 600000 (2016) 810000 600000 608000 775000 1050000 1090000
2020-06-04 17:00 32.80 1020000 1090000 (2019) 600000 (2016) 810000 600000 608000 775000 1050000 1090000
2020-06-04 16:00 32.81 1020000 1090000 (2019) 600000 (2016) 810000 600000 608000 775000 1050000 1090000
2020-06-04 15:00 32.92 1020000 1090000 (2019) 600000 (2016) 810000 600000 608000 775000 1050000 1090000
2020-06-04 14:00 32.67 1010000 1090000 (2019) 600000 (2016) 810000 600000 608000 775000 1050000 1090000
2020-06-04 13:00 32.98 1030000 1090000 (2019) 600000 (2016) 810000 600000 608000 775000 1050000 1090000
2020-06-04 12:00 33.01 1030000 1090000 (2019) 600000 (2016) 810000 600000 608000 775000 1050000 1090000
2020-06-04 11:00 33.05 1030000 1090000 (2019) 600000 (2016) 810000 600000 608000 775000 1050000 1090000
2020-06-04 10:00 32.86 1020000 1090000 (2019) 600000 (2016) 810000 600000 608000 775000 1050000 1090000
2020-06-04 09:00 33.11 1030000 1090000 (2019) 600000 (2016) 810000 600000 608000 775000 1050000 1090000
2020-06-04 08:00 33.19 1030000 1090000 (2019) 600000 (2016) 810000 600000 608000 775000 1050000 1090000
2020-06-04 07:00 33.22 1040000 1090000 (2019) 600000 (2016) 810000 600000 608000 775000 1050000 1090000
2020-06-04 06:00 33.30 1040000 1090000 (2019) 600000 (2016) 810000 600000 608000 775000 1050000 1090000
2020-06-04 05:00 33.29 1040000 1090000 (2019) 600000 (2016) 810000 600000 608000 775000 1050000 1090000
2020-06-04 04:00 33.32 1040000 1090000 (2019) 600000 (2016) 810000 600000 608000 775000 1050000 1090000
2020-06-04 03:00 33.31 1040000 1090000 (2019) 600000 (2016) 810000 600000 608000 775000 1050000 1090000
2020-06-04 02:00 33.37 1040000 1090000 (2019) 600000 (2016) 810000 600000 608000 775000 1050000 1090000
2020-06-04 01:00 33.46 1050000 1090000 (2019) 600000 (2016) 810000 600000 608000 775000 1050000 1090000
2020-06-04 00:00 33.49 1050000 1090000 (2019) 600000 (2016) 810000 600000 608000 775000 1050000 1090000
2020-06-03 23:00 33.48 1050000 1080000 (2019) 623000 (2016) 823000 623000 627000 793000 1050000 1080000
2020-06-03 22:00 33.55 1050000 1080000 (2019) 623000 (2016) 823000 623000 627000 793000 1050000 1080000
2020-06-03 21:00 33.59 1050000 1080000 (2019) 623000 (2016) 823000 623000 627000 793000 1050000 1080000
2020-06-03 20:00 33.54 1050000 1080000 (2019) 623000 (2016) 823000 623000 627000 793000 1050000 1080000
2020-06-03 19:00 33.52 1050000 1080000 (2019) 623000 (2016) 823000 623000 627000 793000 1050000 1080000
2020-06-03 18:00 33.71 1060000 1080000 (2019) 623000 (2016) 823000 623000 627000 793000 1050000 1080000
2020-06-03 17:00 33.78 1060000 1080000 (2019) 623000 (2016) 823000 623000 627000 793000 1050000 1080000
2020-06-03 16:00 33.80 1060000 1080000 (2019) 623000 (2016) 823000 623000 627000 793000 1050000 1080000
2020-06-03 15:00 33.82 1060000 1080000 (2019) 623000 (2016) 823000 623000 627000 793000 1050000 1080000
2020-06-03 14:00 33.82 1060000 1080000 (2019) 623000 (2016) 823000 623000 627000 793000 1050000 1080000
2020-06-03 13:00 33.85 1060000 1080000 (2019) 623000 (2016) 823000 623000 627000 793000 1050000 1080000
2020-06-03 12:00 33.88 1060000 1080000 (2019) 623000 (2016) 823000 623000 627000 793000 1050000 1080000
2020-06-03 11:00 33.91 1070000 1080000 (2019) 623000 (2016) 823000 623000 627000 793000 1050000 1080000
2020-06-03 10:00 33.93 1070000 1080000 (2019) 623000 (2016) 823000 623000 627000 793000 1050000 1080000
2020-06-03 09:00 33.98 1070000 1080000 (2019) 623000 (2016) 823000 623000 627000 793000 1050000 1080000
2020-06-03 08:00 33.98 1070000 1080000 (2019) 623000 (2016) 823000 623000 627000 793000 1050000 1080000
2020-06-03 07:00 34.05 1070000 1080000 (2019) 623000 (2016) 823000 623000 627000 793000 1050000 1080000
2020-06-03 06:00 34.07 1070000 1080000 (2019) 623000 (2016) 823000 623000 627000 793000 1050000 1080000
2020-06-03 05:00 34.07 1070000 1080000 (2019) 623000 (2016) 823000 623000 627000 793000 1050000 1080000
2020-06-03 04:00 34.12 1070000 1080000 (2019) 623000 (2016) 823000 623000 627000 793000 1050000 1080000
2020-06-03 03:00 34.13 1070000 1080000 (2019) 623000 (2016) 823000 623000 627000 793000 1050000 1080000
2020-06-03 02:00 34.14 1080000 1080000 (2019) 623000 (2016) 823000 623000 627000 793000 1050000 1080000
2020-06-03 01:00 34.19 1080000 1080000 (2019) 623000 (2016) 823000 623000 627000 793000 1050000 1080000
2020-06-03 00:00 34.18 1080000 1080000 (2019) 623000 (2016) 823000 623000 627000 793000 1050000 1080000
2020-06-02 23:00 34.24 1080000 1070000 (2019) 625000 (2016) 826000 625000 628000 804000 1050000 1070000
2020-06-02 22:00 34.24 1080000 1070000 (2019) 625000 (2016) 826000 625000 628000 804000 1050000 1070000
2020-06-02 21:00 34.28 1080000 1070000 (2019) 625000 (2016) 826000 625000 628000 804000 1050000 1070000
2020-06-02 20:00 34.30 1080000 1070000 (2019) 625000 (2016) 826000 625000 628000 804000 1050000 1070000
2020-06-02 19:00 33.97 1070000 1070000 (2019) 625000 (2016) 826000 625000 628000 804000 1050000 1070000
2020-06-02 18:00 34.25 1080000 1070000 (2019) 625000 (2016) 826000 625000 628000 804000 1050000 1070000
2020-06-02 17:00 34.35 1080000 1070000 (2019) 625000 (2016) 826000 625000 628000 804000 1050000 1070000
2020-06-02 16:00 34.05 1070000 1070000 (2019) 625000 (2016) 826000 625000 628000 804000 1050000 1070000
2020-06-02 15:00 34.39 1090000 1070000 (2019) 625000 (2016) 826000 625000 628000 804000 1050000 1070000
2020-06-02 14:00 33.76 1060000 1070000 (2019) 625000 (2016) 826000 625000 628000 804000 1050000 1070000
2020-06-02 13:00 34.41 1090000 1070000 (2019) 625000 (2016) 826000 625000 628000 804000 1050000 1070000
2020-06-02 12:00 34.38 1090000 1070000 (2019) 625000 (2016) 826000 625000 628000 804000 1050000 1070000
2020-06-02 11:00 34.37 1090000 1070000 (2019) 625000 (2016) 826000 625000 628000 804000 1050000 1070000
2020-06-02 10:00 33.79 1060000 1070000 (2019) 625000 (2016) 826000 625000 628000 804000 1050000 1070000
2020-06-02 09:00 34.42 1090000 1070000 (2019) 625000 (2016) 826000 625000 628000 804000 1050000 1070000
2020-06-02 08:00 34.45 1090000 1070000 (2019) 625000 (2016) 826000 625000 628000 804000 1050000 1070000
2020-06-02 07:00 34.47 1090000 1070000 (2019) 625000 (2016) 826000 625000 628000 804000 1050000 1070000
2020-06-02 06:00 34.48 1090000 1070000 (2019) 625000 (2016) 826000 625000 628000 804000 1050000 1070000
2020-06-02 05:00 34.47 1090000 1070000 (2019) 625000 (2016) 826000 625000 628000 804000 1050000 1070000
2020-06-02 04:00 34.15 1080000 1070000 (2019) 625000 (2016) 826000 625000 628000 804000 1050000 1070000
2020-06-02 03:00 34.45 1090000 1070000 (2019) 625000 (2016) 826000 625000 628000 804000 1050000 1070000
2020-06-02 02:00 34.51 1090000 1070000 (2019) 625000 (2016) 826000 625000 628000 804000 1050000 1070000
2020-06-02 01:00 34.50 1090000 1070000 (2019) 625000 (2016) 826000 625000 628000 804000 1050000 1070000
2020-06-02 00:00 34.51 1090000 1070000 (2019) 625000 (2016) 826000 625000 628000 804000 1050000 1070000
2020-06-01 23:00 34.19 1080000 1060000 (2019) 633000 (2016) 828000 633000 634000 809000 1040000 1060000
2020-06-01 22:00 34.45 1090000 1060000 (2019) 633000 (2016) 828000 633000 634000 809000 1040000 1060000
2020-06-01 21:00 34.47 1090000 1060000 (2019) 633000 (2016) 828000 633000 634000 809000 1040000 1060000
2020-06-01 20:00 34.17 1080000 1060000 (2019) 633000 (2016) 828000 633000 634000 809000 1040000 1060000
2020-06-01 19:00 34.46 1090000 1060000 (2019) 633000 (2016) 828000 633000 634000 809000 1040000 1060000
2020-06-01 18:00 34.44 1090000 1060000 (2019) 633000 (2016) 828000 633000 634000 809000 1040000 1060000
2020-06-01 17:00 34.44 1090000 1060000 (2019) 633000 (2016) 828000 633000 634000 809000 1040000 1060000
2020-06-01 16:00 34.43 1090000 1060000 (2019) 633000 (2016) 828000 633000 634000 809000 1040000 1060000
2020-06-01 15:00 34.45 1090000 1060000 (2019) 633000 (2016) 828000 633000 634000 809000 1040000 1060000
2020-06-01 14:00 34.45 1090000 1060000 (2019) 633000 (2016) 828000 633000 634000 809000 1040000 1060000
2020-06-01 13:00 34.41 1090000 1060000 (2019) 633000 (2016) 828000 633000 634000 809000 1040000 1060000
2020-06-01 12:00 34.41 1090000 1060000 (2019) 633000 (2016) 828000 633000 634000 809000 1040000 1060000
2020-06-01 11:00 34.44 1090000 1060000 (2019) 633000 (2016) 828000 633000 634000 809000 1040000 1060000
2020-06-01 10:00 34.39 1090000 1060000 (2019) 633000 (2016) 828000 633000 634000 809000 1040000 1060000
2020-06-01 09:00 34.10 1070000 1060000 (2019) 633000 (2016) 828000 633000 634000 809000 1040000 1060000
2020-06-01 08:00 34.10 1070000 1060000 (2019) 633000 (2016) 828000 633000 634000 809000 1040000 1060000
2020-06-01 07:00 34.37 1090000 1060000 (2019) 633000 (2016) 828000 633000 634000 809000 1040000 1060000
2020-06-01 06:00 34.41 1090000 1060000 (2019) 633000 (2016) 828000 633000 634000 809000 1040000 1060000
2020-06-01 05:00 34.36 1080000 1060000 (2019) 633000 (2016) 828000 633000 634000 809000 1040000 1060000
2020-06-01 04:00 34.35 1080000 1060000 (2019) 633000 (2016) 828000 633000 634000 809000 1040000 1060000
2020-06-01 03:00 34.33 1080000 1060000 (2019) 633000 (2016) 828000 633000 634000 809000 1040000 1060000
2020-06-01 02:00 34.29 1080000 1060000 (2019) 633000 (2016) 828000 633000 634000 809000 1040000 1060000
2020-06-01 01:00 34.31 1080000 1060000 (2019) 633000 (2016) 828000 633000 634000 809000 1040000 1060000
2020-06-01 00:00 34.29 1080000 1060000 (2019) 633000 (2016) 828000 633000 634000 809000 1040000 1060000
2020-05-31 23:00 34.27 1080000 1050000 (2019) 643000 (2018) 830000 643000 644000 814000 1030000 1050000
2020-05-31 22:00 34.23 1080000 1050000 (2019) 643000 (2018) 830000 643000 644000 814000 1030000 1050000
2020-05-31 21:00 34.24 1080000 1050000 (2019) 643000 (2018) 830000 643000 644000 814000 1030000 1050000
2020-05-31 20:00 34.20 1080000 1050000 (2019) 643000 (2018) 830000 643000 644000 814000 1030000 1050000
2020-05-31 19:00 34.18 1080000 1050000 (2019) 643000 (2018) 830000 643000 644000 814000 1030000 1050000
2020-05-31 18:00 33.83 1060000 1050000 (2019) 643000 (2018) 830000 643000 644000 814000 1030000 1050000
2020-05-31 17:00 34.17 1080000 1050000 (2019) 643000 (2018) 830000 643000 644000 814000 1030000 1050000
2020-05-31 16:00 34.12 1070000 1050000 (2019) 643000 (2018) 830000 643000 644000 814000 1030000 1050000
2020-05-31 15:00 34.13 1070000 1050000 (2019) 643000 (2018) 830000 643000 644000 814000 1030000 1050000
2020-05-31 14:00 34.08 1070000 1050000 (2019) 643000 (2018) 830000 643000 644000 814000 1030000 1050000
2020-05-31 13:00 33.76 1060000 1050000 (2019) 643000 (2018) 830000 643000 644000 814000 1030000 1050000
2020-05-31 12:00 34.00 1070000 1050000 (2019) 643000 (2018) 830000 643000 644000 814000 1030000 1050000
2020-05-31 11:00 33.68 1060000 1050000 (2019) 643000 (2018) 830000 643000 644000 814000 1030000 1050000
2020-05-31 10:00 34.03 1070000 1050000 (2019) 643000 (2018) 830000 643000 644000 814000 1030000 1050000
2020-05-31 09:00 33.95 1070000 1050000 (2019) 643000 (2018) 830000 643000 644000 814000 1030000 1050000
2020-05-31 08:00 33.97 1070000 1050000 (2019) 643000 (2018) 830000 643000 644000 814000 1030000 1050000
2020-05-31 07:00 33.94 1070000 1050000 (2019) 643000 (2018) 830000 643000 644000 814000 1030000 1050000
2020-05-31 06:00 33.94 1070000 1050000 (2019) 643000 (2018) 830000 643000 644000 814000 1030000 1050000
2020-05-31 05:00 33.29 1040000 1050000 (2019) 643000 (2018) 830000 643000 644000 814000 1030000 1050000
2020-05-31 04:00 33.93 1070000 1050000 (2019) 643000 (2018) 830000 643000 644000 814000 1030000 1050000
2020-05-31 03:00 33.88 1060000 1050000 (2019) 643000 (2018) 830000 643000 644000 814000 1030000 1050000
2020-05-31 02:00 33.86 1060000 1050000 (2019) 643000 (2018) 830000 643000 644000 814000 1030000 1050000
2020-05-31 01:00 33.82 1060000 1050000 (2019) 643000 (2018) 830000 643000 644000 814000 1030000 1050000
2020-05-31 00:00 33.75 1060000 1050000 (2019) 643000 (2018) 830000 643000 644000 814000 1030000 1050000
2020-05-30 23:00 33.46 1050000 1030000 (2019) 653000 (2018) 829000 653000 654000 817000 1020000 1030000
2020-05-30 22:00 33.41 1040000 1030000 (2019) 653000 (2018) 829000 653000 654000 817000 1020000 1030000
2020-05-30 21:00 33.12 1030000 1030000 (2019) 653000 (2018) 829000 653000 654000 817000 1020000 1030000
2020-05-30 20:00 33.36 1040000 1030000 (2019) 653000 (2018) 829000 653000 654000 817000 1020000 1030000
2020-05-30 19:00 33.64 1050000 1030000 (2019) 653000 (2018) 829000 653000 654000 817000 1020000 1030000
2020-05-30 18:00 33.59 1050000 1030000 (2019) 653000 (2018) 829000 653000 654000 817000 1020000 1030000
2020-05-30 17:00 33.58 1050000 1030000 (2019) 653000 (2018) 829000 653000 654000 817000 1020000 1030000
2020-05-30 16:00 33.58 1050000 1030000 (2019) 653000 (2018) 829000 653000 654000 817000 1020000 1030000
2020-05-30 15:00 33.26 1040000 1030000 (2019) 653000 (2018) 829000 653000 654000 817000 1020000 1030000
2020-05-30 14:00 33.50 1050000 1030000 (2019) 653000 (2018) 829000 653000 654000 817000 1020000 1030000
2020-05-30 13:00 33.50 1050000 1030000 (2019) 653000 (2018) 829000 653000 654000 817000 1020000 1030000
2020-05-30 12:00 33.19 1030000 1030000 (2019) 653000 (2018) 829000 653000 654000 817000 1020000 1030000
2020-05-30 11:00 33.49 1050000 1030000 (2019) 653000 (2018) 829000 653000 654000 817000 1020000 1030000
2020-05-30 10:00 33.46 1050000 1030000 (2019) 653000 (2018) 829000 653000 654000 817000 1020000 1030000
2020-05-30 09:00 33.44 1050000 1030000 (2019) 653000 (2018) 829000 653000 654000 817000 1020000 1030000
2020-05-30 08:00 33.40 1040000 1030000 (2019) 653000 (2018) 829000 653000 654000 817000 1020000 1030000
2020-05-30 07:00 33.36 1040000 1030000 (2019) 653000 (2018) 829000 653000 654000 817000 1020000 1030000
2020-05-30 06:00 33.36 1040000 1030000 (2019) 653000 (2018) 829000 653000 654000 817000 1020000 1030000
2020-05-30 05:00 33.34 1040000 1030000 (2019) 653000 (2018) 829000 653000 654000 817000 1020000 1030000
2020-05-30 04:00 33.34 1040000 1030000 (2019) 653000 (2018) 829000 653000 654000 817000 1020000 1030000
2020-05-30 03:00 33.28 1040000 1030000 (2019) 653000 (2018) 829000 653000 654000 817000 1020000 1030000
2020-05-30 02:00 33.30 1040000 1030000 (2019) 653000 (2018) 829000 653000 654000 817000 1020000 1030000
2020-05-30 01:00 33.25 1040000 1030000 (2019) 653000 (2018) 829000 653000 654000 817000 1020000 1030000
2020-05-30 00:00 33.20 1040000 1030000 (2019) 653000 (2018) 829000 653000 654000 817000 1020000 1030000
2020-05-29 23:00 33.18 1030000 1010000 (2019) 662000 (2016) 825000 662000 662000 814000 999000 1010000
2020-05-29 22:00 33.16 1030000 1010000 (2019) 662000 (2016) 825000 662000 662000 814000 999000 1010000
2020-05-29 21:00 33.09 1030000 1010000 (2019) 662000 (2016) 825000 662000 662000 814000 999000 1010000
2020-05-29 20:00 33.10 1030000 1010000 (2019) 662000 (2016) 825000 662000 662000 814000 999000 1010000
2020-05-29 19:00 33.05 1030000 1010000 (2019) 662000 (2016) 825000 662000 662000 814000 999000 1010000
2020-05-29 18:00 33.03 1030000 1010000 (2019) 662000 (2016) 825000 662000 662000 814000 999000 1010000
2020-05-29 17:00 32.97 1030000 1010000 (2019) 662000 (2016) 825000 662000 662000 814000 999000 1010000
2020-05-29 16:00 32.94 1020000 1010000 (2019) 662000 (2016) 825000 662000 662000 814000 999000 1010000
2020-05-29 15:00 32.89 1020000 1010000 (2019) 662000 (2016) 825000 662000 662000 814000 999000 1010000
2020-05-29 14:00 32.88 1020000 1010000 (2019) 662000 (2016) 825000 662000 662000 814000 999000 1010000
2020-05-29 13:00 32.57 1010000 1010000 (2019) 662000 (2016) 825000 662000 662000 814000 999000 1010000
2020-05-29 12:00 32.85 1020000 1010000 (2019) 662000 (2016) 825000 662000 662000 814000 999000 1010000
2020-05-29 11:00 32.83 1020000 1010000 (2019) 662000 (2016) 825000 662000 662000 814000 999000 1010000
2020-05-29 10:00 32.83 1020000 1010000 (2019) 662000 (2016) 825000 662000 662000 814000 999000 1010000
2020-05-29 09:00 32.82 1020000 1010000 (2019) 662000 (2016) 825000 662000 662000 814000 999000 1010000
2020-05-29 08:00 32.80 1020000 1010000 (2019) 662000 (2016) 825000 662000 662000 814000 999000 1010000
2020-05-29 07:00 32.80 1020000 1010000 (2019) 662000 (2016) 825000 662000 662000 814000 999000 1010000
2020-05-29 06:00 32.77 1020000 1010000 (2019) 662000 (2016) 825000 662000 662000 814000 999000 1010000
2020-05-29 05:00 32.77 1020000 1010000 (2019) 662000 (2016) 825000 662000 662000 814000 999000 1010000
2020-05-29 04:00 32.74 1020000 1010000 (2019) 662000 (2016) 825000 662000 662000 814000 999000 1010000
2020-05-29 03:00 32.72 1010000 1010000 (2019) 662000 (2016) 825000 662000 662000 814000 999000 1010000
2020-05-29 02:00 32.71 1010000 1010000 (2019) 662000 (2016) 825000 662000 662000 814000 999000 1010000
2020-05-29 01:00 32.73 1020000 1010000 (2019) 662000 (2016) 825000 662000 662000 814000 999000 1010000
2020-05-29 00:00 32.65 1010000 1010000 (2019) 662000 (2016) 825000 662000 662000 814000 999000 1010000
2020-05-28 23:00 32.66 1010000 1010000 (2019) 650000 (2016) 822000 650000 655000 814000 997000 1010000
2020-05-28 22:00 32.65 1010000 1010000 (2019) 650000 (2016) 822000 650000 655000 814000 997000 1010000
2020-05-28 21:00 32.62 1010000 1010000 (2019) 650000 (2016) 822000 650000 655000 814000 997000 1010000
2020-05-28 20:00 32.61 1010000 1010000 (2019) 650000 (2016) 822000 650000 655000 814000 997000 1010000
2020-05-28 19:00 32.60 1010000 1010000 (2019) 650000 (2016) 822000 650000 655000 814000 997000 1010000
2020-05-28 18:00 32.53 1010000 1010000 (2019) 650000 (2016) 822000 650000 655000 814000 997000 1010000
2020-05-28 17:00 31.95 983000 1010000 (2019) 650000 (2016) 822000 650000 655000 814000 997000 1010000
2020-05-28 16:00 32.56 1010000 1010000 (2019) 650000 (2016) 822000 650000 655000 814000 997000 1010000
2020-05-28 15:00 32.58 1010000 1010000 (2019) 650000 (2016) 822000 650000 655000 814000 997000 1010000
2020-05-28 14:00 32.58 1010000 1010000 (2019) 650000 (2016) 822000 650000 655000 814000 997000 1010000
2020-05-28 13:00 32.58 1010000 1010000 (2019) 650000 (2016) 822000 650000 655000 814000 997000 1010000
2020-05-28 12:00 32.56 1010000 1010000 (2019) 650000 (2016) 822000 650000 655000 814000 997000 1010000
2020-05-28 11:00 32.58 1010000 1010000 (2019) 650000 (2016) 822000 650000 655000 814000 997000 1010000
2020-05-28 10:00 32.55 1010000 1010000 (2019) 650000 (2016) 822000 650000 655000 814000 997000 1010000
2020-05-28 09:00 32.56 1010000 1010000 (2019) 650000 (2016) 822000 650000 655000 814000 997000 1010000
2020-05-28 08:00 32.53 1010000 1010000 (2019) 650000 (2016) 822000 650000 655000 814000 997000 1010000
2020-05-28 07:00 32.56 1010000 1010000 (2019) 650000 (2016) 822000 650000 655000 814000 997000 1010000
2020-05-28 06:00 32.58 1010000 1010000 (2019) 650000 (2016) 822000 650000 655000 814000 997000 1010000
2020-05-28 05:00 32.53 1010000 1010000 (2019) 650000 (2016) 822000 650000 655000 814000 997000 1010000
2020-05-28 04:00 32.55 1010000 1010000 (2019) 650000 (2016) 822000 650000 655000 814000 997000 1010000
2020-05-28 03:00 32.49 1010000 1010000 (2019) 650000 (2016) 822000 650000 655000 814000 997000 1010000
2020-05-28 02:00 32.46 1000000 1010000 (2019) 650000 (2016) 822000 650000 655000 814000 997000 1010000
2020-05-28 01:00 32.47 1000000 1010000 (2019) 650000 (2016) 822000 650000 655000 814000 997000 1010000
2020-05-28 00:00 32.46 1000000 1010000 (2019) 650000 (2016) 822000 650000 655000 814000 997000 1010000
2020-05-27 23:00 32.48 1000000 1020000 (2019) 631000 (2016) 823000 631000 643000 821000 1010000 1020000
2020-05-27 22:00 32.45 1000000 1020000 (2019) 631000 (2016) 823000 631000 643000 821000 1010000 1020000
2020-05-27 21:00 32.47 1000000 1020000 (2019) 631000 (2016) 823000 631000 643000 821000 1010000 1020000
2020-05-27 20:00 32.49 1010000 1020000 (2019) 631000 (2016) 823000 631000 643000 821000 1010000 1020000
2020-05-27 19:00 32.44 1000000 1020000 (2019) 631000 (2016) 823000 631000 643000 821000 1010000 1020000
2020-05-27 18:00 32.47 1000000 1020000 (2019) 631000 (2016) 823000 631000 643000 821000 1010000 1020000
2020-05-27 17:00 32.42 1000000 1020000 (2019) 631000 (2016) 823000 631000 643000 821000 1010000 1020000
2020-05-27 16:00 32.46 1000000 1020000 (2019) 631000 (2016) 823000 631000 643000 821000 1010000 1020000
2020-05-27 15:00 32.42 1000000 1020000 (2019) 631000 (2016) 823000 631000 643000 821000 1010000 1020000
2020-05-27 14:00 32.43 1000000 1020000 (2019) 631000 (2016) 823000 631000 643000 821000 1010000 1020000
2020-05-27 13:00 32.38 1000000 1020000 (2019) 631000 (2016) 823000 631000 643000 821000 1010000 1020000
2020-05-27 12:00 32.45 1000000 1020000 (2019) 631000 (2016) 823000 631000 643000 821000 1010000 1020000
2020-05-27 11:00 31.86 979000 1020000 (2019) 631000 (2016) 823000 631000 643000 821000 1010000 1020000
2020-05-27 10:00 32.38 1000000 1020000 (2019) 631000 (2016) 823000 631000 643000 821000 1010000 1020000
2020-05-27 09:00 32.40 1000000 1020000 (2019) 631000 (2016) 823000 631000 643000 821000 1010000 1020000
2020-05-27 08:00 32.43 1000000 1020000 (2019) 631000 (2016) 823000 631000 643000 821000 1010000 1020000
2020-05-27 07:00 32.41 1000000 1020000 (2019) 631000 (2016) 823000 631000 643000 821000 1010000 1020000
2020-05-27 06:00 32.43 1000000 1020000 (2019) 631000 (2016) 823000 631000 643000 821000 1010000 1020000
2020-05-27 05:00 32.41 1000000 1020000 (2019) 631000 (2016) 823000 631000 643000 821000 1010000 1020000
2020-05-27 04:00 32.41 1000000 1020000 (2019) 631000 (2016) 823000 631000 643000 821000 1010000 1020000
2020-05-27 03:00 32.39 1000000 1020000 (2019) 631000 (2016) 823000 631000 643000 821000 1010000 1020000
2020-05-27 02:00 32.37 1000000 1020000 (2019) 631000 (2016) 823000 631000 643000 821000 1010000 1020000
2020-05-27 01:00 32.35 999000 1020000 (2019) 631000 (2016) 823000 631000 643000 821000 1010000 1020000
2020-05-27 00:00 32.34 999000 1020000 (2019) 631000 (2016) 823000 631000 643000 821000 1010000 1020000
2020-05-26 23:00 32.33 998000 1030000 (2019) 618000 (2016) 826000 618000 634000 827000 1020000 1030000
2020-05-26 22:00 32.33 998000 1030000 (2019) 618000 (2016) 826000 618000 634000 827000 1020000 1030000
2020-05-26 21:00 32.33 998000 1030000 (2019) 618000 (2016) 826000 618000 634000 827000 1020000 1030000
2020-05-26 20:00 32.34 999000 1030000 (2019) 618000 (2016) 826000 618000 634000 827000 1020000 1030000
2020-05-26 19:00 32.29 997000 1030000 (2019) 618000 (2016) 826000 618000 634000 827000 1020000 1030000
2020-05-26 18:00 32.23 994000 1030000 (2019) 618000 (2016) 826000 618000 634000 827000 1020000 1030000
2020-05-26 17:00 32.25 995000 1030000 (2019) 618000 (2016) 826000 618000 634000 827000 1020000 1030000
2020-05-26 15:00 31.93 982000 1030000 (2019) 618000 (2016) 826000 618000 634000 827000 1020000 1030000
2020-05-26 14:00 32.21 994000 1030000 (2019) 618000 (2016) 826000 618000 634000 827000 1020000 1030000
2020-05-26 13:00 32.23 994000 1030000 (2019) 618000 (2016) 826000 618000 634000 827000 1020000 1030000
2020-05-26 12:00 32.23 994000 1030000 (2019) 618000 (2016) 826000 618000 634000 827000 1020000 1030000
2020-05-26 11:00 32.16 991000 1030000 (2019) 618000 (2016) 826000 618000 634000 827000 1020000 1030000
2020-05-26 10:00 32.15 991000 1030000 (2019) 618000 (2016) 826000 618000 634000 827000 1020000 1030000
2020-05-26 09:00 31.87 979000 1030000 (2019) 618000 (2016) 826000 618000 634000 827000 1020000 1030000
2020-05-26 08:00 32.18 992000 1030000 (2019) 618000 (2016) 826000 618000 634000 827000 1020000 1030000
2020-05-26 07:00 32.16 991000 1030000 (2019) 618000 (2016) 826000 618000 634000 827000 1020000 1030000
2020-05-26 06:00 32.12 990000 1030000 (2019) 618000 (2016) 826000 618000 634000 827000 1020000 1030000
2020-05-26 05:00 32.09 989000 1030000 (2019) 618000 (2016) 826000 618000 634000 827000 1020000 1030000
2020-05-26 04:00 32.06 987000 1030000 (2019) 618000 (2016) 826000 618000 634000 827000 1020000 1030000
2020-05-26 03:00 32.07 988000 1030000 (2019) 618000 (2016) 826000 618000 634000 827000 1020000 1030000
2020-05-26 02:00 32.01 985000 1030000 (2019) 618000 (2016) 826000 618000 634000 827000 1020000 1030000
2020-05-26 01:00 32.00 985000 1030000 (2019) 618000 (2016) 826000 618000 634000 827000 1020000 1030000
2020-05-26 00:00 32.01 985000 1030000 (2019) 618000 (2016) 826000 618000 634000 827000 1020000 1030000
2020-05-25 23:00 31.96 983000 1060000 (2019) 622000 (2016) 836000 622000 634000 830000 1040000 1060000
2020-05-25 22:00 31.92 982000 1060000 (2019) 622000 (2016) 836000 622000 634000 830000 1040000 1060000
2020-05-25 21:00 31.95 983000 1060000 (2019) 622000 (2016) 836000 622000 634000 830000 1040000 1060000
2020-05-25 20:00 31.88 980000 1060000 (2019) 622000 (2016) 836000 622000 634000 830000 1040000 1060000
2020-05-25 19:00 31.88 980000 1060000 (2019) 622000 (2016) 836000 622000 634000 830000 1040000 1060000
2020-05-25 18:00 31.88 980000 1060000 (2019) 622000 (2016) 836000 622000 634000 830000 1040000 1060000
2020-05-25 17:00 31.81 977000 1060000 (2019) 622000 (2016) 836000 622000 634000 830000 1040000 1060000
2020-05-25 16:00 31.79 976000 1060000 (2019) 622000 (2016) 836000 622000 634000 830000 1040000 1060000
2020-05-25 15:00 31.75 975000 1060000 (2019) 622000 (2016) 836000 622000 634000 830000 1040000 1060000
2020-05-25 14:00 31.78 976000 1060000 (2019) 622000 (2016) 836000 622000 634000 830000 1040000 1060000
2020-05-25 13:00 31.72 973000 1060000 (2019) 622000 (2016) 836000 622000 634000 830000 1040000 1060000
2020-05-25 12:00 31.70 972000 1060000 (2019) 622000 (2016) 836000 622000 634000 830000 1040000 1060000
2020-05-25 11:00 31.63 970000 1060000 (2019) 622000 (2016) 836000 622000 634000 830000 1040000 1060000
2020-05-25 10:00 31.64 970000 1060000 (2019) 622000 (2016) 836000 622000 634000 830000 1040000 1060000
2020-05-25 09:00 31.63 970000 1060000 (2019) 622000 (2016) 836000 622000 634000 830000 1040000 1060000
2020-05-25 08:00 31.63 970000 1060000 (2019) 622000 (2016) 836000 622000 634000 830000 1040000 1060000
2020-05-25 07:00 31.60 968000 1060000 (2019) 622000 (2016) 836000 622000 634000 830000 1040000 1060000
2020-05-25 06:00 31.57 967000 1060000 (2019) 622000 (2016) 836000 622000 634000 830000 1040000 1060000
2020-05-25 05:00 31.53 965000 1060000 (2019) 622000 (2016) 836000 622000 634000 830000 1040000 1060000
2020-05-25 04:00 31.49 964000 1060000 (2019) 622000 (2016) 836000 622000 634000 830000 1040000 1060000
2020-05-25 03:00 31.46 963000 1060000 (2019) 622000 (2016) 836000 622000 634000 830000 1040000 1060000
2020-05-25 02:00 31.42 961000 1060000 (2019) 622000 (2016) 836000 622000 634000 830000 1040000 1060000
2020-05-25 01:00 31.43 961000 1060000 (2019) 622000 (2016) 836000 622000 634000 830000 1040000 1060000
2020-05-25 00:00 31.40 960000 1060000 (2019) 622000 (2016) 836000 622000 634000 830000 1040000 1060000
2020-05-24 23:00 31.37 959000 1090000 (2019) 629000 (2016) 848000 629000 638000 837000 1070000 1090000
2020-05-24 22:00 31.27 955000 1090000 (2019) 629000 (2016) 848000 629000 638000 837000 1070000 1090000
2020-05-24 21:00 31.33 957000 1090000 (2019) 629000 (2016) 848000 629000 638000 837000 1070000 1090000
2020-05-24 20:00 31.25 954000 1090000 (2019) 629000 (2016) 848000 629000 638000 837000 1070000 1090000
2020-05-24 19:00 31.22 953000 1090000 (2019) 629000 (2016) 848000 629000 638000 837000 1070000 1090000
2020-05-24 18:00 31.17 951000 1090000 (2019) 629000 (2016) 848000 629000 638000 837000 1070000 1090000
2020-05-24 17:00 30.91 940000 1090000 (2019) 629000 (2016) 848000 629000 638000 837000 1070000 1090000
2020-05-24 16:00 31.12 949000 1090000 (2019) 629000 (2016) 848000 629000 638000 837000 1070000 1090000
2020-05-24 15:00 31.06 946000 1090000 (2019) 629000 (2016) 848000 629000 638000 837000 1070000 1090000
2020-05-24 14:00 31.06 946000 1090000 (2019) 629000 (2016) 848000 629000 638000 837000 1070000 1090000
2020-05-24 13:00 30.99 944000 1090000 (2019) 629000 (2016) 848000 629000 638000 837000 1070000 1090000
2020-05-24 12:00 30.73 933000 1090000 (2019) 629000 (2016) 848000 629000 638000 837000 1070000 1090000
2020-05-24 11:00 30.97 943000 1090000 (2019) 629000 (2016) 848000 629000 638000 837000 1070000 1090000
2020-05-24 10:00 30.87 939000 1090000 (2019) 629000 (2016) 848000 629000 638000 837000 1070000 1090000
2020-05-24 09:00 30.91 940000 1090000 (2019) 629000 (2016) 848000 629000 638000 837000 1070000 1090000
2020-05-24 08:00 30.35 918000 1090000 (2019) 629000 (2016) 848000 629000 638000 837000 1070000 1090000
2020-05-24 07:00 30.83 937000 1090000 (2019) 629000 (2016) 848000 629000 638000 837000 1070000 1090000
2020-05-24 06:00 30.77 935000 1090000 (2019) 629000 (2016) 848000 629000 638000 837000 1070000 1090000
2020-05-24 05:00 30.73 933000 1090000 (2019) 629000 (2016) 848000 629000 638000 837000 1070000 1090000
2020-05-24 04:00 30.72 933000 1090000 (2019) 629000 (2016) 848000 629000 638000 837000 1070000 1090000
2020-05-24 03:00 30.66 930000 1090000 (2019) 629000 (2016) 848000 629000 638000 837000 1070000 1090000
2020-05-24 02:00 30.60 928000 1090000 (2019) 629000 (2016) 848000 629000 638000 837000 1070000 1090000
2020-05-24 01:00 30.57 927000 1090000 (2019) 629000 (2016) 848000 629000 638000 837000 1070000 1090000
2020-05-24 00:00 30.49 923000 1090000 (2019) 629000 (2016) 848000 629000 638000 837000 1070000 1090000
2020-05-23 23:00 30.47 923000 1120000 (2019) 640000 (2016) 867000 640000 644000 854000 1100000 1120000
2020-05-23 22:00 30.44 921000 1120000 (2019) 640000 (2016) 867000 640000 644000 854000 1100000 1120000
2020-05-23 21:00 30.39 919000 1120000 (2019) 640000 (2016) 867000 640000 644000 854000 1100000 1120000
2020-05-23 20:00 30.35 918000 1120000 (2019) 640000 (2016) 867000 640000 644000 854000 1100000 1120000
2020-05-23 19:00 30.30 916000 1120000 (2019) 640000 (2016) 867000 640000 644000 854000 1100000 1120000
2020-05-23 18:00 30.24 914000 1120000 (2019) 640000 (2016) 867000 640000 644000 854000 1100000 1120000
2020-05-23 17:00 30.16 910000 1120000 (2019) 640000 (2016) 867000 640000 644000 854000 1100000 1120000
2020-05-23 16:00 30.12 909000 1120000 (2019) 640000 (2016) 867000 640000 644000 854000 1100000 1120000
2020-05-23 15:00 30.09 908000 1120000 (2019) 640000 (2016) 867000 640000 644000 854000 1100000 1120000
2020-05-23 14:00 29.79 896000 1120000 (2019) 640000 (2016) 867000 640000 644000 854000 1100000 1120000
2020-05-23 13:00 30.03 905000 1120000 (2019) 640000 (2016) 867000 640000 644000 854000 1100000 1120000
2020-05-23 12:00 29.97 903000 1120000 (2019) 640000 (2016) 867000 640000 644000 854000 1100000 1120000
2020-05-23 11:00 29.70 892000 1120000 (2019) 640000 (2016) 867000 640000 644000 854000 1100000 1120000
2020-05-23 10:00 29.88 899000 1120000 (2019) 640000 (2016) 867000 640000 644000 854000 1100000 1120000
2020-05-23 09:00 29.88 899000 1120000 (2019) 640000 (2016) 867000 640000 644000 854000 1100000 1120000
2020-05-23 08:00 29.86 899000 1120000 (2019) 640000 (2016) 867000 640000 644000 854000 1100000 1120000
2020-05-23 07:00 29.78 895000 1120000 (2019) 640000 (2016) 867000 640000 644000 854000 1100000 1120000
2020-05-23 06:00 29.75 894000 1120000 (2019) 640000 (2016) 867000 640000 644000 854000 1100000 1120000
2020-05-23 05:00 29.71 893000 1120000 (2019) 640000 (2016) 867000 640000 644000 854000 1100000 1120000
2020-05-23 04:00 29.64 890000 1120000 (2019) 640000 (2016) 867000 640000 644000 854000 1100000 1120000
2020-05-23 03:00 29.60 888000 1120000 (2019) 640000 (2016) 867000 640000 644000 854000 1100000 1120000
2020-05-23 02:00 29.54 886000 1120000 (2019) 640000 (2016) 867000 640000 644000 854000 1100000 1120000
2020-05-23 01:00 29.47 883000 1120000 (2019) 640000 (2016) 867000 640000 644000 854000 1100000 1120000
2020-05-23 00:00 29.46 883000 1120000 (2019) 640000 (2016) 867000 640000 644000 854000 1100000 1120000
2020-05-22 23:00 29.39 880000 1140000 (2019) 650000 (2018) 894000 650000 656000 893000 1130000 1140000
2020-05-22 22:00 29.37 879000 1140000 (2019) 650000 (2018) 894000 650000 656000 893000 1130000 1140000
2020-05-22 21:00 29.27 876000 1140000 (2019) 650000 (2018) 894000 650000 656000 893000 1130000 1140000
2020-05-22 20:00 29.23 874000 1140000 (2019) 650000 (2018) 894000 650000 656000 893000 1130000 1140000
2020-05-22 19:00 29.20 873000 1140000 (2019) 650000 (2018) 894000 650000 656000 893000 1130000 1140000
2020-05-22 18:00 29.17 872000 1140000 (2019) 650000 (2018) 894000 650000 656000 893000 1130000 1140000
2020-05-22 17:00 29.07 868000 1140000 (2019) 650000 (2018) 894000 650000 656000 893000 1130000 1140000
2020-05-22 16:00 29.00 865000 1140000 (2019) 650000 (2018) 894000 650000 656000 893000 1130000 1140000
2020-05-22 15:00 28.68 853000 1140000 (2019) 650000 (2018) 894000 650000 656000 893000 1130000 1140000
2020-05-22 14:00 28.92 862000 1140000 (2019) 650000 (2018) 894000 650000 656000 893000 1130000 1140000
2020-05-22 13:00 28.84 859000 1140000 (2019) 650000 (2018) 894000 650000 656000 893000 1130000 1140000
2020-05-22 12:00 28.75 855000 1140000 (2019) 650000 (2018) 894000 650000 656000 893000 1130000 1140000
2020-05-22 11:00 28.76 856000 1140000 (2019) 650000 (2018) 894000 650000 656000 893000 1130000 1140000
2020-05-22 10:00 28.70 854000 1140000 (2019) 650000 (2018) 894000 650000 656000 893000 1130000 1140000
2020-05-22 09:00 28.61 850000 1140000 (2019) 650000 (2018) 894000 650000 656000 893000 1130000 1140000
2020-05-22 08:00 28.56 848000 1140000 (2019) 650000 (2018) 894000 650000 656000 893000 1130000 1140000
2020-05-22 07:00 28.52 847000 1140000 (2019) 650000 (2018) 894000 650000 656000 893000 1130000 1140000
2020-05-22 06:00 28.43 843000 1140000 (2019) 650000 (2018) 894000 650000 656000 893000 1130000 1140000
2020-05-22 05:00 28.35 840000 1140000 (2019) 650000 (2018) 894000 650000 656000 893000 1130000 1140000
2020-05-22 04:00 28.33 839000 1140000 (2019) 650000 (2018) 894000 650000 656000 893000 1130000 1140000
2020-05-22 03:00 28.27 837000 1140000 (2019) 650000 (2018) 894000 650000 656000 893000 1130000 1140000
2020-05-22 02:00 28.19 834000 1140000 (2019) 650000 (2018) 894000 650000 656000 893000 1130000 1140000
2020-05-22 01:00 28.14 832000 1140000 (2019) 650000 (2018) 894000 650000 656000 893000 1130000 1140000
2020-05-22 00:00 28.08 830000 1140000 (2019) 650000 (2018) 894000 650000 656000 893000 1130000 1140000
2020-05-21 23:00 28.01 827000 1160000 (2017) 639000 (2018) 922000 639000 662000 945000 1160000 1160000
2020-05-21 22:00 27.94 825000 1160000 (2017) 639000 (2018) 922000 639000 662000 945000 1160000 1160000
2020-05-21 21:00 27.87 822000 1160000 (2017) 639000 (2018) 922000 639000 662000 945000 1160000 1160000
2020-05-21 20:00 27.83 821000 1160000 (2017) 639000 (2018) 922000 639000 662000 945000 1160000 1160000
2020-05-21 19:00 27.75 818000 1160000 (2017) 639000 (2018) 922000 639000 662000 945000 1160000 1160000
2020-05-21 18:00 27.67 815000 1160000 (2017) 639000 (2018) 922000 639000 662000 945000 1160000 1160000
2020-05-21 17:00 27.35 803000 1160000 (2017) 639000 (2018) 922000 639000 662000 945000 1160000 1160000
2020-05-21 16:00 27.55 810000 1160000 (2017) 639000 (2018) 922000 639000 662000 945000 1160000 1160000
2020-05-21 15:00 27.52 809000 1160000 (2017) 639000 (2018) 922000 639000 662000 945000 1160000 1160000
2020-05-21 14:00 27.44 806000 1160000 (2017) 639000 (2018) 922000 639000 662000 945000 1160000 1160000
2020-05-21 13:00 27.39 804000 1160000 (2017) 639000 (2018) 922000 639000 662000 945000 1160000 1160000
2020-05-21 12:00 27.28 800000 1160000 (2017) 639000 (2018) 922000 639000 662000 945000 1160000 1160000
2020-05-21 11:00 27.21 798000 1160000 (2017) 639000 (2018) 922000 639000 662000 945000 1160000 1160000
2020-05-21 10:00 27.13 795000 1160000 (2017) 639000 (2018) 922000 639000 662000 945000 1160000 1160000
2020-05-21 09:00 27.10 794000 1160000 (2017) 639000 (2018) 922000 639000 662000 945000 1160000 1160000
2020-05-21 08:00 27.07 792000 1160000 (2017) 639000 (2018) 922000 639000 662000 945000 1160000 1160000
2020-05-21 07:00 26.97 789000 1160000 (2017) 639000 (2018) 922000 639000 662000 945000 1160000 1160000
2020-05-21 06:00 26.87 785000 1160000 (2017) 639000 (2018) 922000 639000 662000 945000 1160000 1160000
2020-05-21 05:00 26.78 782000 1160000 (2017) 639000 (2018) 922000 639000 662000 945000 1160000 1160000
2020-05-21 04:00 26.73 780000 1160000 (2017) 639000 (2018) 922000 639000 662000 945000 1160000 1160000
2020-05-21 03:00 26.69 779000 1160000 (2017) 639000 (2018) 922000 639000 662000 945000 1160000 1160000
2020-05-21 02:00 26.59 775000 1160000 (2017) 639000 (2018) 922000 639000 662000 945000 1160000 1160000
2020-05-21 01:00 26.51 772000 1160000 (2017) 639000 (2018) 922000 639000 662000 945000 1160000 1160000
2020-05-21 00:00 26.44 770000 1160000 (2017) 639000 (2018) 922000 639000 662000 945000 1160000 1160000
2020-05-20 23:00 26.37 767000 1200000 (2017) 608000 (2018) 944000 608000 650000 984000 1200000 1200000
2020-05-20 22:00 26.29 764000 1200000 (2017) 608000 (2018) 944000 608000 650000 984000 1200000 1200000
2020-05-20 21:00 26.20 761000 1200000 (2017) 608000 (2018) 944000 608000 650000 984000 1200000 1200000
2020-05-20 20:00 26.15 759000 1200000 (2017) 608000 (2018) 944000 608000 650000 984000 1200000 1200000
2020-05-20 19:00 26.04 755000 1200000 (2017) 608000 (2018) 944000 608000 650000 984000 1200000 1200000
2020-05-20 18:00 25.99 753000 1200000 (2017) 608000 (2018) 944000 608000 650000 984000 1200000 1200000
2020-05-20 17:00 25.91 751000 1200000 (2017) 608000 (2018) 944000 608000 650000 984000 1200000 1200000
2020-05-20 16:00 25.80 747000 1200000 (2017) 608000 (2018) 944000 608000 650000 984000 1200000 1200000
2020-05-20 15:00 25.78 746000 1200000 (2017) 608000 (2018) 944000 608000 650000 984000 1200000 1200000
2020-05-20 14:00 25.69 743000 1200000 (2017) 608000 (2018) 944000 608000 650000 984000 1200000 1200000
2020-05-20 13:00 25.62 740000 1200000 (2017) 608000 (2018) 944000 608000 650000 984000 1200000 1200000
2020-05-20 12:00 25.52 737000 1200000 (2017) 608000 (2018) 944000 608000 650000 984000 1200000 1200000
2020-05-20 11:00 25.42 733000 1200000 (2017) 608000 (2018) 944000 608000 650000 984000 1200000 1200000
2020-05-20 10:00 25.37 731000 1200000 (2017) 608000 (2018) 944000 608000 650000 984000 1200000 1200000
2020-05-20 09:00 24.73 709000 1200000 (2017) 608000 (2018) 944000 608000 650000 984000 1200000 1200000
2020-05-20 08:00 25.17 724000 1200000 (2017) 608000 (2018) 944000 608000 650000 984000 1200000 1200000
2020-05-20 07:00 25.08 721000 1200000 (2017) 608000 (2018) 944000 608000 650000 984000 1200000 1200000
2020-05-20 06:00 25.04 720000 1200000 (2017) 608000 (2018) 944000 608000 650000 984000 1200000 1200000
2020-05-20 05:00 24.93 716000 1200000 (2017) 608000 (2018) 944000 608000 650000 984000 1200000 1200000
2020-05-20 04:00 24.84 713000 1200000 (2017) 608000 (2018) 944000 608000 650000 984000 1200000 1200000
2020-05-20 03:00 24.75 710000 1200000 (2017) 608000 (2018) 944000 608000 650000 984000 1200000 1200000
2020-05-20 02:00 24.66 707000 1200000 (2017) 608000 (2018) 944000 608000 650000 984000 1200000 1200000
2020-05-20 01:00 24.56 703000 1200000 (2017) 608000 (2018) 944000 608000 650000 984000 1200000 1200000
2020-05-20 00:00 24.52 702000 1200000 (2017) 608000 (2018) 944000 608000 650000 984000 1200000 1200000
2020-05-19 23:00 24.47 700000 1220000 (2017) 574000 (2018) 954000 574000 634000 1010000 1220000 1220000
2020-05-19 22:00 24.37 697000 1220000 (2017) 574000 (2018) 954000 574000 634000 1010000 1220000 1220000
2020-05-19 21:00 24.33 695000 1220000 (2017) 574000 (2018) 954000 574000 634000 1010000 1220000 1220000
2020-05-19 20:00 24.26 693000 1220000 (2017) 574000 (2018) 954000 574000 634000 1010000 1220000 1220000
2020-05-19 19:00 24.20 691000 1220000 (2017) 574000 (2018) 954000 574000 634000 1010000 1220000 1220000
2020-05-19 18:00 24.14 689000 1220000 (2017) 574000 (2018) 954000 574000 634000 1010000 1220000 1220000
2020-05-19 17:00 24.07 687000 1220000 (2017) 574000 (2018) 954000 574000 634000 1010000 1220000 1220000
2020-05-19 16:00 24.00 684000 1220000 (2017) 574000 (2018) 954000 574000 634000 1010000 1220000 1220000
2020-05-19 15:00 23.91 681000 1220000 (2017) 574000 (2018) 954000 574000 634000 1010000 1220000 1220000
2020-05-19 14:00 23.88 680000 1220000 (2017) 574000 (2018) 954000 574000 634000 1010000 1220000 1220000
2020-05-19 13:00 23.81 678000 1220000 (2017) 574000 (2018) 954000 574000 634000 1010000 1220000 1220000
2020-05-19 12:00 23.77 676000 1220000 (2017) 574000 (2018) 954000 574000 634000 1010000 1220000 1220000
2020-05-19 11:00 23.72 675000 1220000 (2017) 574000 (2018) 954000 574000 634000 1010000 1220000 1220000
2020-05-19 10:00 23.69 674000 1220000 (2017) 574000 (2018) 954000 574000 634000 1010000 1220000 1220000
2020-05-19 09:00 23.61 671000 1220000 (2017) 574000 (2018) 954000 574000 634000 1010000 1220000 1220000
2020-05-19 08:00 23.56 669000 1220000 (2017) 574000 (2018) 954000 574000 634000 1010000 1220000 1220000
2020-05-19 07:00 23.53 668000 1220000 (2017) 574000 (2018) 954000 574000 634000 1010000 1220000 1220000
2020-05-19 06:00 23.45 666000 1220000 (2017) 574000 (2018) 954000 574000 634000 1010000 1220000 1220000
2020-05-19 05:00 23.44 665000 1220000 (2017) 574000 (2018) 954000 574000 634000 1010000 1220000 1220000
2020-05-19 04:00 23.38 663000 1220000 (2017) 574000 (2018) 954000 574000 634000 1010000 1220000 1220000
2020-05-19 03:00 23.33 662000 1220000 (2017) 574000 (2018) 954000 574000 634000 1010000 1220000 1220000
2020-05-19 02:00 23.27 660000 1220000 (2017) 574000 (2018) 954000 574000 634000 1010000 1220000 1220000
2020-05-19 01:00 23.25 659000 1220000 (2017) 574000 (2018) 954000 574000 634000 1010000 1220000 1220000
2020-05-19 00:00 23.22 658000 1220000 (2017) 574000 (2018) 954000 574000 634000 1010000 1220000 1220000
2020-05-18 23:00 23.18 657000 1250000 (2017) 553000 (2018) 969000 553000 626000 1040000 1240000 1250000
2020-05-18 22:00 23.15 656000 1250000 (2017) 553000 (2018) 969000 553000 626000 1040000 1240000 1250000
2020-05-18 21:00 23.12 655000 1250000 (2017) 553000 (2018) 969000 553000 626000 1040000 1240000 1250000
2020-05-18 20:00 23.06 653000 1250000 (2017) 553000 (2018) 969000 553000 626000 1040000 1240000 1250000
2020-05-18 19:00 23.02 651000 1250000 (2017) 553000 (2018) 969000 553000 626000 1040000 1240000 1250000
2020-05-18 18:00 22.99 650000 1250000 (2017) 553000 (2018) 969000 553000 626000 1040000 1240000 1250000
2020-05-18 17:00 22.95 649000 1250000 (2017) 553000 (2018) 969000 553000 626000 1040000 1240000 1250000
2020-05-18 16:00 22.93 648000 1250000 (2017) 553000 (2018) 969000 553000 626000 1040000 1240000 1250000
2020-05-18 15:00 22.93 648000 1250000 (2017) 553000 (2018) 969000 553000 626000 1040000 1240000 1250000
2020-05-18 14:00 22.88 647000 1250000 (2017) 553000 (2018) 969000 553000 626000 1040000 1240000 1250000
2020-05-18 13:00 22.84 645000 1250000 (2017) 553000 (2018) 969000 553000 626000 1040000 1240000 1250000
2020-05-18 12:00 22.61 638000 1250000 (2017) 553000 (2018) 969000 553000 626000 1040000 1240000 1250000
2020-05-18 11:00 22.54 636000 1250000 (2017) 553000 (2018) 969000 553000 626000 1040000 1240000 1250000
2020-05-18 10:00 22.78 643000 1250000 (2017) 553000 (2018) 969000 553000 626000 1040000 1240000 1250000
2020-05-18 09:00 22.82 645000 1250000 (2017) 553000 (2018) 969000 553000 626000 1040000 1240000 1250000
2020-05-18 08:00 22.75 642000 1250000 (2017) 553000 (2018) 969000 553000 626000 1040000 1240000 1250000
2020-05-18 07:00 22.86 646000 1250000 (2017) 553000 (2018) 969000 553000 626000 1040000 1240000 1250000
2020-05-18 06:00 22.86 646000 1250000 (2017) 553000 (2018) 969000 553000 626000 1040000 1240000 1250000
2020-05-18 05:00 22.86 646000 1250000 (2017) 553000 (2018) 969000 553000 626000 1040000 1240000 1250000
2020-05-18 04:00 22.87 646000 1250000 (2017) 553000 (2018) 969000 553000 626000 1040000 1240000 1250000
2020-05-18 03:00 22.90 647000 1250000 (2017) 553000 (2018) 969000 553000 626000 1040000 1240000 1250000
2020-05-18 02:00 22.95 649000 1250000 (2017) 553000 (2018) 969000 553000 626000 1040000 1240000 1250000
2020-05-18 01:00 22.97 650000 1250000 (2017) 553000 (2018) 969000 553000 626000 1040000 1240000 1250000
2020-05-18 00:00 23.00 651000 1250000 (2017) 553000 (2018) 969000 553000 626000 1040000 1240000 1250000
2020-05-17 23:00 23.01 651000 1270000 (2017) 551000 (2018) 985000 551000 628000 1060000 1270000 1270000
2020-05-17 22:00 23.02 651000 1270000 (2017) 551000 (2018) 985000 551000 628000 1060000 1270000 1270000
2020-05-17 21:00 23.08 653000 1270000 (2017) 551000 (2018) 985000 551000 628000 1060000 1270000 1270000
2020-05-17 20:00 23.18 657000 1270000 (2017) 551000 (2018) 985000 551000 628000 1060000 1270000 1270000
2020-05-17 19:00 23.18 657000 1270000 (2017) 551000 (2018) 985000 551000 628000 1060000 1270000 1270000
2020-05-17 18:00 23.25 659000 1270000 (2017) 551000 (2018) 985000 551000 628000 1060000 1270000 1270000
2020-05-17 17:00 23.30 661000 1270000 (2017) 551000 (2018) 985000 551000 628000 1060000 1270000 1270000
2020-05-17 16:00 23.40 664000 1270000 (2017) 551000 (2018) 985000 551000 628000 1060000 1270000 1270000
2020-05-17 15:00 23.52 668000 1270000 (2017) 551000 (2018) 985000 551000 628000 1060000 1270000 1270000
2020-05-17 14:00 23.57 670000 1270000 (2017) 551000 (2018) 985000 551000 628000 1060000 1270000 1270000
2020-05-17 13:00 23.62 671000 1270000 (2017) 551000 (2018) 985000 551000 628000 1060000 1270000 1270000
2020-05-17 12:00 23.66 673000 1270000 (2017) 551000 (2018) 985000 551000 628000 1060000 1270000 1270000
2020-05-17 11:00 23.77 676000 1270000 (2017) 551000 (2018) 985000 551000 628000 1060000 1270000 1270000
2020-05-17 10:00 23.88 680000 1270000 (2017) 551000 (2018) 985000 551000 628000 1060000 1270000 1270000
2020-05-17 09:00 24.00 684000 1270000 (2017) 551000 (2018) 985000 551000 628000 1060000 1270000 1270000
2020-05-17 08:00 23.89 680000 1270000 (2017) 551000 (2018) 985000 551000 628000 1060000 1270000 1270000
2020-05-17 07:00 24.18 690000 1270000 (2017) 551000 (2018) 985000 551000 628000 1060000 1270000 1270000
2020-05-17 06:00 24.27 693000 1270000 (2017) 551000 (2018) 985000 551000 628000 1060000 1270000 1270000
2020-05-17 05:00 24.40 698000 1270000 (2017) 551000 (2018) 985000 551000 628000 1060000 1270000 1270000
2020-05-17 04:00 24.49 701000 1270000 (2017) 551000 (2018) 985000 551000 628000 1060000 1270000 1270000
2020-05-17 03:00 24.30 694000 1270000 (2017) 551000 (2018) 985000 551000 628000 1060000 1270000 1270000
2020-05-17 02:00 24.66 707000 1270000 (2017) 551000 (2018) 985000 551000 628000 1060000 1270000 1270000
2020-05-17 01:00 24.74 709000 1270000 (2017) 551000 (2018) 985000 551000 628000 1060000 1270000 1270000
2020-05-17 00:00 24.85 713000 1270000 (2017) 551000 (2018) 985000 551000 628000 1060000 1270000 1270000
2020-05-16 23:00 24.92 716000 1290000 (2017) 575000 (2018) 1000000 575000 646000 1070000 1290000 1290000
2020-05-16 22:00 25.03 720000 1290000 (2017) 575000 (2018) 1000000